[[{"header":{"parameterUnit":"m.s-1","parameterCategory":1,"la1":30.6,"la2":28.766,"lo1":-90.7593,"lo2":-88.6598,"dx":0.0162,"dy":0.0183,"nx":116,"ny":114,"refTime":"2023-02-06T06:00:00:Z","depth":0,"parameterNumber":2,"parameterNumberName":"U-component_of_WINDS"},"data":[0.0,0.0,0.0,0.0,0.0,0.0,0.0,0.0,0.0,0.0,0.0,0.0,0.0,0.0,0.0,0.0,0.0,0.0,0.0,0.0,0.0,0.0,0.0,0.0,0.0,0.0,0.0,0.0,0.0,0.0,0.0,0.0,0.0,0.0,0.0,0.0,0.0,0.0,0.0,0.0,0.0,0.0,0.0,0.0,0.0,0.0,0.0,0.0,0.0,0.0,0.0,0.0,0.0,0.0,0.0,0.0,0.0,0.0,0.0,0.0,0.0,0.0,0.0,0.0,0.0,0.0,0.0,0.0,0.0,0.0,0.0,0.0,0.0,0.0,0.0,0.0,0.0,0.0,0.0,0.0,0.0,0.0,0.0,0.0,0.0,0.0,0.0,0.0,0.0,0.0,0.0,0.0,0.0,0.0,0.0,0.0,0.0,0.0,0.0,0.0,0.0,0.0,0.0,0.0,0.0,0.0,0.0,0.0,0.0,0.0,0.0,0.0,0.0,0.0,0.0,0.0,0.0,0.0,0.0,0.0,0.0,0.0,0.0,0.0,0.0,0.0,0.0,0.0,0.0,0.0,0.0,0.0,0.0,0.0,0.0,0.0,0.0,0.0,0.0,0.0,0.0,0.0,0.0,0.0,0.0,0.0,0.0,0.0,0.0,0.0,0.0,0.0,0.0,0.0,0.0,0.0,0.0,0.0,0.0,0.0,0.0,0.0,0.0,0.0,0.0,0.0,0.0,0.0,0.0,0.0,0.0,0.0,0.0,0.0,0.0,0.0,0.0,0.0,0.0,0.0,0.0,0.0,0.0,0.0,0.0,0.0,0.0,0.0,0.0,0.0,0.0,0.0,0.0,0.0,0.0,0.0,0.0,0.0,0.0,0.0,0.0,0.0,0.0,0.0,0.0,0.0,0.0,0.0,0.0,0.0,0.0,0.0,0.0,0.0,0.0,0.0,0.0,0.0,0.0,0.0,0.0,0.0,0.0,0.0,0.0,0.0,0.0,0.0,0.0,0.0,0.0,0.0,0.0,0.0,0.0,0.0,0.0,0.0,0.0,0.0,0.0,0.0,0.0,0.0,0.0,0.0,0.0,0.0,0.0,0.0,0.0,0.0,0.0,0.0,0.0,0.0,0.0,0.0,0.0,0.0,0.0,0.0,0.0,0.0,0.0,0.0,0.0,0.0,0.0,0.0,0.0,0.0,0.0,0.0,0.0,0.0,0.0,0.0,0.0,0.0,0.0,0.0,0.0,0.0,0.0,0.0,0.0,0.0,0.0,0.0,0.0,0.0,0.0,0.0,0.0,0.0,0.0,0.0,0.0,0.0,0.0,0.0,0.0,0.0,0.0,0.0,0.0,0.0,0.0,0.0,0.0,0.0,0.0,0.0,0.0,0.0,0.0,0.0,0.0,0.0,0.0,0.0,0.0,0.0,0.0,0.0,0.0,0.0,0.0,0.0,0.0,0.0,0.0,0.0,0.0,0.0,0.0,0.0,0.0,0.0,0.0,0.0,0.0,0.0,0.0,0.0,0.0,0.0,0.0,0.0,0.0,0.0,0.0,0.0,0.0,0.0,0.0,0.0,0.0,0.0,0.0,0.0,0.0,0.0,0.0,0.0,0.0,0.0,0.0,0.0,0.0,0.0,0.0,0.0,0.0,0.0,0.0,0.0,0.0,0.0,0.0,0.0,0.0,0.0,0.0,0.0,0.0,0.0,0.0,0.0,0.0,0.0,0.0,0.0,0.0,0.0,0.0,0.0,0.0,0.0,0.0,0.0,0.0,0.0,0.0,0.0,0.0,0.0,0.0,0.0,0.0,0.0,0.0,0.0,0.0,0.0,0.0,0.0,0.0,0.0,0.0,0.0,0.0,0.0,0.0,0.0,0.0,0.0,0.0,0.0,0.0,0.0,0.0,0.0,0.0,0.0,0.0,0.0,0.0,0.0,0.0,0.0,0.0,0.0,0.0,0.0,0.0,0.0,0.0,0.0,0.0,0.0,0.0,0.0,0.0,0.0,0.0,0.0,0.0,0.0,0.0,0.0,0.0,0.0,0.0,0.0,0.0,0.0,0.0,0.0,0.0,0.0,0.0,0.0,0.0,0.0,0.0,0.0,0.0,0.0,0.0,0.0,0.0,0.0,0.0,0.0,0.0,0.0,0.0,0.0,0.0,0.0,0.0,0.0,0.0,0.0,0.0,0.0,0.0,0.0,0.0,0.0,0.0,0.0,0.0,0.0,0.0,0.0,0.0,0.0,0.0,0.0,0.0,0.0,0.0,0.0,0.0,0.0,0.0,0.0,0.0,0.0,0.0,0.0,0.0,0.0,0.0,0.0,0.0,0.0,0.0,0.0,0.0,0.0,0.0,0.0,0.0,0.0,0.0,0.0,0.0,0.0,0.0,0.0,0.0,0.0,0.0,0.0,0.0,0.0,0.0,0.0,0.0,0.0,0.0,0.0,0.0,0.0,0.0,0.0,0.0,0.0,0.0,0.0,0.0,0.0,0.0,0.0,0.0,0.0,0.0,0.0,0.0,0.0,0.0,0.0,0.0,0.0,0.0,0.0,0.0,0.0,0.0,0.0,0.0,0.0,0.0,0.0,0.0,0.0,0.0,0.0,0.0,0.0,0.0,0.0,0.0,0.0,0.0,0.0,0.0,0.0,0.0,0.0,0.0,0.0,0.0,0.0,0.0,0.0,0.0,0.0,0.0,0.0,0.0,0.0,0.0,0.0,0.0,0.0,0.0,0.0,0.0,0.0,0.0,0.0,0.0,0.0,0.0,0.0,0.0,0.0,0.0,0.0,0.0,0.0,0.0,0.0,0.0,0.0,0.0,0.0,0.0,0.0,0.0,0.0,0.0,0.0,0.0,0.0,0.0,0.0,0.0,0.0,0.0,0.0,0.0,0.0,0.0,0.0,0.0,0.0,0.0,0.0,0.0,0.0,0.0,0.0,0.0,0.0,0.0,0.0,0.0,0.0,0.0,0.0,0.0,0.0,0.0,0.0,0.0,0.0,0.0,0.0,0.0,0.0,0.0,0.0,0.0,0.0,0.0,0.0,0.0,0.0,0.0,0.0,0.0,0.0,0.0,0.0,0.0,0.0,0.0,0.0,0.0,0.0,0.0,0.0,0.0,0.0,0.0,0.0,0.0,0.0,0.0,0.0,0.0,0.0,0.0,0.0,0.0,0.0,0.0,0.0,0.0,0.0,0.0,0.0,0.0,0.0,0.0,0.0,0.0,0.0,0.0,0.0,0.0,0.0,0.0,0.0,0.0,0.0,0.0,0.0,0.0,0.0,0.0,0.0,0.0,0.0,0.0,0.0,0.0,0.0,0.0,0.0,0.0,0.0,0.0,0.0,0.0,0.0,0.0,0.0,0.0,0.0,0.0,0.0,0.0,0.0,0.0,0.0,0.0,0.0,0.0,0.0,0.0,0.0,0.0,0.0,0.0,0.0,0.0,0.0,0.0,0.0,0.0,0.0,0.0,0.0,0.0,0.0,0.0,0.0,0.0,0.0,0.0,0.0,0.0,0.0,0.0,0.0,0.0,0.0,0.0,0.0,0.0,0.0,0.0,0.0,0.0,0.0,0.0,0.0,0.0,0.0,0.0,0.0,0.0,0.0,0.0,0.0,0.0,0.0,0.0,0.0,0.0,0.0,0.0,0.0,0.0,0.0,0.0,0.0,0.0,0.0,0.0,0.0,0.0,0.0,0.0,0.0,0.0,0.0,0.0,0.0,0.0,0.0,0.0,0.0,0.0,0.0,0.0,0.0,0.0,0.0,0.0,0.0,0.0,0.0,0.0,0.0,0.0,0.0,0.0,0.0,0.0,0.0,0.0,0.0,0.0,0.0,0.0,0.0,0.0,0.0,0.0,0.0,0.0,0.0,0.0,0.0,0.0,0.0,0.0,0.0,0.0,0.0,0.0,0.0,0.0,0.0,0.0,0.0,0.0,0.0,0.0,0.0,0.0,0.0,0.0,0.0,0.0,0.0,0.0,0.0,0.0,0.0,0.0,0.0,0.0,0.0,0.0,0.0,0.0,0.0,0.0,0.0,0.0,0.0,0.0,0.0,0.0,0.0,0.0,0.0,0.0,0.0,0.0,0.0,0.0,0.0,0.0,0.0,0.0,0.0,0.0,0.0,0.0,0.0,0.0,0.0,0.0,0.0,0.0,0.0,0.0,0.0,0.0,0.0,0.0,0.0,0.0,0.0,0.0,0.0,0.0,0.0,0.0,0.0,0.0,0.0,0.0,0.0,0.0,0.0,0.0,0.0,0.0,0.0,0.0,0.0,0.0,0.0,0.0,0.0,0.0,0.0,0.0,0.0,0.0,0.0,0.0,0.0,0.0,0.0,0.0,0.0,0.0,0.0,0.0,0.0,0.0,0.0,0.0,0.0,0.0,0.0,0.0,0.0,0.0,0.0,0.0,0.0,0.0,0.0,0.0,0.0,0.0,0.0,0.0,0.0,0.0,0.0,0.0,0.0,0.0,0.0,0.0,0.0,0.0,0.0,0.0,0.0,0.0,0.0,0.0,0.0,0.0,0.0,0.0,0.0,0.0,0.0,0.0,0.0,0.0,0.0,0.0,0.0,0.0,0.0,0.0,0.0,0.0,0.0,0.0,0.0,0.0,0.0,0.0,0.0,0.0,0.0,0.0,0.0,0.0,0.0,0.0,0.0,0.0,0.0,0.0,0.0,0.0,0.0,0.0,0.0,0.0,0.0,0.0,0.0,0.0,0.0,0.0,0.0,0.0,0.0,0.0,0.0,0.0,0.0,0.0,0.0,0.0,0.0,0.0,0.0,0.0,0.0,0.0,0.0,0.0,0.0,0.0,0.0,0.0,0.0,0.0,0.0,0.0,0.0,0.0,0.0,0.0,0.0,0.0,0.0,0.0,0.0,0.0,0.0,0.0,0.0,0.0,0.0,0.0,0.0,0.0,0.0,0.0,0.0,0.0,0.0,0.0,0.0,0.0,0.0,0.0,0.0,0.0,0.0,0.0,0.0,0.0,0.0,0.0,0.0,0.0,0.0,0.0,0.0,0.0,0.0,0.0,0.0,0.0,0.0,0.0,0.0,0.0,0.0,0.0,0.0,0.0,0.0,0.0,0.0,0.0,0.0,0.0,0.0,0.0,0.0,0.0,0.0,0.0,0.0,0.0,0.0,0.0,0.0,0.0,0.0,0.0,0.0,0.0,0.0,0.0,0.0,0.0,0.0,0.0,0.0,0.0,0.0,0.0,0.0,0.0,0.0,0.0,0.0,0.0,0.0,0.0,0.0,0.0,0.0,0.0,0.0,0.0,0.0,0.0,0.0,0.0,0.0,0.0,0.0,0.0,0.0,0.0,0.0,0.0,0.0,0.0,0.0,0.0,0.0,0.0,0.0,0.0,0.0,0.0,0.0,0.0,0.0,0.0,0.0,0.0,0.0,0.0,0.0,0.0,0.0,0.0,0.0,0.0,0.0,0.0,0.0,0.0,0.0,0.0,0.0,0.0,0.0,0.0,0.0,0.0,0.0,0.0,0.0,0.0,0.0,0.0,0.0,0.0,0.0,0.0,0.0,0.0,0.0,0.0,0.0,0.0,0.0,0.0,0.0,0.0,0.0,0.0,0.0,0.0,0.0,0.0,0.0,0.0,0.0,0.0,0.0,0.0,0.0,0.0,0.0,0.0,0.0,0.0,0.0,0.0,0.0,0.0,0.0,0.0,0.0,0.0,0.0,0.0,0.0,0.0,0.0,0.0,0.0,0.0,0.0,0.0,0.0,0.0,0.0,0.0,0.0,0.0,0.0,0.0,0.0,0.0,0.0,0.0,0.0,0.0,0.0,0.0,0.0,0.0,0.0,0.0,0.0,0.0,0.0,0.0,0.0,0.0,0.0,0.0,0.0,0.0,0.0,0.0,0.0,0.0,0.0,0.0,0.0,0.0,0.0,0.0,0.0,0.0,0.0,0.0,0.0,0.0,0.0,0.0,0.0,0.0,0.0,0.0,0.0,0.0,0.0,0.0,0.0,0.0,0.0,0.0,0.0,0.0,0.0,0.0,0.0,0.0,0.0,0.0,0.0,0.0,0.0,0.0,0.0,0.0,0.0,-1.0982,-1.1558,0.0,0.0,0.0,0.0,0.0,0.0,0.0,0.0,0.0,0.0,0.0,0.0,0.0,0.0,0.0,0.0,0.0,0.0,0.0,0.0,0.0,0.0,0.0,0.0,0.0,0.0,0.0,0.0,0.0,0.0,0.0,0.0,0.0,0.0,0.0,0.0,0.0,0.0,-0.2855,-0.3635,-0.4229,-0.3771,-0.3502,-0.3487,0.0,0.0,0.0,0.0,0.0,0.0,0.0,0.0,0.0,0.0,0.0,0.0,0.0,0.0,0.0,0.0,0.0,0.0,0.0,0.0,0.0,0.0,0.0,0.0,0.0,0.0,0.0,0.0,0.0,0.0,0.0,0.0,0.0,0.0,0.0,0.0,0.0,0.0,0.0,0.0,0.0,0.0,0.0,0.0,0.0,0.0,0.0,0.0,0.0,0.0,0.0,0.0,0.0,0.0,0.0,0.0,0.0,0.0,0.0,0.0,0.0,0.0,0.0,0.0,0.0,0.0,0.0,0.0,0.0,0.0,-1.1538,-1.1848,0.0,0.0,0.0,0.0,0.0,0.0,0.0,0.0,0.0,0.0,0.0,0.0,0.0,0.0,0.0,0.0,0.0,0.0,0.0,0.0,0.0,0.0,0.0,0.6763,0.5708,0.4176,0.3448,0.2771,0.0,0.0,0.0,0.0,0.0,0.0,0.0,-0.0672,-0.1511,-0.2681,-0.4101,-0.5121,-0.5677,-0.5797,-0.5517,-0.4923,-0.5143,0.0,0.0,0.0,0.0,0.0,0.0,0.0,0.0,0.0,0.0,0.0,0.0,0.0,0.0,0.0,0.0,0.0,0.0,0.0,0.0,0.0,0.0,0.0,0.0,0.0,0.0,0.0,0.0,0.0,0.0,0.0,0.0,0.0,0.0,0.0,0.0,0.0,0.0,0.0,0.0,0.0,0.0,0.0,0.0,0.0,0.0,0.0,0.0,0.0,0.0,0.0,0.0,0.0,0.0,0.0,0.0,0.0,0.0,0.0,0.0,0.0,0.0,0.0,-1.1178,-1.1365,-1.1358,-1.1903,-1.1841,-1.1365,-1.1964,-1.2112,-1.1941,-1.293,0.0,0.0,0.0,0.0,0.0,0.0,0.0,0.0,0.0,0.0,0.0,0.0,0.0,0.0,0.0,0.0,0.0,0.0,0.0,0.0,0.0,0.6698,0.5385,0.3658,0.2949,0.2138,0.1128,0.0,0.0,0.0,0.0,0.0,-0.0,-0.0839,-0.1958,-0.3471,-0.4723,-0.5513,-0.5856,-0.6437,-0.6543,-0.6129,-0.589,-0.569,-0.5624,0.0,0.0,0.0,0.0,0.0,0.0,0.0,0.0,0.0,0.0,0.0,0.0,0.0,0.0,0.0,0.0,0.0,0.0,0.0,0.0,0.0,0.0,0.0,0.0,0.0,0.0,0.0,0.0,0.0,0.0,0.0,0.0,0.0,0.0,0.0,0.0,0.0,0.0,0.0,0.0,0.0,-0.547,-0.8596,0.0,0.0,0.0,0.0,0.0,0.0,0.0,0.0,0.0,0.0,0.0,0.0,0.0,-1.0933,-1.1358,-1.087,-1.087,-1.1365,-1.0933,-1.0751,-1.0751,-1.0807,-1.0807,-1.0758,-1.1081,0.0,-1.246,-1.2242,0.0,0.0,0.0,0.0,0.0,0.0,0.0,0.0,0.0,0.0,0.0,0.0,0.0,0.0,0.0,0.0,0.0,0.0,0.0,0.0,0.0,0.6582,0.52,0.3668,0.3017,0.2248,0.1207,0.1147,0.0,0.0,0.0,0.0448,-0.0503,-0.0895,-0.2065,-0.4079,-0.5031,-0.5736,-0.6244,-0.6542,-0.6754,-0.6849,-0.668,-0.6387,-0.5888,-0.5888,0.0,0.0,0.0,0.0,0.0,0.0,0.0,0.0,0.0,0.0,0.0,0.0,0.0,0.0,0.0,0.0,0.0,0.0,0.0,0.0,0.0,0.0,0.0,0.0,0.0,0.0,0.0,0.0,0.0,0.0,0.0,0.0,0.0,0.0,0.0,0.0,0.0,0.0,0.0,-0.4629,-0.6078,-0.9142,-0.9515,-0.9479,0.0,0.0,0.0,0.0,0.0,0.0,0.0,0.0,0.0,-1.0996,-1.1052,-1.1052,-1.0989,-1.0744,-1.087,-1.1483,-1.087,-1.0807,-1.1115,-1.0744,-1.0648,-1.0822,-1.1109,-1.1608,-1.2165,-1.1952,-1.2462,-1.3237,0.0,0.0,0.0,0.0,-1.2305,-1.2305,0.0,0.0,0.0,0.0,0.0,0.0,0.0,0.0,0.0,0.0,0.0,0.0,0.7562,0.6302,0.4949,0.3587,0.3029,0.2298,0.1348,0.1291,0.1178,0.0898,0.0898,0.0392,-0.0727,-0.1341,-0.2674,-0.468,-0.5399,-0.5972,-0.6398,-0.6449,-0.6728,-0.7083,-0.7197,-0.6889,-0.6284,-0.6284,-0.6284,-0.6218,0.0,0.0,0.0,0.0,0.0,0.0,0.0,0.0,0.0,0.0,0.0,0.0,0.0,0.0,0.0,0.0,0.0,0.0,0.0,0.0,0.0,0.0,0.0,0.0,0.0,0.0,0.0,0.0,0.0,0.0,0.0,0.0,0.0,0.0,0.0,0.0,0.0,-0.6074,-0.7182,-0.9274,-0.9514,-0.9817,0.0,0.0,0.0,0.0,0.0,0.0,-1.1262,-1.1553,-1.1483,-1.087,-1.1303,-1.124,-1.0624,-1.0744,-1.0996,-1.1233,-1.0807,-1.0807,-1.124,-1.0807,-1.0722,-1.1009,-1.1296,-1.1597,-1.1877,-1.1951,-1.2249,-1.2592,-1.2378,-1.2445,-1.2592,-1.2378,-1.2305,-1.2305,0.0,0.0,0.0,0.0,0.0,0.0,0.0,0.0,0.0,0.0,0.0,0.8085,0.705,0.5671,0.4408,0.3297,0.2628,0.1964,0.1347,0.1291,0.1178,0.0898,0.0898,0.0505,-0.0393,-0.2569,-0.4177,-0.5281,-0.5723,-0.6064,-0.6196,-0.6384,-0.6595,-0.6815,-0.7073,-0.7267,-0.7391,-0.7391,-0.733,-0.7073,-0.6342,0.0,0.0,0.0,0.0,0.0,0.0,0.0,0.0,0.0,0.0,0.0,0.0,0.0,0.0,0.0,0.0,0.0,0.0,0.0,0.0,0.0,0.0,0.0,0.0,0.0,0.0,0.0,0.0,0.0,0.0,0.0,0.0,0.0,0.0,0.0,0.0,0.0,0.0,-0.9456,-0.9496,0.0,0.0,0.0,0.0,-1.2514,-1.3561,-1.397,-1.3116,-1.2674,-1.2151,-1.1483,-1.1483,-1.124,-1.0624,-1.1178,-1.1178,-1.0624,-1.0624,-1.0624,-1.0624,-1.0624,-1.0722,-1.1009,-1.1296,-1.1597,-1.1891,-1.2164,-1.2725,-1.339,-1.2592,-1.2739,-1.3317,-1.2592,-1.2305,-1.2305,0.0,0.0,0.0,0.0,0.0,0.0,0.0,0.0,0.9882,0.9475,0.831,0.723,0.6411,0.4894,0.374,0.3362,0.2819,0.224,0.168,0.1624,0.14,0.0898,0.0617,-0.0168,-0.1396,-0.3012,-0.4181,-0.5062,-0.5668,-0.6059,-0.6178,-0.6248,-0.6463,-0.6796,-0.6932,-0.7144,-0.7521,-0.7521,-0.7591,-0.7657,-0.7195,-0.6798,0.0,0.0,0.0,0.0,0.0,0.0,0.0,0.0,0.0,0.0,0.0,0.0,0.0,0.0,0.0,0.0,0.0,0.0,0.0,0.0,0.0,0.0,0.0,0.0,0.0,0.0,0.0,0.0,0.0,0.0,0.0,0.0,0.0,0.0,0.0,0.0,0.0,-0.9496,-0.9484,0.0,-1.1814,-1.3517,-1.3814,-1.2228,-1.3055,-1.3422,-1.2797,-1.2589,-1.2389,-1.2143,-1.1725,-1.1428,-1.1178,-1.0996,-1.1094,-1.1482,-1.103,-1.1197,-1.1772,-1.1118,-1.1102,-1.155,-1.1463,-1.1703,-1.2151,-1.2258,-1.2445,-1.2739,-1.2445,-1.2445,-1.2666,-1.2378,-1.2305,-1.2305,0.0,0.0,0.0,0.0,0.0,0.0,0.0,0.0,0.9819,0.9217,0.7801,0.6515,0.5789,0.4191,0.3175,0.314,0.2856,0.2465,0.1846,0.179,0.1512,0.0954,0.0336,-0.0727,-0.2284,-0.3289,-0.4236,-0.512,-0.5727,-0.6059,-0.6119,-0.6178,-0.6398,-0.6791,-0.6791,-0.7078,-0.7521,-0.7521,-0.7722,-0.7987,-0.7461,-0.7129,-0.6798,0.0,0.0,0.0,0.0,0.0,0.0,0.0,0.0,0.0,0.0,0.0,0.0,0.0,0.0,0.0,0.0,0.0,0.0,0.0,0.0,0.0,0.0,0.0,0.0,0.0,0.0,0.0,0.0,0.0,0.0,0.0,0.0,0.0,0.0,-0.9515,-0.9526,-0.9478,-0.9478,-0.9874,-1.0721,-1.2453,-1.3056,-1.2096,-1.283,-1.3058,-1.2512,-1.2512,-1.2389,-1.2151,-1.1725,-1.1471,-1.1333,-1.1149,-1.1302,-1.18,-1.1336,-1.1438,-1.2023,-1.1424,-1.1349,-1.1717,-1.1617,-1.1797,-1.2164,-1.2184,-1.2224,-1.2224,-1.2305,-1.2305,-1.2305,-1.2305,-1.2305,-1.2285,0.0,0.0,0.0,0.0,0.0,0.0,0.0,1.0174,0.9756,0.8915,0.7432,0.6161,0.5165,0.3748,0.2787,0.2699,0.2691,0.2465,0.1846,0.179,0.1512,0.0898,0.0056,-0.1174,-0.2839,-0.3458,-0.4405,-0.5563,-0.5841,-0.6,-0.6,-0.6119,-0.6398,-0.6791,-0.6791,-0.7016,-0.7456,-0.7456,-0.7657,-0.7857,-0.7204,-0.6811,-0.6609,0.0,0.0,0.0,0.0,0.0,0.0,0.0,0.0,0.0,0.0,0.0,0.0,0.0,0.0,0.0,0.0,0.0,0.0,0.0,0.0,0.0,0.0,0.0,0.0,0.0,0.0,0.0,0.0,0.0,0.0,0.0,0.0,0.0,-0.9083,-0.945,-0.952,-0.953,-0.9472,-0.9919,-1.1038,-1.138,-1.1692,-1.2212,-1.3009,-1.3199,-1.2512,-1.2512,-1.2212,-1.1545,-1.1498,-1.1333,-1.1055,-1.1652,-1.1808,-1.1443,-1.1443,-1.1443,-1.145,-1.1443,-1.1443,-1.147,-1.1737,-1.1864,-1.1891,-1.1952,-1.199,-1.199,-1.2224,-1.2298,-1.2298,-1.2305,-1.2224,-1.2245,0.0,0.0,0.0,0.0,0.0,0.0,0.0,1.1052,1.0309,0.8589,0.7487,0.6263,0.4694,0.3735,0.3112,0.2749,0.2691,0.2465,0.1846,0.179,0.1231,-0.0,-0.0617,-0.1511,-0.2734,-0.3347,-0.407,-0.4948,-0.5454,-0.5786,-0.6,-0.6059,-0.6163,-0.6302,-0.6302,-0.6328,-0.6346,-0.6346,-0.6416,-0.6544,-0.6942,-0.6741,-0.6075,0.0,0.0,0.0,0.0,0.0,0.0,0.0,0.0,0.0,0.0,0.0,0.0,0.0,0.0,0.0,0.0,0.0,0.0,0.0,0.0,0.0,0.0,0.0,0.0,0.0,0.0,0.0,0.0,0.0,0.0,0.0,-0.5428,-0.6024,-0.7746,-0.8842,-0.9509,-0.9484,-0.9478,-0.9676,-1.018,-1.0793,-1.1288,-1.1545,-1.2336,-1.2696,-1.2512,-1.2512,-1.2451,-1.2205,-1.1963,-1.1811,-1.171,-1.1597,-1.1655,-1.175,-1.175,-1.1857,-1.2051,-1.1844,-1.1786,-1.1821,-1.1486,-1.139,-1.1443,-1.1448,-1.148,-1.1499,-1.1924,-1.2077,-1.2003,-1.1558,-1.1285,-1.1153,0.0,0.0,0.0,0.0,0.0,0.0,0.0,1.1476,1.0649,0.9289,0.7936,0.6625,0.5258,0.4295,0.3575,0.3028,0.3135,0.2854,0.1846,0.1399,0.0672,-0.0336,-0.0842,-0.1624,-0.2681,-0.3292,-0.3956,-0.4622,-0.5289,-0.5618,-0.5618,-0.5673,-0.5758,-0.5812,-0.5812,-0.5825,-0.5888,-0.5888,-0.5756,-0.562,-0.6145,-0.6009,-0.5543,-0.5679,-0.5286,-0.4694,-0.4764,-0.4834,-0.4906,-0.5036,0.0,0.0,0.0,0.0,0.0,0.0,0.0,0.0,0.0,0.0,0.0,0.0,0.0,0.0,0.0,0.0,0.0,0.0,0.0,0.0,0.0,0.0,0.0,0.0,-0.5428,-0.5752,-0.6859,-0.8093,-0.8967,-0.9092,-0.935,-0.959,-0.99,-1.0341,-1.0768,-1.0967,-1.1745,-1.217,-1.217,-1.2103,-1.215,-1.2296,-1.1797,-1.1706,-1.1967,-1.173,-1.1686,-1.1979,-1.1979,-1.1992,-1.207,-1.1906,-1.1788,-1.1661,-1.141,-1.1224,-1.1121,-1.1051,-1.0839,0.0,0.0,0.0,0.0,0.0,-1.0018,-0.993,0.0,0.0,0.0,0.0,0.0,0.0,0.0,1.1764,1.108,1.0395,0.8754,0.7286,0.6482,0.5232,0.4219,0.3644,0.3855,0.3408,0.2014,0.0896,0.0112,-0.0336,-0.0785,-0.1512,-0.2569,-0.3236,-0.3849,-0.4405,-0.5179,-0.5399,-0.5069,-0.5226,-0.53,-0.5264,-0.5325,-0.5446,-0.569,-0.569,-0.5425,-0.502,-0.502,-0.502,-0.5024,-0.5226,-0.496,-0.4561,-0.4697,-0.484,-0.4916,-0.4982,0.0,0.0,0.0,0.0,0.0,0.0,0.0,0.0,0.0,0.0,0.0,0.0,0.0,0.0,0.0,0.0,0.0,0.0,0.0,0.0,0.0,0.0,0.0,0.0,-0.5442,-0.5649,-0.6234,-0.7259,-0.8134,-0.8468,-0.9085,-0.9598,-0.9892,-1.0117,-1.035,-1.0591,-1.1249,-1.1622,-1.1622,-1.1489,0.0,0.0,0.0,-1.1275,-1.1864,-1.1826,-1.19,-1.2003,-1.2003,-1.1855,-1.1706,-1.1706,-1.156,-1.1293,-1.1119,-1.0949,-1.0623,-1.0416,-0.9863,-0.9329,-0.985,-1.009,-0.9912,-0.9087,-0.8718,-0.8618,0.0,0.0,0.0,0.0,0.0,0.0,0.0,1.313,1.2381,1.0703,1.0001,0.8981,0.7126,0.616,0.5401,0.4677,0.4236,0.363,0.2738,0.1564,0.0671,0.0112,-0.0448,-0.1119,-0.1794,-0.2961,-0.368,-0.3793,-0.4849,-0.5179,-0.4783,-0.5011,-0.4905,-0.4412,-0.4661,-0.47,-0.4631,-0.4631,-0.4564,-0.4431,-0.4431,-0.4431,-0.4431,-0.45,-0.4434,-0.4367,-0.4367,-0.4434,-0.4436,-0.4709,-0.383,-0.2818,-0.3092,-0.2956,0.0,0.0,0.0,0.0,0.0,0.0,0.0,0.0,0.0,0.0,0.0,0.0,0.0,0.0,0.0,0.0,0.0,0.0,0.0,-0.5428,-0.5464,-0.5614,-0.5747,-0.6549,-0.755,-0.8657,-0.9015,-0.9433,-1.0179,-1.0392,-1.0617,-1.0811,-1.0891,-1.1064,-1.12,-1.1012,-1.0937,-1.1064,-1.1153,-1.1327,-1.1436,-1.1661,-1.1729,-1.1781,0.0,0.0,-1.1706,-1.1706,-1.1481,-1.0994,-1.0284,-0.9691,-0.9248,-0.8633,-0.7957,-0.7436,-0.8464,-0.8548,-0.8179,-0.8368,-0.8084,-0.7587,0.0,0.0,0.0,0.0,0.0,0.0,0.0,1.37,1.313,1.2135,1.1355,1.0221,0.861,0.7813,0.6919,0.5778,0.4776,0.4064,0.3674,0.2286,0.1228,0.0672,0.0112,-0.0391,-0.101,-0.2066,-0.2732,-0.3067,-0.4015,-0.4239,-0.3904,-0.4085,-0.4054,-0.3875,-0.3936,-0.4065,-0.43,-0.4306,-0.4308,-0.4308,-0.4308,-0.4308,-0.4308,-0.4303,-0.4303,-0.4308,-0.4308,-0.4311,-0.4314,-0.4451,-0.296,-0.1143,-0.1748,-0.1749,-0.148,0.0,0.0,0.0,0.0,0.0,0.0,0.0,0.0,0.0,0.0,0.0,0.0,0.0,0.0,-0.2882,0.0,0.0,-0.5064,-0.5406,-0.5599,-0.5694,-0.5694,-0.6111,-0.6797,-0.7804,-0.8289,-0.8674,-0.9214,-0.9729,-1.0147,-1.0353,-1.0301,-1.0367,-1.0431,-0.988,-0.9653,-0.9777,-0.9979,-1.0327,-1.09,-1.1033,-1.1248,-1.1558,-1.1111,-1.0887,-1.0812,-1.0357,-0.9994,-0.9685,-0.9095,-0.8646,-0.8285,-0.744,-0.6869,-0.6617,-0.6839,-0.674,-0.6527,-0.6768,-0.6672,-0.6329,0.0,0.0,0.0,0.0,0.0,0.0,0.0,1.407,1.3631,1.3511,1.2557,1.145,1.0356,0.9595,0.8468,0.6825,0.5634,0.4875,0.4608,0.3222,0.2115,0.1507,0.1004,0.0503,-0.0056,-0.0949,-0.1615,-0.2174,-0.2841,-0.3021,-0.2765,-0.2783,-0.2877,-0.2985,-0.2929,-0.3268,-0.3761,-0.3902,-0.3974,-0.3974,-0.3904,-0.4043,-0.4317,-0.4308,-0.4105,-0.3904,-0.3904,-0.4048,-0.4327,-0.4327,-0.236,-0.0135,-0.0674,-0.0742,-0.0539,-0.0202,-0.0336,0.0,0.0,0.0,0.0,0.0,0.0,0.0,0.0,0.0,-0.1279,-0.1825,-0.203,-0.2506,-0.3673,-0.4092,-0.4504,-0.5281,-0.5535,-0.5627,-0.5844,-0.5976,-0.625,-0.6707,-0.7407,-0.7965,-0.8346,-0.8955,-0.9479,-0.9674,-0.9654,-0.961,-0.961,-0.8918,-0.8538,-0.8783,-0.8793,-0.9247,-1.0115,-1.0115,-1.0421,-1.0881,-1.0212,-0.9841,-0.9614,-0.9008,-0.8562,-0.8384,-0.799,-0.7605,-0.7337,-0.658,-0.6273,-0.6238,-0.5713,-0.5447,-0.544,-0.5449,-0.5428,-0.5428,0.0,0.0,0.0,0.0,0.0,0.0,0.0,0.0,1.4198,1.3571,1.3381,1.2912,1.198,1.0992,0.9701,0.7889,0.7239,0.6431,0.5429,0.4878,0.4051,0.2952,0.2286,0.1728,0.1114,0.0056,-0.0723,-0.1058,-0.1388,-0.1524,-0.1514,-0.1519,-0.1453,-0.1281,-0.1539,-0.1696,-0.1944,-0.2484,-0.2686,-0.2686,-0.2417,-0.3163,-0.4327,-0.4325,-0.3502,-0.2348,-0.2348,-0.3163,-0.4327,-0.4327,-0.236,-0.0,-0.0067,-0.0539,-0.0741,0.0875,0.1345,0.1277,0.1275,0.0738,0.0134,0.0134,-0.047,-0.1076,0.0,0.0,-0.1151,-0.118,-0.1742,-0.2244,-0.2369,-0.2963,-0.3689,-0.4557,-0.48,-0.5176,-0.5854,-0.6135,-0.6304,-0.6364,-0.7046,-0.7808,-0.8585,-0.8742,-0.8903,-0.9074,-0.8903,-0.8888,-0.911,-0.8793,-0.8713,-0.8737,-0.8737,-0.8751,-0.8927,-0.8927,-0.8927,-0.9003,-0.8927,-0.8856,-0.8856,-0.878,-0.8486,-0.8089,-0.7013,-0.6277,-0.5862,-0.5707,-0.5776,-0.5891,-0.5752,-0.5752,-0.5722,-0.5457,-0.5428,-0.5428,0.0,0.0,0.0,0.0,0.0,0.0,0.0,0.0,0.0,1.4638,1.43,1.385,1.3243,1.2318,1.1509,1.0825,0.9494,0.8386,0.751,0.6577,0.5588,0.4656,0.4048,0.3498,0.2885,0.1722,0.0899,0.0516,0.0057,-0.0292,-0.0422,-0.0245,-0.0502,-0.0966,-0.072,-0.0464,-0.0201,0.0536,0.0736,0.0535,0.0669,0.0201,-0.0604,-0.0604,-0.0201,0.0469,0.1342,0.1209,0.0,-0.0268,0.0201,0.1276,0.1412,0.1276,0.1075,0.1477,0.1611,0.1544,0.1475,0.114,0.0872,0.0872,0.0604,0.0202,-0.0274,-0.0344,-0.0486,-0.107,-0.1433,-0.1724,-0.2105,-0.2578,-0.3048,0.0,-0.4093,-0.4311,-0.4696,-0.4817,-0.4849,-0.4849,-0.5544,-0.6398,-0.7253,-0.771,-0.8016,-0.8089,-0.8016,-0.8016,-0.8089,-0.7633,-0.733,-0.733,-0.733,-0.7557,-0.8016,-0.8016,-0.8246,-0.8699,-0.8246,-0.8016,-0.8016,-0.7484,-0.7135,-0.6718,-0.6224,-0.588,-0.5596,-0.5681,-0.5749,-0.58,-0.5659,-0.5591,-0.5636,-0.5572,-0.5494,-0.5481,0.0,0.0,0.0,0.0,0.0,0.0,0.0,0.0,0.0,0.0,1.5303,1.4955,1.4598,1.3976,1.3468,1.3294,1.1798,1.0468,0.9542,0.8327,0.7249,0.6416,0.5909,0.5402,0.4945,0.3984,0.3285,0.2773,0.242,0.2101,0.1732,0.2025,0.1669,0.0842,0.1323,0.1735,0.2002,0.3013,0.3282,0.3076,0.3349,0.3286,0.3021,0.2753,0.2686,0.2822,0.3435,0.3981,0.4121,0.3094,0.2686,0.2753,0.2956,0.3023,0.2889,0.2482,0.2347,0.2347,0.2144,0.1942,0.1742,0.1676,0.1551,0.1228,0.0627,0.0352,0.0071,-0.0733,-0.1031,-0.1329,-0.1857,-0.2039,-0.2368,-0.313,-0.333,-0.3521,-0.3752,-0.383,-0.383,-0.383,-0.43,-0.5004,-0.5789,-0.6641,-0.7176,-0.7176,-0.7176,-0.7176,-0.7176,-0.6644,-0.6338,-0.6338,-0.6338,-0.6567,-0.7176,-0.7176,-0.7484,-0.8016,-0.7403,-0.7096,-0.7019,-0.6364,-0.5927,-0.5722,-0.5679,-0.5633,-0.5661,-0.5761,-0.5828,-0.5939,-0.5795,-0.5644,-0.5555,-0.5561,-0.5553,-0.5421,0.0,0.0,0.0,0.0,0.0,0.0,0.0,0.0,0.0,0.0,0.0,0.0,0.0,1.5987,1.5562,1.4538,1.3874,1.2779,1.1073,1.0165,0.9208,0.8164,0.7677,0.7377,0.721,0.6894,0.6529,0.6049,0.63,0.6147,0.5623,0.5888,0.5792,0.5422,0.5425,0.5301,0.5111,0.4262,0.387,0.3939,0.4906,0.5326,0.5192,0.4517,0.4247,0.4041,0.2686,0.3092,0.4314,0.4247,0.4247,0.4247,0.4247,0.4247,0.4244,0.4236,0.4233,0.4233,0.4231,0.0,0.2882,0.2684,0.2054,0.1467,0.1191,0.0786,0.0367,-0.0,-0.0681,-0.1219,-0.1327,-0.1333,-0.1569,-0.243,-0.251,-0.2821,-0.3677,-0.383,-0.383,-0.383,-0.383,-0.4068,0.0,-0.5634,-0.6338,-0.6338,-0.6338,-0.6338,-0.6338,-0.6338,-0.6338,-0.6338,-0.6338,-0.6338,-0.6338,-0.6338,-0.6338,-0.6338,-0.6099,-0.5938,-0.5935,-0.5572,-0.5439,-0.551,-0.5301,-0.5472,-0.5761,-0.5764,-0.6,-0.6281,-0.6281,-0.596,-0.5625,-0.5575,-0.5436,-0.5072,0.0,0.0,0.0,0.0,0.0,0.0,0.0,0.0,0.0,0.0,0.0,0.0,0.0,0.0,0.0,0.0,1.5729,1.4746,1.4105,1.2872,1.1922,1.1384,1.0485,0.9765,0.9324,0.8539,0.7849,0.7186,0.6998,0.6657,0.6193,0.6531,0.6298,0.5748,0.6021,0.6225,0.6355,0.5902,0.5975,0.6445,0.6671,0.6354,0.5892,0.6145,0.5881,0.5352,0.0,0.5282,0.5306,0.5557,0.5686,0.5686,0.5686,0.5686,0.5686,0.5679,0.5348,0.0,0.0,0.0,0.3623,0.3558,0.3428,0.3091,0.2429,0.2196,0.1877,0.1079,0.062,0.0311,-0.0078,-0.0157,-0.0471,-0.157,-0.1728,-0.1805,-0.2118,-0.2117,-0.2117,-0.2117,-0.2115,0.0,0.0,0.0,0.0,-0.6271,-0.6274,-0.6271,-0.6338,-0.6338,-0.618,-0.6022,-0.6022,-0.5944,-0.5873,-0.5873,-0.5873,-0.5873,-0.5873,-0.5796,-0.5721,-0.5597,-0.5536,-0.5538,-0.4339,-0.38,-0.3783,-0.3919,-0.4042,-0.4146,-0.4153,-0.4075,-0.3915,-0.3655,-0.4169,-0.4885,0.0,0.0,0.0,0.0,0.0,0.0,0.0,0.0,0.0,0.0,0.0,0.0,0.0,0.0,0.0,0.0,0.0,1.6406,1.6111,1.4949,1.4082,1.3747,1.3011,1.2396,1.1946,1.1256,1.0696,1.0194,0.9591,0.9184,0.8891,0.8925,0.8601,0.8122,0.8398,0.8601,0.867,0.8356,0.8436,0.8715,0.8393,0.7872,0.7358,0.7742,0.7543,0.0,0.7807,0.7687,0.7172,0.6724,0.6527,0.6527,0.6527,0.6461,0.64,0.0,0.0,0.0,0.0,0.5216,0.4755,0.4492,0.4483,0.4412,0.3475,0.336,0.3151,0.2186,0.188,0.1645,0.0941,0.0863,0.0471,-0.055,-0.0707,-0.0786,-0.1021,-0.1021,-0.1021,-0.1021,-0.102,-0.1098,0.0,0.0,0.0,-0.5087,-0.5883,-0.6281,-0.6274,-0.6274,-0.6193,-0.6032,-0.5873,-0.5718,-0.5565,-0.5565,-0.5569,-0.5572,-0.5093,-0.4698,-0.4467,-0.4467,-0.4828,-0.5313,-0.4285,-0.3027,-0.1761,-0.1943,-0.1955,-0.1955,-0.1957,-0.243,-0.3061,-0.2669,-0.354,-0.4704,0.0,0.0,0.0,0.0,0.0,0.0,0.0,0.0,0.0,0.0,0.0,0.0,0.0,0.0,0.0,0.0,0.0,0.0,1.7147,1.6388,1.58,1.5264,1.5206,1.5148,1.4965,1.4965,1.4849,1.4674,1.3895,1.3502,1.3451,1.2854,1.2504,1.2381,1.2381,1.2258,1.2004,1.1363,1.0982,1.0725,1.0065,0.9686,0.9446,0.9376,0.9307,0.9307,0.9888,1.0084,0.9768,0.7752,0.6981,0.0,0.0,0.0,0.0,0.0,0.0,0.6465,0.6465,0.6396,0.6203,0.5352,0.529,0.5209,0.4362,0.4237,0.407,0.3288,0.3054,0.274,0.0,0.0,0.149,0.0707,0.055,0.0314,-0.0314,-0.0471,-0.0471,0.0,0.0,0.0,0.0,0.0,0.0,-0.289,0.0,-0.6054,-0.6136,-0.6136,-0.6136,-0.6136,-0.5736,-0.5497,-0.5416,-0.5416,-0.55,-0.5511,-0.3923,-0.2898,-0.2347,-0.2347,-0.3214,-0.4729,-0.4729,-0.2907,-0.0,-0.0,-0.0,-0.0,-0.0,-0.1178,-0.2912,-0.2518,-0.3387,-0.4406,0.0,0.0,0.0,0.0,0.0,0.0,0.0,0.0,0.0,0.0,0.0,0.0,0.0,0.0,0.0,0.0,0.0,0.0,1.9684,1.9064,1.866,1.849,1.8093,1.7585,1.7115,1.7115,1.6597,1.5499,1.5186,1.4753,1.4291,1.3996,1.3826,1.3767,1.3767,1.3485,1.3028,1.2753,1.2273,1.1626,1.137,1.0857,1.0286,1.0732,1.0607,1.0223,1.0864,1.1121,1.0996,1.0242,0.0,0.0,0.0,0.8112,0.7982,0.0,0.0,0.719,0.719,0.6793,0.6334,0.6137,0.6165,0.6007,0.5057,0.5061,0.4971,0.4059,0.3917,0.3995,0.0,0.0,0.0,0.3374,0.2585,0.0,0.1722,0.1722,0.0,-0.0,0.0,-0.0784,-0.1257,-0.1335,0.0,0.0,-0.1331,-0.2268,-0.3832,-0.391,-0.3912,-0.3917,-0.3839,-0.3602,-0.3287,-0.3287,-0.3921,-0.5121,-0.4721,-0.3141,-0.0628,-0.0628,-0.0863,-0.1256,-0.1256,-0.0785,-0.0,-0.0,-0.0,-0.0,-0.0,-0.0314,-0.0786,-0.0707,-0.0943,-0.1178,0.0,0.0,0.0,0.0,0.0,0.0,0.0,0.0,0.0,0.0,0.0,0.0,0.0,0.0,0.0,0.0,0.0,0.0,0.0,1.9825,1.9748,1.9748,1.9414,1.9144,1.8879,1.8927,1.8689,1.8105,1.7508,1.6851,1.6167,1.577,1.5446,1.5206,1.5206,1.4974,1.47,1.4622,1.4269,0.0,0.0,1.3132,1.2639,1.2679,1.2435,1.2174,1.232,1.2389,1.232,0.0,0.0,0.9958,0.946,0.9022,0.8646,0.8646,0.0,0.7917,0.7917,0.7657,0.7256,0.6929,0.694,0.6838,0.5958,0.5957,0.5962,0.5506,0.5231,0.5098,0.5154,0.4779,0.447,0.0,0.0,0.0,0.3604,0.3604,0.3212,0.0,0.133,0.0,0.0392,0.0392,0.0549,0.0,0.0392,-0.047,-0.1643,-0.1721,-0.1722,-0.1724,-0.1724,-0.1645,-0.141,-0.141,-0.1882,-0.2829,-0.2829,-0.1806,-0.0,-0.0,-0.0,-0.0,-0.0,0.0864,0.22,0.22,0.1726,0.1097,0.1097,0.1097,0.1097,0.1097,0.1097,0.1097,0.0,0.0,0.0,0.0,0.0,0.0,0.0,0.0,0.0,0.0,0.0,0.0,0.0,0.0,0.0,0.0,0.0,0.0,0.0,0.0,1.9952,2.0003,2.0003,2.0143,2.0364,2.0568,2.0812,2.1146,2.0055,1.9181,1.8454,1.7881,1.7302,1.6743,1.6754,1.6698,1.6574,1.6528,1.6404,1.6177,1.5776,1.5565,1.541,0.0,1.4359,1.43,1.3872,1.3631,1.3511,0.0,1.1764,1.0521,1.0268,0.9646,0.9087,0.8958,0.8894,0.8705,0.8576,0.8576,0.8441,0.7787,0.766,0.7532,0.6869,0.6794,0.6956,0.6984,0.6522,0.6061,0.6026,0.5455,0.4857,0.4784,0.0,0.4711,0.4951,0.5029,0.5029,0.5029,0.3682,0.2817,0.2818,0.2818,0.2818,0.2818,0.1489,0.0549,0.0314,0.0314,0.0314,0.0314,0.0314,0.0314,0.0314,0.0314,0.0314,0.0314,0.0314,0.0314,0.0314,0.0314,0.0314,0.0314,0.0314,0.1962,0.4646,0.4886,0.4164,0.2818,0.2818,0.2818,0.2818,0.2818,0.2818,0.2818,0.0,0.0,0.0,0.0,0.0,0.0,0.0,0.0,0.0,0.0,0.0,0.0,0.0,0.0,0.0,0.0,0.0,0.0,0.0,0.0,0.0,2.1118,2.1118,2.1348,2.1846,2.186,2.1712,2.1367,2.1042,2.0557,2.0004,1.9542,1.9294,1.9202,1.8963,1.8566,1.8101,1.7786,1.7224,1.6532,1.6167,1.5901,1.5738,1.5565,0.0,0.0,1.4765,1.4419,1.407,1.3941,1.3009,1.1834,1.1267,1.0829,1.0514,0.9958,0.9958,0.9958,0.9022,0.8958,0.9022,0.8447,0.8348,0.8154,0.7378,0.7309,0.0,0.0,0.673,0.6916,0.6868,0.6384,0.5935,0.5935,0.5401,0.494,0.5021,0.5021,0.5021,0.0,0.4781,0.4548,0.4553,0.4555,0.0,0.0,0.4318,0.3528,0.2113,0.2035,0.2035,0.2035,0.2035,0.2035,0.2035,0.2035,0.2035,0.2035,0.2035,0.2035,0.2035,0.2035,0.2035,0.2035,0.2035,0.0,0.3056,0.4399,0.4794,0.4555,0.4555,0.4555,0.4555,0.4555,0.4555,0.4555,0.0,0.0,0.0,0.0,0.0,0.0,0.0,0.0,0.0,0.0,0.0,0.0,0.0,0.0,0.0,0.0,0.0,0.0,0.0,0.0,0.0,0.0,0.0,0.0,2.2184,2.2184,2.2091,2.1793,0.0,2.1431,2.0818,2.0497,2.0156,1.9798,1.9512,1.9251,1.8951,1.8738,1.8459,1.8058,1.7468,1.7313,1.7413,0.0,0.0,0.0,0.0,0.0,1.505,1.505,1.4382,1.3364,1.2258,1.1578,1.108,1.0766,1.0703,1.0577,0.9894,0.9958,1.0021,0.9454,0.9204,0.904,0.8498,0.0,0.0,0.0,0.7495,0.741,0.7677,0.7119,0.0,0.6227,0.5857,0.5476,0.5096,0.5018,0.5018,0.5018,0.5018,0.5018,0.5023,0.5023,0.5023,0.5023,0.5023,0.4628,0.3841,0.3763,0.3763,0.3763,0.3763,0.3763,0.3763,0.3763,0.3763,0.3763,0.3763,0.3763,0.3763,0.3763,0.3763,0.3763,0.3763,0.3839,0.3837,0.4706,0.5023,0.5023,0.5023,0.5023,0.5023,0.5098,0.5098,0.5023,0.0,0.0,0.0,0.0,0.0,0.0,0.0,0.0,0.0,0.0,0.0,0.0,0.0,0.0,0.0,0.0,0.0,0.0,0.0,0.0,0.0,0.0,0.0,0.0,0.0,0.0,0.0,0.0,2.2184,0.0,0.0,0.0,0.0,0.0,1.9772,1.9681,1.9681,1.9565,1.9512,0.0,0.0,1.8774,0.0,0.0,0.0,0.0,0.0,0.0,1.6073,1.5958,1.5507,1.4756,1.3588,1.2557,1.1764,1.1703,1.1578,1.1329,1.0829,1.0892,1.1017,1.0388,1.0085,0.9901,0.9709,0.9145,0.0,0.9009,0.8415,0.8005,0.8398,0.7879,0.7244,0.0,0.6678,0.6395,0.5705,0.5631,0.5631,0.0,0.5631,0.0,0.5631,0.5631,0.0,0.5553,0.5553,0.5404,0.5026,0.5029,0.5029,0.5029,0.5029,0.5029,0.5029,0.5029,0.5029,0.5029,0.5029,0.5029,0.5029,0.5029,0.5029,0.5029,0.5029,0.5023,0.5018,0.5018,0.5015,0.5093,0.5093,0.5171,0.5401,0.5398,0.5476,0.5631,0.0,0.0,0.0,0.0,0.0,0.0,0.0,0.0,0.0,0.0,0.0,0.0,0.0,0.0,0.0,0.0,0.0,0.0,0.0,0.0,0.0,0.0,0.0,0.0,0.0,0.0,0.0,0.0,0.0,0.0,0.0,0.0,0.0,0.0,0.0,0.0,2.0549,2.0118,0.0,0.0,0.0,0.0,0.0,0.0,0.0,0.0,0.0,0.0,0.0,0.0,0.0,1.568,1.5555,1.4492,1.326,1.307,0.0,0.0,1.1524,1.1454,1.1578,1.108,1.064,1.0514,1.0766,0.0,0.9344,0.9618,0.9228,0.8805,0.8978,0.869,0.8524,0.8626,0.8266,0.7846,0.7613,0.7532,0.7532,0.7532,0.0,0.0,0.7532,0.7532,0.746,0.731,0.7234,0.6626,0.5096,0.5018,0.5018,0.5018,0.5018,0.5018,0.5018,0.5018,0.5018,0.5018,0.5018,0.5018,0.5018,0.5018,0.5018,0.5018,0.5018,0.5018,0.0,0.5018,0.509,0.5243,0.5243,0.586,0.6633,0.5867,0.6553,0.7625,0.0,0.0,0.0,0.0,0.0,0.0,0.0,0.0,0.0,0.0,0.0,0.0,0.0,0.0,0.0,0.0,0.0,0.0,0.0,0.0,0.0,0.0,0.0,0.0,0.0,0.0,0.0,0.0,0.0,0.0,0.0,0.0,0.0,0.0,0.0,0.0,0.0,0.0,0.0,0.0,0.0,0.0,0.0,0.0,0.0,0.0,0.0,0.0,0.0,0.0,0.0,0.0,1.6944,1.6016,0.0,0.0,1.4341,1.3992,1.3364,1.3252,1.313,1.2512,1.195,1.1578,1.1516,0.0,1.0332,1.0521,0.9982,0.9658,0.9814,0.9474,0.9017,0.8927,0.8749,0.0,0.8058,0.7999,0.7999,0.7999,0.7999,0.0,0.0,0.0,0.7923,0.7851,0.7851,0.7544,0.6934,0.6626,0.6472,0.6472,0.6472,0.6472,0.6472,0.6472,0.6472,0.6472,0.6472,0.6546,0.6696,0.6696,0.6777,0.6857,0.6857,0.6857,0.0,0.6857,0.6934,0.7007,0.7007,0.7242,0.7625,0.7391,0.7621,0.8003,0.0,0.0,0.0,0.0,0.0,0.0,0.0,0.0,0.0,0.0,0.0,0.0,0.0,0.0,0.0,0.0,0.0,0.0,0.0,0.0,0.0,0.0,0.0,0.0,0.0,0.0,0.0,2.2184,2.2184,0.0,0.0,0.0,0.0,0.0,0.0,0.0,0.0,0.0,0.0,0.0,0.0,0.0,0.0,0.0,0.0,0.0,0.0,0.0,0.0,0.0,0.0,0.0,0.0,0.0,0.0,0.0,1.5352,1.5001,1.4715,1.4538,1.424,1.3692,1.326,1.2818,0.0,0.0,1.1454,1.1392,1.0829,1.0327,1.0334,1.0067,0.9655,0.9227,0.932,0.9243,0.8881,0.8878,0.8917,0.8917,0.0,0.8917,0.8917,0.8841,0.8841,0.8841,0.8841,0.8841,0.8841,0.8533,0.8152,0.7693,0.7693,0.7693,0.7693,0.7693,0.7693,0.7693,0.7693,0.777,0.7918,0.7918,0.7999,0.808,0.808,0.808,0.0,0.808,0.8156,0.8156,0.8156,0.8385,0.8618,0.8537,0.8689,0.8917,0.0,0.0,0.0,0.0,0.0,0.0,0.0,0.0,0.0,0.0,0.0,0.0,0.0,0.0,0.0,0.0,0.0,0.0,0.0,0.0,0.0,0.0,0.0,0.0,0.0,0.0,2.2184,2.2184,2.2184,2.2044,2.1793,0.0,0.0,0.0,0.0,0.0,0.0,0.0,0.0,0.0,0.0,0.0,0.0,0.0,0.0,0.0,0.0,0.0,0.0,0.0,0.0,0.0,0.0,0.0,1.7995,0.0,1.5758,1.5294,1.501,1.4893,1.4775,1.4309,1.4359,1.4291,0.0,0.0,1.2451,1.2328,1.1578,1.0829,1.0401,1.0523,1.0533,0.994,1.0311,1.0575,1.0437,1.058,1.0738,0.0,0.0,1.0738,1.0738,1.0588,1.0519,1.0519,1.0519,0.0,1.0519,1.0443,0.9755,0.8156,0.808,0.808,0.808,0.808,0.808,0.808,0.808,0.808,0.808,0.808,0.808,0.808,0.808,0.808,0.0,0.808,0.8232,0.838,0.838,0.8993,0.9765,0.9008,0.9679,1.0807,0.0,0.0,0.0,0.0,0.0,0.0,0.0,0.0,0.0,0.0,0.0,0.0,0.0,0.0,0.0,0.0,0.0,0.0,0.0,0.0,0.0,0.0,0.0,0.0,0.0,0.0,2.2184,2.2184,2.2184,2.1996,2.152,2.1423,2.118,0.0,0.0,0.0,0.0,0.0,0.0,0.0,0.0,0.0,0.0,0.0,0.0,0.0,0.0,0.0,0.0,0.0,0.0,0.0,0.0,0.0,0.0,1.8267,0.0,0.0,1.6228,1.5836,1.5439,1.5254,1.502,1.4715,1.4529,1.4052,1.3631,1.3631,1.2757,1.195,1.1826,1.1479,1.1311,1.1604,1.1833,1.19,0.0,0.0,0.0,1.1855,1.2291,1.2652,0.0,0.0,1.2579,1.2579,1.2579,1.2579,1.2579,1.2579,1.1687,0.983,0.9755,0.9755,0.9755,0.9755,0.9755,0.9755,0.9755,0.983,0.9976,0.9976,1.0051,1.0126,1.0126,1.0126,1.0126,1.0126,1.0201,1.0293,1.0472,1.0699,1.0958,1.0891,1.119,1.1558,0.0,0.0,0.0,0.0,0.0,0.0,0.0,0.0,0.0,0.0,0.0,0.0,0.0,0.0,0.0,0.0,0.0,0.0,0.0,0.0,0.0,0.0,0.0,0.0,0.0,2.2184,2.2184,2.2184,2.2184,2.2044,2.1712,2.1471,2.1229,2.0947,2.0799,0.0,0.0,0.0,0.0,0.0,0.0,0.0,2.0372,0.0,0.0,0.0,0.0,0.0,0.0,0.0,0.0,0.0,0.0,0.0,0.0,0.0,0.0,0.0,0.0,1.6524,1.5904,1.573,1.5556,0.0,0.0,1.4834,1.4666,1.4249,1.3631,1.3009,1.2573,1.2135,1.2007,1.2424,1.2543,1.2604,0.0,0.0,0.0,1.2806,0.0,0.0,0.0,1.3535,1.3535,1.3535,1.3535,1.3535,1.3535,1.3535,1.2945,1.1694,1.162,1.162,1.162,1.1329,1.1329,1.162,1.1037,1.0962,1.1335,1.1037,1.0962,1.1111,1.1111,1.1111,0.0,1.1111,1.1172,1.1286,1.1461,1.1594,1.1697,1.1866,1.192,1.1902,0.0,0.0,0.0,0.0,0.0,0.0,0.0,0.0,0.0,0.0,0.0,0.0,0.0,0.0,0.0,0.0,0.0,0.0,0.0,0.0,0.0,0.0,0.0,0.0,0.0,2.2184,2.2184,2.2184,2.2184,2.2184,2.2184,2.1664,2.1375,2.1375,2.0898,2.0699,0.0,0.0,0.0,0.0,0.0,0.0,0.0,0.0,0.0,0.0,0.0,0.0,0.0,0.0,0.0,0.0,0.0,0.0,0.0,0.0,0.0,0.0,0.0,0.0,0.0,0.0,0.0,0.0,0.0,0.0,0.0,1.4488,1.4249,1.3932,1.2879,1.2712,1.2725,1.2644,1.291,0.0,0.0,1.3607,0.0,0.0,1.3745,0.0,1.368,1.368,1.3673,1.368,1.368,1.368,1.368,1.368,1.368,1.368,1.368,1.3608,1.3535,1.2739,1.2739,1.3462,1.199,1.1632,1.2372,1.1626,1.126,0.0,1.1186,1.1186,1.126,1.121,1.1368,1.1689,1.1648,1.1812,1.2111,1.2049,1.2061,1.2055,0.0,0.0,0.0,0.0,0.0,0.0,0.0,0.0,0.0,0.0,0.0,0.0,0.0,0.0,0.0,0.0,0.0,0.0,0.0,0.0,0.0,0.0,0.0,0.0,0.0,2.2184,2.2184,2.2184,2.2184,2.2091,2.1902,2.1568,2.1277,2.1082,2.0799,2.0699,0.0,0.0,0.0,0.0,0.0,0.0,0.0,0.0,0.0,0.0,1.9064,1.9356,0.0,0.0,0.0,0.0,0.0,0.0,0.0,0.0,1.9965,0.0,0.0,0.0,0.0,0.0,0.0,0.0,0.0,0.0,0.0,0.0,0.0,0.0,0.0,0.0,1.5265,1.5242,0.0,1.5578,1.4638,0.0,0.0,1.5409,1.5833,1.5974,1.5551,1.5754,1.5692,1.5284,1.5284,1.5284,1.5284,1.5284,1.5284,1.5284,1.5284,1.4697,1.3535,1.3317,1.3317,1.3535,1.3091,1.3018,1.3244,1.3018,1.2945,1.2872,1.2291,1.2365,1.2893,1.1797,1.2222,1.339,1.324,1.3608,1.4247,1.3672,1.3509,1.34,0.0,0.0,0.0,0.0,0.0,0.0,0.0,0.0,0.0,0.0,0.0,0.0,0.0,0.0,0.0,0.0,0.0,0.0,0.0,0.0,0.0,0.0,0.0,2.2184,2.2184,2.2184,2.2184,2.2184,2.2184,2.2137,2.1996,2.1712,2.152,2.1375,2.1131,2.0947,0.0,0.0,0.0,0.0,2.0699,0.0,0.0,0.0,0.0,0.0,1.9117,1.9356,0.0,1.994,2.0067,2.0195,0.0,0.0,0.0,0.0,2.0435,0.0,0.0,0.0,0.0,0.0,0.0,0.0,0.0,0.0,0.0,0.0,0.0,0.0,0.0,0.0,0.0,0.0,1.7096,0.0,0.0,0.0,1.6627,1.6941,1.7226,1.7235,0.0,1.689,1.6821,1.6551,1.656,1.656,1.656,1.6272,1.6132,1.6132,1.5938,1.5434,1.4553,1.4186,1.4186,1.4553,1.3825,1.3673,1.3962,1.3673,1.3535,1.347,1.3181,1.3319,1.3711,1.3119,1.3557,1.4414,1.4365,1.4667,1.5145,1.474,1.4636,1.4525,0.0,0.0,0.0,0.0,0.0,0.0,0.0,0.0,0.0,0.0,0.0,0.0,0.0,0.0,0.0,0.0,0.0,0.0,0.0,0.0,0.0,0.0,0.0,2.2184,2.2184,2.2184,2.2184,2.2184,2.2184,2.2184,2.2184,2.1949,2.1793,2.1746,2.152,2.1229,0.0,0.0,0.0,0.0,2.0599,0.0,0.0,0.0,0.0,0.0,0.0,0.0,0.0,2.0003,1.9862,1.9733,2.0448,0.0,0.0,0.0,0.0,0.0,0.0,0.0,1.865,1.8159,1.7995,1.7831,0.0,0.0,0.0,0.0,0.0,0.0,0.0,1.6619,0.0,0.0,0.0,0.0,1.8783,1.868,1.8412,1.8162,1.8172,0.0,1.7647,1.7638,1.7579,1.751,1.7442,1.7373,1.7373,1.6959,1.6742,1.6742,1.6272,1.6008,1.6008,1.5196,1.5125,1.5805,1.4482,1.4178,1.4752,1.4114,1.3848,1.3915,1.4126,0.0,1.4426,1.4587,1.4956,1.537,1.5262,1.5464,1.5809,1.5643,1.5643,1.5538,0.0,0.0,0.0,0.0,0.0,0.0,0.0,0.0,0.0,0.0,0.0,0.0,0.0,0.0,0.0,0.0,0.0,0.0,0.0,0.0,0.0,0.0,2.2184,2.2184,2.2184,2.2184,2.2184,2.2184,2.2184,2.2184,2.2184,2.1949,2.1664,2.1471,2.1423,2.1229,2.0997,2.0997,2.0673,2.0105,2.0105,0.0,0.0,0.0,0.0,0.0,0.0,0.0,0.0,2.0549,2.0549,2.0498,2.0662,0.0,0.0,0.0,0.0,0.0,2.1082,2.0993,2.0471,1.9121,1.8827,1.8709,1.8375,1.8007,0.0,0.0,0.0,0.0,0.0,1.8151,1.872,0.0,0.0,1.8752,0.0,0.0,1.8757,1.87,0.0,1.9121,1.8633,1.8566,1.8375,1.7969,1.7569,1.7373,1.7373,1.7304,1.7304,1.7304,1.7176,1.7176,1.7176,1.6132,1.5655,1.5805,1.5576,1.5505,1.5576,1.5505,1.5602,1.5894,0.0,1.5541,1.6396,1.5324,1.5802,1.7091,1.6589,1.6903,1.7538,1.6788,1.6535,1.6285,0.0,0.0,0.0,0.0,0.0,0.0,0.0,0.0,0.0,0.0,0.0,0.0,0.0,0.0,0.0,0.0,0.0,0.0,0.0,0.0,0.0,2.2184,2.2184,2.2184,2.2184,2.2184,2.2184,2.2184,2.2184,2.2184,2.2184,2.2091,2.1949,2.1841,2.1664,2.1471,2.118,2.0835,2.0409,1.9991,0.0,0.0,0.0,0.0,0.0,0.0,0.0,0.0,0.0,0.0,2.0848,2.1082,2.1082,0.0,0.0,0.0,0.0,0.0,2.141,2.1541,2.15,2.0855,2.0219,1.9579,1.9004,1.8536,0.0,0.0,0.0,0.0,0.0,0.0,1.9815,1.9986,0.0,2.0096,2.0096,2.0096,2.0031,0.0,0.0,1.9977,1.9573,1.9309,1.9121,1.8854,1.8529,1.8327,1.8327,1.8056,1.7862,1.7862,1.7798,1.7764,1.7764,1.7565,1.7188,1.67,1.6899,1.6866,1.6536,1.6819,1.6867,1.667,0.0,1.6741,1.7167,1.6804,1.7119,1.7712,1.7471,1.7619,1.7951,1.7538,1.7324,1.6995,0.0,0.0,0.0,0.0,0.0,0.0,0.0,0.0,0.0,0.0,0.0,0.0,0.0,0.0,0.0,0.0,0.0,0.0,0.0,0.0,2.2184,2.2184,2.2184,2.2184,2.2184,2.2184,2.2184,2.2184,2.2184,2.2184,2.2184,2.2184,2.2184,2.2091,2.1902,2.1616,2.1277,2.0673,2.0207,1.9798,0.0,0.0,0.0,0.0,0.0,0.0,0.0,0.0,0.0,0.0,0.0,0.0,0.0,0.0,0.0,2.1827,2.1908,2.2035,2.1827,2.2002,2.2267,2.2128,0.0,2.0484,1.9837,1.9267,0.0,0.0,0.0,0.0,0.0,2.0536,0.0,2.1436,2.1463,2.14,2.1526,2.14,2.1273,2.0944,2.088,2.0752,2.0366,2.0053,1.9802,1.9726,1.9462,1.9264,1.9131,1.8865,1.8714,1.8622,1.8656,1.8652,1.8608,1.902,1.8711,1.7735,1.8109,1.8046,1.7579,1.7824,1.7641,1.7293,1.7424,1.7518,1.7629,1.792,1.804,1.804,1.804,1.804,1.804,1.804,1.774,1.7304,0.0,0.0,0.0,0.0,0.0,0.0,0.0,0.0,0.0,0.0,0.0,0.0,0.0,0.0,0.0,0.0,0.0,0.0,0.0,0.0,2.2184,2.2184,2.2184,2.2184,2.2184,2.2184,2.2184,2.2184,2.2184,2.2184,2.2184,2.2184,2.2091,2.1841,2.1793,2.152,2.0983,2.0573,2.0016,1.942,1.9011,0.0,0.0,0.0,0.0,0.0,0.0,0.0,0.0,0.0,0.0,0.0,0.0,0.0,2.2175,2.2663,2.2466,2.2175,2.2663,2.2799,2.2694,2.2221,2.1718,2.1313,2.1264,2.0459,0.0,1.9888,0.0,0.0,0.0,2.1124,2.1952,2.2445,2.2113,2.2002,2.2421,0.0,2.1815,2.1815,2.1815,2.1639,2.1158,2.0764,2.0377,2.0107,2.0031,1.9781,1.9131,1.9649,1.9852,1.9696,1.9954,2.0163,2.0226,2.0267,1.9735,1.8724,1.8753,1.8699,1.8699,1.8175,1.801,1.8267,1.7761,1.7672,1.7997,1.8031,1.804,1.804,1.804,1.804,1.804,1.804,1.7578,1.6953,0.0,0.0,0.0,0.0,0.0,0.0,0.0,0.0,0.0,0.0,0.0,0.0,0.0,0.0,0.0,0.0,0.0,0.0,0.0,0.0,2.2184,2.2184,2.2184,2.2184,2.2184,2.2184,2.2184,2.2184,2.2184,2.2184,2.2184,2.2044,2.1902,2.1793,2.1471,2.1033,2.0573,2.0029,1.946,1.9011,1.8518,1.853,0.0,0.0,0.0,0.0,0.0,0.0,0.0,0.0,2.1506,2.2156,2.2235,2.2634,2.3143,2.3098,2.3187,2.3246,2.3068,2.326,2.3377,2.3098,2.2694,0.0,0.0,2.1355,2.0953,2.0782,2.0884,0.0,0.0,0.0,2.2767,2.2628,2.2482,2.2421,2.2592,2.2482,2.2359,2.2359,2.2359,2.2175,2.1702,2.1565,2.1376,2.0944,2.0996,2.0921,2.0666,2.0893,2.1019,2.094,2.107,2.1182,2.1207,2.1282,2.1056,2.0672,2.039,2.0028,1.9668,1.9725,1.9611,1.9279,1.9054,1.9058,1.9204,1.9204,1.9204,1.9204,1.9204,1.9204,1.9097,1.8469,1.7965,1.7411,0.0,0.0,0.0,0.0,0.0,0.0,0.0,0.0,0.0,0.0,0.0,0.0,0.0,0.0,0.0,0.0,0.0,0.0,2.2184,2.2184,2.2184,2.2184,2.2184,2.2184,2.2184,2.2184,2.2184,2.2184,2.2184,2.2184,2.2184,2.1996,2.1841,2.1664,2.1166,2.0673,2.022,1.9512,1.9064,1.8744,1.8313,1.8302,0.0,0.0,0.0,0.0,0.0,0.0,0.0,0.0,2.1602,2.2495,2.2526,2.3157,2.3797,2.3551,2.3696,2.3839,2.3436,2.3523,2.3696,2.3595,0.0,0.0,2.2543,2.21,2.1724,2.1513,2.2106,2.2771,2.2959,0.0,0.0,0.0,2.2919,2.2919,2.304,2.2919,2.2859,2.2859,2.2859,2.2677,2.2175,2.2175,2.2113,2.1628,2.1803,2.1803,2.1616,2.1981,2.207,2.1844,2.2184,2.219,2.1913,2.1943,2.1959,2.1797,2.1487,2.1107,2.0732,2.0804,2.0624,2.0216,1.9982,1.9904,1.9904,1.9904,1.9904,1.9904,1.9904,1.9828,1.9599,1.8942,1.8366,1.7807,0.0,0.0,0.0,0.0,0.0,0.0,0.0,0.0,0.0,0.0,0.0,0.0,0.0,0.0,0.0,0.0,0.0,0.0,2.2198,2.2184,2.2184,2.2184,2.2184,2.2184,2.2184,2.2184,2.2184,2.2184,2.2184,2.2184,2.2184,2.2184,2.1902,2.1375,2.0957,2.0497,1.994,1.9146,1.8798,1.8744,1.8313,1.8084,1.8084,0.0,0.0,0.0,0.0,0.0,0.0,0.0,2.2156,2.3083,2.3083,2.3523,2.3982,2.3982,2.3925,2.3782,2.3797,2.3696,2.3595,0.0,0.0,0.0,2.3595,2.2725,2.1941,2.2095,2.314,2.404,2.4082,2.4584,0.0,2.4229,2.37,2.3582,2.4054,2.37,2.3403,2.3403,2.3403,2.3198,2.2665,2.2592,2.247,2.2163,2.2408,2.2347,2.1678,2.2819,2.3171,2.2343,2.3213,2.3293,2.2467,2.2402,2.2176,2.1807,2.1807,2.1807,2.1807,2.1175,2.0944,2.0867,2.0216,1.9894,1.9904,1.9904,1.9904,1.9904,1.9894,1.9657,1.9231,1.9231,1.8693,1.7915,0.0,0.0,0.0,0.0,0.0,0.0,0.0,0.0,0.0,0.0,0.0,0.0,0.0,0.0,0.0,0.0,0.0,0.0,2.2198,2.2184,2.2184,2.2184,2.2184,2.2184,2.2184,2.2184,2.2184,2.2184,2.2184,2.2184,2.2184,2.1996,2.1841,2.1664,2.1166,2.0523,1.985,1.9408,1.8893,1.8313,1.8139,1.8084,1.8084,0.0,0.0,0.0,0.0,0.0,0.0,0.0,0.0,0.0,2.2889,2.348,2.4166,2.4193,2.4177,2.4135,2.4109,2.3982,0.0,2.3882,0.0,0.0,0.0,2.3421,0.0,0.0,2.3992,2.4283,2.5159,2.5135,0.0,2.4778,2.4274,2.3936,2.4054,2.3995,2.3878,2.3878,2.3878,2.3688,2.3198,2.3437,2.3497,2.3078,2.3424,2.3556,2.3365,2.4092,2.4427,2.4186,2.4578,2.4685,2.4469,2.3756,2.3316,2.3169,2.283,2.2478,2.2252,2.2025,2.209,2.2392,2.2155,2.1918,2.1624,2.1318,2.1252,2.1221,2.0898,2.0622,2.0441,1.9374,1.8848,1.8514,0.0,0.0,0.0,0.0,0.0,0.0,0.0,0.0,0.0,0.0,0.0,0.0,0.0,0.0,0.0,0.0,0.0,0.0,0.0,2.2194,2.2184,2.2184,2.2184,2.2184,2.2184,2.2184,2.2184,2.2184,2.2184,2.2184,2.2184,2.2044,2.1841,2.1616,2.1118,2.0422,1.9604,1.9316,1.8732,1.8084,1.8084,1.8084,1.8084,0.0,0.0,0.0,0.0,0.0,0.0,0.0,0.0,0.0,2.2844,2.3523,2.4234,2.4317,2.4276,2.4234,2.4208,2.4082,0.0,2.3982,2.3882,2.3782,2.3839,0.0,0.0,0.0,2.5058,2.5236,2.6044,2.592,0.0,2.537,2.4991,2.4765,2.4765,2.4607,2.4447,2.4447,2.4229,2.3995,2.37,2.3936,2.3995,2.37,2.3936,2.4112,2.4112,2.4671,2.5026,2.5,2.5344,2.5395,2.5322,2.4469,2.3963,2.3818,2.3475,2.3128,2.2852,2.2703,2.2777,2.3001,2.2852,2.2628,2.2402,2.1959,2.1807,2.1756,2.13,2.1,2.0679,1.9666,1.9152,1.8891,0.0,0.0,0.0,0.0,0.0,0.0,0.0,0.0,0.0,0.0,1.8987,0.0,0.0,0.0,0.0,0.0,0.0,0.0,0.0,0.0,2.2123,2.2137,2.2184,2.2184,2.2184,2.2137,2.2137,2.2137,2.2184,2.2184,2.2184,2.2184,2.1902,2.1375,2.0957,2.0258,1.942,1.8958,1.853,1.8084,1.8084,1.8084,1.8084,1.8084,0.0,0.0,0.0,0.0,0.0,0.0,0.0,0.0,2.2934,2.3551,2.4261,2.4302,2.425,2.4208,2.425,0.0,0.0,2.4094,2.4067,0.0,2.3982,2.4369,2.4881,2.5495,0.0,2.6634,2.6776,2.6736,2.651,2.596,2.5837,2.5783,2.5783,2.537,2.5061,2.5061,2.4607,2.4229,2.4171,2.4171,2.4171,2.4112,2.4112,2.4112,2.4112,2.4661,2.5039,2.5039,2.5572,2.577,2.5463,2.4909,2.4409,2.4036,2.4036,2.3913,2.3813,2.3372,2.315,2.3075,2.2628,2.2478,2.2402,2.1959,2.1776,2.1694,2.1238,2.0772,2.0307,1.9862,1.9505,1.8998,0.0,0.0,0.0,0.0,0.0,0.0,0.0,0.0,0.0,0.0,0.0,0.0,0.0,0.0,0.0,0.0,0.0,0.0,0.0,0.0,2.139,2.1568,2.1996,2.2184,2.2184,2.1793,2.1568,2.1568,2.1996,2.2091,2.1902,2.1902,2.1712,2.1361,2.0772,2.0207,1.9656,1.9052,1.853,1.8084,1.8084,1.8084,1.8084,1.8084,1.841,0.0,0.0,0.0,0.0,0.0,0.0,0.0,2.3038,2.3523,2.3967,2.4219,2.4317,2.4343,0.0,2.4679,0.0,0.0,2.4426,2.4124,2.4024,2.4864,2.5712,2.574,2.6296,2.6894,2.7339,2.6997,2.6669,2.651,2.6122,2.5783,2.5783,2.5687,2.5632,2.5632,2.5522,2.5258,2.4835,2.4778,2.462,2.4112,2.4112,2.4112,2.4112,2.4661,2.5162,2.561,2.6181,2.6673,2.7027,2.6483,2.6139,2.607,2.5639,2.5429,2.537,2.4492,2.4009,2.3897,2.315,2.2852,2.2852,2.2101,2.159,2.1217,2.0752,2.0296,1.9851,1.9385,1.9158,1.9065,0.0,0.0,0.0,0.0,0.0,0.0,0.0,0.0,0.0,0.0,0.0,0.0,0.0,0.0,0.0,0.0,0.0,0.0,0.0,0.0,2.0917,2.1019,2.1299,2.1444,2.1444,2.141,2.1423,2.1423,2.1664,2.1698,2.1444,2.1698,2.1506,2.0921,2.0573,2.0016,1.9303,1.8958,1.853,1.8084,1.8084,1.8084,1.8084,1.8084,1.8247,1.8518,1.8786,0.0,0.0,0.0,0.0,0.0,0.0,0.0,2.3882,2.4219,2.4302,0.0,0.0,0.0,0.0,2.4902,0.0,2.4679,2.4261,2.5521,2.6717,2.6378,2.6822,2.7384,2.7615,2.7408,2.7152,2.7152,2.6878,2.6654,2.6654,2.639,2.6229,2.6229,2.596,2.5687,2.5425,2.537,2.516,2.4563,2.4505,2.439,2.4112,2.44,2.4818,2.5393,2.5707,2.6255,2.7105,2.6575,2.6435,2.6714,2.6427,2.6289,2.6289,2.5487,2.5075,2.4957,2.3852,2.3412,2.3338,2.2241,2.1538,2.1073,2.0607,2.0151,1.9775,1.9241,1.9075,1.9075,0.0,0.0,0.0,0.0,0.0,0.0,0.0,0.0,0.0,0.0,0.0,0.0,0.0,0.0,0.0,0.0,0.0,0.0,0.0,0.0,0.0,2.0322,2.0414,2.0466,2.0466,2.0917,2.1118,2.1118,2.1118,2.1006,2.0746,2.1251,2.1055,2.0271,2.0169,1.9604,1.8798,1.8691,1.841,1.7963,1.7963,1.7963,1.7963,1.7963,1.803,1.8139,1.8637,1.9384,2.0283,2.0646,0.0,0.0,0.0,0.0,2.3824,2.4135,2.4261,0.0,0.0,0.0,2.502,2.5098,2.5313,0.0,2.4639,2.6172,2.7582,2.7148,2.7551,2.7974,2.7925,2.7775,2.7625,2.7625,2.7625,2.7625,2.7625,2.7152,2.6841,2.6841,2.639,2.6054,2.596,2.596,2.5742,2.516,2.516,2.4892,2.4287,2.4287,2.4491,2.5009,2.5022,2.5471,2.6517,2.6051,2.6019,2.6569,2.6671,2.671,2.671,2.6308,2.607,2.5861,2.4469,2.3891,2.3818,2.2531,2.1636,2.1032,2.0648,2.017,1.9592,1.921,1.9075,1.9075,0.0,0.0,0.0,0.0,0.0,0.0,0.0,0.0,0.0,0.0,0.0,0.0,0.0,0.0,0.0,0.0,0.0,0.0,0.0,0.0,0.0,1.9166,1.9651,1.9913,1.9913,1.9964,2.0003,2.0003,2.0003,1.9862,0.0,0.0,2.0055,1.9708,1.9198,1.8946,1.8744,1.8367,1.7854,1.7313,1.7313,1.7313,1.7313,1.7313,1.7667,1.8139,1.8518,1.9319,2.0232,2.056,2.1561,0.0,0.0,0.0,2.3797,2.3839,0.0,0.0,0.0,0.0,2.5503,0.0,2.5726,2.5465,0.0,0.0,2.7664,0.0,2.8215,2.8669,2.8431,2.8057,2.774,2.7625,2.7625,2.7625,2.7625,2.7524,2.7458,2.7458,2.7408,2.7137,2.6616,2.6563,2.6336,2.5742,2.5687,2.5481,2.4892,2.4892,2.4945,2.5009,2.5022,2.5275,2.5929,2.5866,2.5842,2.5933,2.6427,2.6726,2.6739,2.7102,2.6769,2.5849,2.4767,2.4337,2.4264,2.3276,2.2101,2.1002,2.0938,2.018,1.9225,1.9096,1.9075,1.9075,0.0,0.0,0.0,0.0,0.0,0.0,0.0,0.0,0.0,0.0,0.0,0.0,0.0,0.0,0.0,0.0,0.0,0.0,0.0,0.0,0.0,0.0,1.7934,1.8043,1.802,1.8298,1.873,1.9294,1.9294,0.0,0.0,1.9396,1.9291,1.9251,1.8946,1.8637,1.8356,1.7843,1.7611,1.7667,1.7313,1.7324,1.7512,1.7678,1.7799,1.792,1.8193,1.9109,2.0232,2.0346,2.1272,2.2434,2.2663,0.0,0.0,0.0,0.0,0.0,2.5059,2.5615,2.6033,0.0,2.6139,2.6168,2.6119,0.0,2.8495,2.8672,2.931,2.9556,2.8842,2.8701,2.8511,2.794,2.7959,2.7993,2.7725,2.7625,2.7625,2.7625,2.7625,2.7524,2.7255,2.7203,2.693,2.6336,2.6283,2.6068,2.5481,2.5425,2.5326,2.4994,2.4994,2.511,2.5341,2.5341,2.5511,2.5824,2.6073,2.636,2.6687,2.6935,2.6945,2.6756,2.5767,2.5334,2.5264,2.4337,2.2954,2.1516,2.1516,2.054,1.9075,1.9075,1.9075,1.9075,0.0,0.0,0.0,0.0,0.0,0.0,0.0,0.0,0.0,0.0,0.0,0.0,0.0,0.0,0.0,0.0,0.0,0.0,0.0,0.0,0.0,0.0,0.0,1.6289,1.6236,1.7031,1.7798,1.8565,0.0,0.0,1.9604,1.8881,1.8679,0.0,1.856,1.8236,1.7843,1.7379,1.7435,1.7843,1.7324,1.7279,1.7579,1.7634,1.7799,1.7986,1.803,1.8951,2.0181,2.0232,2.1077,2.217,2.248,2.2994,0.0,0.0,0.0,0.0,0.0,0.0,2.6262,2.6297,2.6505,2.6741,0.0,0.0,2.9104,0.0,3.0199,3.0393,2.9483,2.9377,2.9225,2.8494,2.8574,2.8559,2.8107,2.791,2.776,2.7675,2.7625,2.7625,2.7625,2.7625,2.7408,2.6945,2.6945,2.6669,2.6068,2.6014,2.5797,2.5216,2.5216,2.5208,2.5189,2.5097,2.5143,2.5393,2.5537,2.5903,2.6465,2.6608,2.6987,2.7456,2.662,2.6264,2.6195,2.5322,2.3921,2.2332,2.2332,2.1196,1.9584,1.9584,1.9518,1.933,0.0,0.0,0.0,0.0,0.0,0.0,0.0,0.0,0.0,0.0,0.0,0.0,0.0,0.0,0.0,0.0,0.0,0.0,0.0,0.0,0.0,0.0,0.0,0.0,1.5186,1.6712,1.7526,1.7549,0.0,0.0,1.904,1.829,1.8182,1.8614,1.7831,1.7379,1.7257,0.0,0.0,0.0,1.6933,1.6989,1.7146,1.6585,1.7379,1.8691,1.8127,1.8845,0.0,0.0,0.0,0.0,0.0,0.0,0.0,0.0,0.0,0.0,0.0,2.5888,0.0,2.6708,2.6792,0.0,0.0,0.0,2.9194,2.9918,3.0644,3.1015,3.0518,2.9978,2.954,2.9361,2.9316,2.918,2.8732,2.8559,2.8286,2.7825,2.7675,2.7625,2.7625,2.7625,2.7575,2.7575,2.756,2.7306,2.6683,2.6669,2.6404,2.5797,2.5742,2.5756,2.5784,2.5257,2.4731,2.4217,2.4753,2.5315,2.589,2.6425,2.6987,2.7469,2.6918,2.6645,2.6645,2.607,2.4869,2.3435,2.3435,2.2402,2.0996,2.0996,2.0613,2.0042,0.0,0.0,0.0,0.0,0.0,0.0,0.0,0.0,0.0,0.0,0.0,0.0,0.0,1.5434,1.5269,1.4622,0.0,0.0,0.0,0.0,0.0,0.0,0.0,0.0,0.0,1.4883,1.5659,0.0,0.0,1.7257,1.7875,1.7984,1.7886,1.7567,1.7897,1.7963,1.7733,1.7379,0.0,0.0,0.0,0.0,1.7245,1.6955,1.7457,0.0,0.0,0.0,0.0,0.0,0.0,0.0,0.0,0.0,0.0,0.0,0.0,0.0,0.0,0.0,0.0,2.6606,2.6775,2.7165,2.8352,2.8808,2.933,3.0565,3.1021,3.1151,3.0975,3.0781,3.0435,2.9777,2.9821,2.9805,2.9361,2.9073,2.8888,2.8701,2.8304,2.8076,2.8076,2.776,2.7625,2.7625,2.7625,2.7524,2.7306,2.7255,2.6982,2.6404,2.6404,2.6014,2.5258,2.5118,2.4677,2.4112,2.4321,2.4922,2.5837,2.6033,2.6648,2.7456,2.7323,2.7188,2.7188,2.6985,2.5749,2.4006,2.4006,2.2846,2.1123,2.1123,2.0933,2.0741,0.0,0.0,0.0,0.0,0.0,0.0,0.0,0.0,0.0,0.0,0.0,0.0,0.0,0.0,1.3701,1.3292,1.2596,0.0,0.0,0.0,0.0,0.0,0.0,0.0,0.0,1.3733,1.4526,0.0,0.0,0.0,0.0,1.7424,1.7324,1.7011,1.7634,1.7909,0.0,0.0,0.0,1.803,0.0,0.0,1.7545,0.0,0.0,0.0,0.0,0.0,0.0,0.0,0.0,0.0,0.0,0.0,0.0,0.0,0.0,0.0,2.54,0.0,0.0,0.0,0.0,2.7284,2.8779,0.0,2.9397,3.0886,3.119,3.119,3.119,3.119,3.0975,3.0368,3.0543,3.0567,2.9978,2.9701,2.9508,2.9284,2.8748,2.8352,2.8288,2.7894,2.7625,2.7625,2.7625,2.7625,2.7625,2.7625,2.7408,2.6982,2.6982,2.6563,2.5605,2.555,2.516,2.439,2.439,2.4879,2.5824,2.5824,2.6452,2.7523,2.7523,2.7523,2.751,2.7327,2.6258,2.472,2.4467,2.334,2.1877,2.1815,2.1628,2.1439,0.0,0.0,0.0,0.0,0.0,0.0,0.0,0.0,0.0,1.451,0.0,0.0,0.0,0.0,0.0,1.1234,1.115,1.115,1.12,0.0,0.0,0.0,0.0,0.0,0.0,1.3342,1.4347,1.4893,1.5223,1.5928,1.7079,0.0,1.6539,1.6955,1.7011,1.7168,1.7324,0.0,1.7,1.7975,0.0,1.6989,1.7975,0.0,0.0,0.0,1.8441,1.8869,0.0,2.022,0.0,0.0,0.0,0.0,0.0,0.0,0.0,0.0,0.0,0.0,0.0,0.0,0.0,0.0,2.8779,0.0,2.9468,3.0886,3.119,3.119,3.119,3.119,3.123,3.119,3.1449,3.1414,3.0642,3.0435,3.0123,2.9496,2.8919,2.8463,2.8352,2.7879,2.7625,2.7625,2.7625,2.7625,2.7625,2.7625,2.7625,2.7625,2.7625,2.7306,2.6736,2.6683,2.6136,2.5005,2.5005,2.5279,2.5824,2.5824,2.6452,2.7523,2.7523,2.7523,2.7458,2.6896,2.6283,2.5521,2.4816,2.4055,2.3403,2.3198,2.2689,2.2113,0.0,0.0,0.0,0.0,0.0,0.0,0.0,0.0,0.0,0.0,0.0,0.0,1.2109,1.1331,1.0756,1.0608,1.0285,1.0233,1.06,1.06,0.0,0.0,0.0,0.0,0.0,1.2139,1.269,1.3141,1.348,1.3983,1.4551,1.5313,1.5718,0.0,1.6652,1.7067,1.7112,1.6797,0.0,1.7022,1.6842,1.6821,0.0,0.0,0.0,0.0,0.0,1.9279,2.0448,0.0,2.0536,2.061,0.0,0.0,0.0,0.0,0.0,0.0,2.4934,0.0,0.0,0.0,0.0,0.0,0.0,0.0,3.0099,3.1043,3.119,3.119,3.119,3.1389,3.1487,3.123,3.1291,3.1252,3.1055,3.0878,3.0716,3.0493,2.9629,2.898,2.8889,2.8091,2.7625,0.0,2.7625,2.7625,2.7625,2.7625,2.7625,2.7625,2.7625,2.7306,2.6736,2.6683,2.6351,2.5577,2.516,2.5513,2.6417,2.5998,2.6452,2.7523,2.7523,2.7288,2.6896,2.6739,2.6283,2.5521,2.4816,2.4055,2.3403,2.3198,2.3005,2.2811,0.0,0.0,0.0,0.0,0.0,0.0,0.0,0.0,0.0,0.0,0.0,0.0,1.1015,1.041,1.0087,1.0087,0.9769,0.9718,1.0035,1.0087,1.019,0.0,0.0,0.0,0.0,1.1253,1.1789,1.2389,1.2529,1.2898,1.3511,1.4264,1.4619,1.461,0.0,0.0,0.0,0.0,0.0,0.0,1.6616,0.0,0.0,1.6899,1.7523,0.0,0.0,0.0,2.0195,2.0599,2.0699,0.0,0.0,0.0,0.0,0.0,0.0,0.0,0.0,0.0,0.0,0.0,0.0,0.0,2.8575,2.9479,3.0277,3.0807,3.1055,3.119,3.119,3.1351,3.1428,3.123,3.119,3.119,3.119,3.1151,3.1032,3.0912,2.9935,2.9225,2.912,2.8189,2.7625,2.7625,2.7625,2.7625,2.7625,2.7625,2.7625,2.7625,2.7625,2.7408,2.71,2.71,2.6774,2.6176,2.5865,2.6049,2.6685,2.6647,2.7085,2.7897,2.7666,2.7415,2.707,2.6277,2.5709,2.5283,2.4455,2.385,2.345,2.3198,2.3078,2.3078,0.0,0.0,0.0,0.0,0.0,0.0,0.0,0.0,0.0,0.0,1.1273,1.0531,0.965,0.951,0.9458,0.9458,0.9458,0.9458,0.9458,0.9458,0.0,0.0,0.0,0.0,0.0,0.0,1.1245,1.2223,1.1978,1.2333,1.3268,1.3381,1.3381,1.3381,0.0,0.0,0.0,0.0,0.0,1.64,1.6228,1.6549,0.0,0.0,1.7579,1.8193,1.8721,1.9093,1.9525,2.0246,2.0699,0.0,0.0,0.0,0.0,0.0,2.3392,0.0,0.0,0.0,0.0,0.0,2.6384,0.0,2.7948,2.9148,3.0224,3.0468,3.0861,3.123,3.123,3.123,3.123,3.119,3.119,3.119,3.119,3.119,3.1112,3.0855,2.9995,2.9287,2.9074,2.814,2.7625,2.7625,2.7625,2.7625,2.7625,2.7625,2.7625,2.7625,2.7625,2.7625,2.7625,2.7625,2.7306,2.6788,2.6721,2.6734,2.6835,2.7326,2.7917,2.8372,2.7913,2.7639,2.7427,2.5855,2.5143,2.4909,2.3966,2.3628,2.3569,2.3198,2.3078,2.3078,0.0,0.0,0.0,0.0,0.0,0.0,0.0,0.0,0.0,0.0,0.985,0.9334,0.9113,0.8844,0.8633,0.8633,0.8633,0.8633,0.8633,0.8633,0.0,0.0,0.0,0.0,0.0,0.0,0.0,1.0922,1.0875,1.1278,1.1988,1.2458,1.2696,1.2696,0.0,0.0,0.0,0.0,0.0,1.5323,1.6275,0.0,1.6877,1.7134,1.7623,1.8236,1.817,1.8667,1.9368,1.921,1.9772,2.0472,0.0,0.0,0.0,2.2328,0.0,0.0,0.0,0.0,0.0,0.0,2.6333,0.0,2.7809,2.922,3.0516,3.0551,3.0965,3.1274,3.1274,3.1274,3.1274,3.123,3.119,3.119,3.119,3.119,3.1015,3.0477,2.9821,2.918,2.8654,2.7993,2.7625,2.7625,2.7625,2.7625,2.7625,2.7625,2.7625,2.7625,2.7625,2.7625,2.7625,2.7625,2.7524,2.7408,2.693,2.6949,2.7391,2.706,2.7227,2.7771,2.7652,2.7315,2.6872,2.6521,2.5801,2.4909,2.3966,2.3628,2.3569,2.3198,2.3078,2.3078,0.0,0.0,0.0,0.0,0.0,0.0,0.0,0.0,0.0,0.9804,0.9139,0.8692,0.8692,0.8256,0.809,0.8368,0.815,0.8096,0.8368,0.8421,0.0,0.0,0.0,0.0,0.0,0.0,0.0,1.0315,1.0315,1.0754,1.1622,1.1919,1.2158,1.2405,1.2536,0.0,0.0,0.0,1.4392,1.5089,1.6332,0.0,1.7045,1.7357,1.7744,1.8182,1.8116,1.8655,1.942,1.9396,1.9604,0.0,2.0271,2.0623,2.1068,0.0,2.2189,2.2452,0.0,0.0,0.0,2.5149,0.0,0.0,0.0,2.9212,3.0502,3.0302,3.0828,3.1295,3.1406,3.1406,3.1368,3.1291,3.1252,3.1252,3.119,3.1015,3.0699,3.0335,2.9601,2.8982,2.8559,2.8008,2.7675,2.7625,2.7625,2.7625,2.7625,2.7625,2.7625,2.7625,2.7625,2.7625,2.7625,2.7625,2.7625,2.7625,2.7306,2.7314,2.7586,2.7642,2.7799,2.8062,2.7768,2.747,2.7142,2.6483,2.591,2.5341,2.4411,2.3852,2.3569,2.3198,2.3078,2.3078,0.0,0.0,0.0,0.0,0.0,0.0,0.0,0.0,0.0,0.9432,0.873,0.8262,0.8262,0.7771,0.7605,0.8103,0.7717,0.7605,0.7937,0.0,0.0,0.0,0.0,0.8262,0.0,0.0,0.0,0.0,0.9973,1.0513,1.1435,1.156,1.1809,1.2182,1.1872,0.0,0.0,0.0,0.0,1.5323,0.0,1.6955,1.7324,1.7689,1.7975,1.8247,1.8344,1.8774,1.9316,1.9643,1.9604,1.9565,2.0435,2.0523,0.0,0.0,0.0,0.0,0.0,0.0,0.0,0.0,0.0,2.7133,0.0,0.0,0.0,2.9832,0.0,0.0,0.0,0.0,0.0,3.1235,0.0,0.0,0.0,3.0699,0.0,3.0208,2.9438,2.8764,2.8479,2.8155,2.7875,2.7625,2.771,2.771,2.7625,2.7625,2.7625,2.7625,2.7625,2.7625,2.7625,2.7625,2.7625,2.7625,2.7625,2.7625,2.764,2.8143,2.8412,2.8397,2.788,2.7652,2.7623,2.659,2.6054,2.5892,2.5007,2.4408,2.3897,2.3424,2.3305,2.3245,1.2075,1.1659,0.0,0.0,0.0,0.0,0.0,0.0,0.0,0.9109,0.8334,0.7777,0.7777,0.0,0.0,0.0,0.0,0.0,0.648,0.0,0.0,0.0,0.0,0.0,0.7777,0.0,0.0,0.0,0.9927,1.0472,1.0933,1.1373,1.1622,0.0,1.2058,0.0,0.0,0.0,1.4718,0.0,1.6503,1.7088,0.0,1.8061,1.8452,1.8744,1.8744,1.8798,1.8851,0.0,1.9198,1.9565,0.0,1.9875,2.022,2.0194,0.0,0.0,0.0,0.0,0.0,0.0,2.5849,0.0,2.7318,0.0,2.9257,2.9287,0.0,0.0,0.0,0.0,0.0,0.0,0.0,0.0,3.119,3.0452,2.9881,2.9837,2.9303,2.8716,2.8268,2.8431,2.8319,2.766,2.8091,2.814,2.7625,2.7625,2.7625,2.7625,2.7625,2.7625,2.7625,2.7625,2.7625,2.7625,2.7625,2.7625,2.7625,2.77,2.773,2.7694,2.7629,2.7629,2.7629,2.7437,2.7086,2.651,2.5618,2.5231,2.5119,2.4292,2.4015,2.3897,1.139,1.1225,0.0,0.0,0.0,0.0,0.0,0.0,0.0,0.8309,0.7723,0.0,0.0,0.0,0.0,0.0,0.0,0.61,0.0,0.0,0.0,0.0,0.0,0.0,0.0,0.0,0.0,0.0,0.9132,0.9952,1.0807,1.1052,1.1435,0.0,1.2182,0.0,1.3347,0.0,1.4836,0.0,0.0,0.0,0.0,1.8344,1.8679,1.8798,1.8798,1.8798,1.8851,0.0,1.9158,0.0,0.0,0.0,0.0,2.061,0.0,0.0,0.0,0.0,0.0,0.0,0.0,0.0,2.7397,0.0,2.881,0.0,0.0,0.0,0.0,0.0,0.0,0.0,3.0377,0.0,0.0,0.0,2.9881,3.0182,0.0,0.0,2.8103,2.8479,2.8415,2.766,2.814,2.8238,2.7625,2.7625,2.7625,2.7625,2.7625,2.7625,2.7625,2.7625,2.7625,2.7625,2.7625,2.7625,2.7625,2.7625,2.7625,2.7625,2.7625,2.7625,2.7625,2.7625,2.7458,2.7203,2.6721,2.6068,2.5342,2.4794,2.4624,2.4509,1.0821,0.0,0.0,0.0,0.0,0.0,0.0,0.0,0.0,0.0,0.0,0.0,0.7085,0.6317,0.0,0.0,0.6475,0.6095,0.0,0.0,0.615,0.0,0.0,0.0,0.0,0.0,0.0,0.0,0.0,0.0,1.0604,1.0737,1.124,1.212,0.0,1.2948,1.4067,0.0,1.5245,1.6564,1.6955,1.7623,1.8352,1.8869,1.9105,1.9146,1.921,1.9198,1.9146,1.946,1.9408,0.0,2.0233,0.0,1.9772,0.0,0.0,0.0,2.2867,0.0,0.0,0.0,0.0,0.0,0.0,0.0,0.0,0.0,0.0,0.0,0.0,0.0,0.0,0.0,0.0,2.9848,0.0,2.9705,0.0,0.0,0.0,0.0,0.0,2.8842,2.881,2.7894,2.8415,2.8415,2.761,2.7625,2.7625,2.7625,2.7625,2.7625,2.7625,2.7625,2.7625,2.7625,2.7625,2.7625,2.7625,2.7625,2.7625,2.7625,2.7625,2.7625,2.7625,2.7625,2.7625,2.7575,2.7437,2.6788,2.5837,2.5453,2.53,2.5133,1.0374,1.053,0.0,0.0,0.0,0.0,0.0,0.0,0.0,0.0,0.0,0.0,0.0,0.0,0.0,0.0,0.0,0.7396,0.6794,0.0,0.6799,0.0,0.0,0.6142,0.0,0.0,0.0,0.0,0.0,0.0,0.0,1.0541,1.1122,1.1622,1.212,1.307,1.4405,1.4876,1.6156,1.7843,1.7854,1.8685,1.9888,0.0,1.985,1.9991,2.0258,0.0,0.0,1.9991,2.0055,0.0,0.0,0.0,0.0,0.0,0.0,0.0,0.0,0.0,0.0,2.53,0.0,0.0,0.0,0.0,2.794,0.0,0.0,0.0,0.0,0.0,0.0,0.0,0.0,0.0,0.0,0.0,0.0,0.0,0.0,0.0,0.0,2.9821,2.9892,2.8559,2.9042,2.8857,2.766,2.7625,2.7625,2.7625,2.7625,2.7625,2.7625,2.7625,2.7625,2.7625,2.7625,2.7625,2.7625,2.7625,2.7625,2.7625,2.7625,2.7625,2.7625,2.7625,2.7625,2.7575,2.7437,2.7284,2.7063,2.6336,2.5974,2.577,0.0,0.0,0.0,0.0,0.0,0.0,0.0,0.9204,0.0,0.0,0.0,0.0,0.0,0.761,0.7557,0.0,0.0,0.7498,0.7278,0.6902,0.0,0.0,0.0,0.5768,0.0,0.0,0.0,0.0,0.0,0.0,0.0,0.0,1.1122,1.1622,0.0,1.3009,0.0,0.0,0.0,0.0,0.0,1.9081,1.9991,0.0,2.0194,2.0547,2.066,2.061,0.0,2.0308,2.0271,2.0334,2.0435,2.0271,2.0105,2.0422,2.0736,2.1246,0.0,0.0,2.3492,2.5126,0.0,0.0,0.0,0.0,0.0,0.0,0.0,0.0,0.0,0.0,0.0,0.0,0.0,0.0,0.0,0.0,0.0,0.0,0.0,0.0,0.0,0.0,2.9196,2.8559,2.8701,2.8448,2.761,2.7625,2.7625,2.7625,2.7625,2.7625,2.7625,2.7625,2.7625,2.7625,2.7625,2.7625,2.7625,2.7625,2.7625,2.7625,2.7625,2.7625,2.7625,2.7625,2.7625,2.7575,2.7524,2.7386,2.7181,2.6817,2.6606,2.634,1.0146,0.0,0.0,0.0,0.0,0.0,0.0,0.0,0.0,0.0,0.8415,0.0,0.8368,0.0,0.8037,0.0,0.8256,0.7978,0.7818,0.7385,0.0,0.6519,0.6351,0.0,0.0,0.0,0.0,0.0,0.0,0.9582,0.0,0.0,0.0,0.0,0.0,1.3122,1.4346,1.5216,1.6497,0.0,0.0,1.9604,0.0,0.0,2.0709,2.1006,0.0,2.1104,2.1006,2.0809,2.0772,2.0772,2.0799,2.0586,2.0409,2.0785,2.1043,2.1451,2.2721,2.3103,0.0,2.4957,2.5204,0.0,2.6144,0.0,2.6549,0.0,0.0,0.0,0.0,0.0,0.0,0.0,0.0,0.0,0.0,2.8411,0.0,0.0,0.0,0.0,0.0,2.9028,2.8982,2.8511,2.8511,2.8238,2.7625,2.7625,2.7625,2.7625,2.7625,2.7625,2.7625,2.7625,2.7625,2.7625,2.7625,2.7625,2.7625,2.7625,2.7625,2.7625,2.7625,2.7625,2.7625,2.7625,2.7625,2.7625,2.7625,2.7423,2.7181,2.7093,2.6937,2.6606,0.0,0.0,0.0,0.0,1.1276,0.0,0.0,0.0,0.9458,0.0,0.8474,0.8427,0.8474,0.8474,0.8633,0.9008,0.9008,0.885,0.8474,0.8421,0.0,0.0,0.7438,0.7438,0.7294,0.0,0.0,0.0,0.0,0.0,0.0,0.0,0.0,0.0,1.2466,0.0,1.4523,1.5918,1.7124,1.8309,1.9371,2.0156,2.0709,2.1215,2.1423,2.1506,2.1746,2.1664,2.1471,2.1423,2.1423,2.1375,2.1082,2.1033,2.0997,2.0788,2.1131,2.1681,2.2605,2.3244,2.3886,2.4799,2.5005,0.0,0.0,0.0,2.639,0.0,0.0,0.0,0.0,0.0,0.0,0.0,0.0,0.0,0.0,0.0,0.0,0.0,0.0,0.0,0.0,2.9287,2.9271,2.8559,2.8511,2.8238,0.0,2.7625,2.7625,2.7625,2.7625,2.7625,2.7625,2.7625,2.7625,2.7625,2.7625,2.7625,2.7625,2.7625,2.7625,2.7625,2.7625,2.7625,2.7625,2.7625,2.7625,2.7625,2.7625,2.7423,2.7181,2.7181,2.6974,2.6606,0.9851,1.0643,1.1226,0.0,1.0913,1.0608,0.0,0.0,0.0,0.0,0.9166,0.8949,0.9249,0.9302,0.9354,0.9465,0.9465,0.0,0.0,0.0,0.0,0.8996,0.8315,0.8103,0.8581,0.8839,0.9006,0.9139,0.0,0.0,1.0807,0.0,0.0,0.0,0.0,0.0,1.5361,1.6156,1.7611,1.9371,1.9695,2.0359,2.1215,0.0,2.2016,2.2618,2.2217,2.2203,2.2296,2.1841,2.1712,2.1664,2.1375,2.1277,2.1323,2.1502,2.169,2.2034,2.3177,2.3577,2.3941,2.5107,2.5188,2.5216,0.0,0.0,0.0,0.0,0.0,0.0,0.0,0.0,0.0,0.0,0.0,0.0,0.0,0.0,0.0,2.8235,0.0,0.0,2.8997,2.8966,2.8873,2.8638,2.8448,2.8125,2.7625,0.0,2.7978,2.761,2.7625,2.7625,2.7625,2.7625,2.7625,2.7625,2.7625,2.7625,2.7625,2.7625,2.7625,2.7625,2.7625,2.7625,2.7625,2.7625,2.7625,2.7625,2.7625,2.7423,2.7181,2.6989,2.6553,2.6002,1.0377,0.0,0.0,1.1326,0.0,0.0,1.0794,1.0138,0.0,0.9836,0.9577,0.0,0.9562,0.9614,0.9614,0.9614,0.9614,0.0,0.9361,0.0,0.0,0.9494,0.9106,0.921,1.0094,1.0374,0.0,1.0471,0.0,0.0,1.1538,0.0,0.0,0.0,0.0,1.4768,1.5756,1.7081,1.8519,1.9901,2.0359,2.0979,0.0,2.2156,2.2754,2.3348,2.2934,2.2934,2.2965,2.2217,2.2077,2.2109,2.1712,2.1745,2.1969,2.2072,2.2479,2.3017,2.3702,2.4092,2.4431,2.5119,2.5005,2.4991,2.577,2.5729,2.566,0.0,2.5879,2.5715,0.0,0.0,0.0,0.0,0.0,0.0,0.0,0.0,0.0,0.0,2.8365,0.0,2.909,2.8606,2.8367,2.8606,2.8448,2.8271,0.0,0.0,2.8336,2.7625,2.8042,2.814,2.7894,2.814,2.814,2.7894,2.7894,2.7795,2.7625,2.7625,2.7625,2.7625,2.7625,2.7625,2.7625,2.7625,2.7625,2.7575,2.7473,2.7321,2.7181,2.6884,2.6621,2.6165,0.0,0.0,0.0,0.0,0.0,0.0,0.0,1.0761,0.0,0.9948,0.0,0.9963,0.9746,0.9738,0.9738,0.9738,0.0,0.9693,0.939,0.964,0.9778,0.9764,1.0044,1.069,1.1555,1.1936,1.2151,0.0,1.3017,1.3199,1.2634,0.0,0.0,0.0,0.0,0.0,0.0,1.8324,1.9542,2.0194,2.1068,2.1752,2.2289,2.283,2.3392,2.3824,2.3653,2.3551,2.3421,2.2572,2.2434,2.2618,2.2113,2.2325,2.2732,2.2674,2.34,2.415,2.4232,2.4653,2.5061,2.5118,2.4878,2.4821,2.5481,2.5355,2.5286,2.5839,2.5495,2.5328,2.6297,0.0,0.0,0.0,0.0,0.0,0.0,0.0,0.0,0.0,0.0,0.0,0.0,2.8383,2.8189,2.8591,2.8685,0.0,0.0,0.0,2.8841,2.776,2.8559,2.8826,2.8432,2.8779,2.8795,2.8384,2.8384,2.8158,2.771,2.771,2.766,2.7625,2.7625,2.7625,2.7625,2.7625,2.7625,2.7575,2.7321,2.7233,2.7181,2.6937,2.6779,2.6539,0.0,0.0,0.0,0.0,0.0,1.3004,1.241,1.1974,1.1644,1.1454,1.0852,1.0475,1.0419,1.0419,1.0419,1.0419,1.0923,0.0,0.0,0.0,0.0,1.22,1.2101,1.2185,1.2546,1.2732,1.2826,1.2826,1.326,1.3442,1.3321,0.0,0.0,0.0,0.0,0.0,1.8201,1.9347,0.0,2.0696,2.1313,2.1935,2.254,2.2766,2.3334,2.3979,2.358,2.345,2.3363,2.2785,2.2663,2.2704,2.2856,2.2951,2.321,2.3934,2.4269,2.4544,2.5122,2.5356,2.5481,2.5688,2.5522,2.5467,2.6028,2.5934,2.5839,2.6136,2.5742,2.53,2.5328,0.0,0.0,0.0,0.0,0.0,0.0,0.0,0.0,0.0,0.0,2.8024,0.0,0.0,0.0,2.9406,2.9673,2.9406,0.0,0.0,2.9361,0.0,2.84,2.8607,0.0,0.0,2.8638,2.8982,2.8982,2.8701,2.8158,2.8158,2.7978,2.7625,2.7625,2.7625,2.7625,2.7625,2.7625,2.7575,2.7437,2.735,2.735,2.7041,2.6659,2.6136,0.0,0.0,0.0,0.0,0.0,0.0,0.0,1.3679,1.3208,1.2423,1.1768,1.1374,1.1592,1.1326,1.1269,1.1535,1.188,1.2047,1.2047,1.2317,1.2599,1.2862,1.2763,1.2932,1.3537,1.3614,1.3606,1.3606,1.4282,1.4469,1.4172,0.0,0.0,0.0,0.0,1.8382,0.0,0.0,0.0,2.1091,2.1827,2.2618,2.3392,2.3451,2.3909,2.4502,2.4436,2.4487,2.445,2.3481,2.3198,2.3224,2.3398,2.3695,2.4193,2.464,2.4992,2.5298,2.5618,2.5702,2.5743,2.5839,2.5702,2.5592,2.5988,2.5893,2.5743,2.5839,2.5495,2.5147,2.509,2.5823,0.0,0.0,0.0,0.0,0.0,0.0,2.7855,0.0,0.0,0.0,0.0,0.0,0.0,0.0,0.0,2.9717,2.8904,0.0,2.9951,0.0,0.0,0.0,2.9629,0.0,2.9196,2.9483,2.9483,2.9196,2.8732,2.8732,2.8448,2.7978,2.7978,2.7845,2.7625,2.7625,2.7625,2.7575,2.7437,2.7401,2.735,2.7107,2.6433,2.5563,0.0,1.4528,0.0,0.0,1.4999,1.5371,1.5406,1.529,1.4686,1.3486,1.2789,1.2507,1.2716,1.2329,1.2224,1.2668,1.2837,1.2949,1.2949,1.3061,1.3251,1.3504,1.3348,1.3673,1.4392,1.4392,1.4392,1.4392,1.5313,1.5488,1.5108,0.0,0.0,0.0,0.0,0.0,0.0,0.0,2.1286,2.1431,2.2388,2.3246,2.3979,2.412,2.4477,2.4934,2.5321,2.5575,2.5581,2.4698,2.4268,2.4189,2.4367,2.4718,2.5099,2.5331,2.5661,2.5893,2.5893,2.5893,2.5893,2.5893,2.5743,2.5647,2.5839,2.5743,2.5592,2.5647,2.5397,2.5258,2.5287,2.604,0.0,0.0,0.0,0.0,0.0,0.0,0.0,0.0,0.0,0.0,2.8463,0.0,0.0,0.0,0.0,2.9892,2.9223,3.0166,3.0267,0.0,0.0,3.0054,3.0199,0.0,2.9881,2.9984,2.9984,2.9705,2.9303,2.9257,2.8966,2.8448,2.8352,2.8027,2.7625,2.7625,2.7625,2.7575,2.7488,2.7437,2.7386,2.6989,2.615,2.5175,0.0,0.0,0.0,0.0,0.0,1.6858,1.6444,1.6167,1.5728,1.5061,1.4282,1.374,1.3604,1.3544,1.3502,1.3399,1.3936,1.4291,1.4291,1.4819,1.5129,1.5168,1.508,1.4991,1.5088,1.5088,1.5088,1.5088,1.5498,1.5894,1.6368,1.7357,0.0,0.0,0.0,0.0,0.0,2.1396,2.1888,2.203,2.2965,2.345,2.3681,2.412,2.4533,2.4982,2.567,2.5857,2.5942,2.6777,2.6414,2.5725,2.6453,2.6012,2.5393,2.6393,2.6347,2.5893,2.5893,2.5893,2.5893,2.5893,2.5893,2.5839,2.5893,2.5893,2.5893,2.6028,2.5986,2.5863,2.5783,2.5837,2.6054,0.0,0.0,0.0,0.0,0.0,2.7625,2.7625,0.0,0.0,2.789,2.8717,0.0,0.0,2.9673,2.9978,2.9239,2.9848,2.9951,2.9406,2.9848,3.0309,3.0814,3.0241,3.0199,3.0593,3.0468,3.0241,2.9924,2.9793,2.9483,2.8982,2.8496,2.8027,2.7625,2.7625,2.7625,2.7625,2.7575,2.7575,2.7458,2.6669,2.596,2.5287,0.0,0.0,0.0,0.0,0.0,0.0,0.0,1.7368,1.709,1.6472,1.5313,1.4678,1.4991,1.4579,1.446,1.4765,1.4942,1.5059,1.5059,1.5294,1.541,1.541,1.5362,1.5313,1.5313,1.5313,1.5313,0.0,1.5951,1.64,1.6708,1.782,1.875,0.0,0.0,2.0156,2.0497,2.1237,2.1732,2.2217,2.3143,2.3724,2.4124,2.4984,2.5607,2.6078,2.6768,2.7297,2.7698,2.8088,2.7488,2.6625,2.7133,2.7104,2.687,2.7187,2.7056,2.6811,2.6654,2.6616,2.6563,2.6297,2.6258,2.6204,2.5948,2.6096,2.6312,2.6351,2.6336,2.6201,2.5986,2.5563,2.5646,2.6563,0.0,0.0,0.0,0.0,0.0,2.7625,0.0,2.7625,0.0,2.8607,0.0,0.0,0.0,3.0393,2.9789,2.9978,3.0166,3.0351,0.0,3.0081,3.0935,3.0351,3.0284,3.0692,3.0733,3.0609,3.03,3.0342,2.9897,2.9028,2.8222,2.7745,2.7625,2.7625,2.7625,2.7625,2.7625,2.7625,2.7524,2.7049,2.6229,2.5342,1.8321,0.0,1.8417,0.0,1.8471,1.8375,1.8375,1.8201,1.7929,1.7534,1.6507,1.5891,1.5961,1.5478,1.5303,1.574,1.5604,1.5478,1.5478,1.541,1.541,1.541,1.541,0.0,1.5633,1.5633,1.5748,1.5921,1.656,1.6944,1.7268,1.8375,1.9133,0.0,1.9952,2.0346,2.0795,2.1431,2.1969,2.2523,2.3614,2.4326,2.474,2.6009,2.672,2.7089,2.7786,2.8352,2.8822,2.9032,2.8542,2.7876,2.8121,2.8108,2.7947,2.7815,2.765,2.7464,2.7174,2.7122,2.7019,2.6616,2.651,2.6404,2.5988,2.6204,2.6563,2.6774,2.6826,2.6707,2.6347,2.5783,2.5646,2.6563,0.0,0.0,0.0,2.7625,0.0,2.7625,2.7625,2.7625,2.7625,2.8432,0.0,0.0,0.0,0.0,3.0081,3.0081,0.0,0.0,0.0,0.0,3.0975,3.0576,3.0493,3.0773,3.0871,3.0814,3.0634,3.0551,2.9881,2.8842,2.8125,2.771,2.7625,2.7625,2.7625,2.7625,2.7625,2.7625,2.7509,2.6878,2.6122,2.5287,1.8881,1.8987,1.9146,1.9708,1.9344,1.8987,1.8987,1.8483,1.8093,1.8093,1.8093,1.7545,1.6218,1.6114,1.6009,1.5914,1.5798,1.5672,1.5672,1.5536,1.541,0.0,0.0,1.569,1.6255,1.6312,1.6585,1.7202,0.0,0.0,1.8278,1.9186,1.9617,1.9656,2.0832,2.1321,2.1286,2.2402,2.2888,2.3036,2.4635,2.5299,2.5462,2.707,2.7688,2.7786,2.8514,2.8773,2.8903,2.9659,2.9902,2.9858,2.9858,2.9058,2.8128,2.84,2.8012,2.7464,2.7174,2.7122,2.7019,2.6616,2.651,2.6404,2.5988,2.6204,2.6721,2.7458,2.7575,2.7458,2.6953,2.6549,2.6404,2.6669,0.0,0.0,0.0,2.7625,0.0,2.7625,2.7625,2.7625,2.7625,2.8027,0.0,0.0,0.0,0.0,0.0,0.0,0.0,3.0011,3.0634,0.0,3.0912,3.0935,3.0975,3.0975,3.0952,3.0935,3.0975,3.0326,2.9361,2.8304,2.8304,2.8027,2.7625,2.7625,2.7625,2.7625,2.7625,2.7625,2.7408,2.5946,2.5398,2.5175,1.9604,1.9552,1.9604,1.9747,1.9643,1.9552,1.9552,1.9384,1.9121,1.8762,1.8709,1.8375,1.7545,1.7368,1.7313,0.0,1.709,1.6989,0.0,1.6821,1.6698,1.6641,1.6641,1.6698,1.6922,1.6922,1.7034,1.7202,0.0,0.0,0.0,1.9952,2.0359,2.0696,2.1175,2.1575,2.1949,2.3109,2.3803,2.4253,2.5861,2.6545,2.6666,2.7949,2.845,2.8547,2.9275,2.9562,2.961,2.9837,2.9918,2.9918,2.9918,2.9621,2.9319,2.9227,2.9028,2.8795,2.8319,2.8174,2.8091,2.7509,2.7372,2.7255,2.6826,2.7034,2.7524,2.8039,2.776,2.7429,2.7625,2.6797,2.6361,2.7188,2.6997,0.0,2.7524,0.0,2.7625,2.7625,2.7625,2.7625,2.7625,2.8027,0.0,0.0,0.0,0.0,0.0,0.0,0.0,0.0,3.0576,0.0,3.1112,3.1112,3.1095,3.1015,3.1072,3.1032,3.0895,2.9892,2.921,2.8795,2.8125,2.776,2.7625,2.7625,2.7625,2.7625,2.7625,2.7357,2.693,2.6229,2.5508,2.461,2.0497,2.0396,2.0396,2.0396,2.0245,2.0105,2.0105,1.9952,1.9708,1.9344,1.9291,1.9226,1.9044,1.898,0.0,1.8027,1.7797,1.7688,1.7589,1.749,1.7379,1.7257,1.7202,1.7313,1.7534,1.7534,0.0,1.8178,1.8821,1.9554,2.0434,2.0597,2.0894,2.1334,2.2021,2.2513,2.2912,2.4263,2.5048,2.5453,2.6898,2.7486,2.7608,2.8775,2.9194,2.9243,2.974,2.9918,2.9918,2.9918,2.9918,2.9918,2.9918,2.9918,2.9874,2.9576,2.9515,2.938,2.8982,2.8826,2.8732,2.8204,2.7974,2.781,2.7444,2.7575,2.789,2.8314,2.791,2.7595,2.7989,2.724,2.6797,2.756,2.7306,2.7152,2.7575,0.0,2.7625,0.0,0.0,0.0,0.0,2.8027,2.8575,0.0,0.0,0.0,0.0,0.0,3.0576,3.0895,3.0658,3.074,3.1112,3.119,3.1151,3.1072,3.1151,3.1015,3.0634,2.9701,2.9134,2.8842,2.7944,2.7625,2.7625,2.7625,2.7625,2.7575,2.7357,2.7049,2.6616,2.5892,2.5119,2.4363,2.1485,2.1444,2.1417,2.1417,2.0993,2.066,2.066,2.0258,1.9901,1.9901,1.9901,2.0105,2.061,2.066,2.0029,1.8459,0.0,0.0,1.8112,1.7863,1.7644,1.7644,1.7523,1.7743,1.8309,1.8309,1.8833,1.9901,2.0497,2.097,2.134,2.134,2.145,2.1746,2.3306,2.4048,2.417,2.5818,2.6543,2.6605,2.7737,2.8215,2.8323,2.9468,2.9918,2.9918,2.9918,2.9918,2.9918,2.9918,2.9918,2.9918,2.9918,2.9918,2.9858,2.9621,2.9531,2.947,2.9213,2.9121,2.9029,2.8622,2.8319,2.8091,2.7875,2.784,2.7955,2.8299,2.8103,2.794,2.8137,2.779,2.7503,2.774,2.7675,2.7625,2.7625,2.7625,2.7625,0.0,0.0,0.0,2.7675,2.8027,2.8528,0.0,0.0,0.0,0.0,0.0,3.0935,3.0733,3.0895,3.1015,3.1015,3.1151,3.119,3.119,3.119,3.0878,3.0309,2.9673,2.9104,2.8511,2.7845,2.7625,2.7625,2.7625,2.7575,2.7458,2.6945,2.6669,2.6404,2.5007,2.4478,2.4236,0.0,0.0,2.1417,2.1417,2.1272,2.1224,2.1224,2.1126,2.1028,2.1028,2.1028,2.1077,2.1175,2.1224,2.1077,2.0657,2.0594,2.0544,2.0445,2.0344,2.0244,2.0156,2.0092,2.0105,2.0169,2.027,2.0434,2.0746,2.0894,2.1453,2.2491,2.2491,2.3263,2.4611,2.5008,2.5439,2.5893,2.717,2.7706,2.7813,2.8986,2.9468,2.9484,2.9793,2.9918,2.9918,2.9918,2.9918,2.9918,2.9918,2.9918,2.9918,2.9918,2.9918,2.9874,2.9814,2.9814,2.977,2.9486,2.9396,2.9335,2.9013,2.8779,2.8494,2.8284,2.825,2.8299,2.8396,2.8299,2.825,2.8186,2.8005,2.7855,2.779,2.7675,2.7625,2.7625,2.7625,2.7625,0.0,2.7625,2.776,2.8125,2.824,2.8748,0.0,0.0,0.0,3.0895,3.1072,3.1072,3.0935,3.1055,3.1151,3.1151,3.119,3.119,3.119,3.119,3.1015,3.0733,2.9821,2.9241,2.8889,2.7993,2.7625,2.7625,2.7625,2.7306,2.6893,2.6788,2.619,2.5328,2.4751,2.4131,2.3418,2.4243,2.3698,2.334,2.334,2.2698,2.218,2.218,2.1739,2.1417,2.1417,2.1417,2.1465,2.1718,2.1779,2.186,2.2063,2.1431,2.114,2.1272,2.0993,2.0894,2.1091,2.1042,2.0993,2.0894,2.0944,2.1309,2.1874,2.2131,2.2804,2.3814,2.4014,2.4681,2.5616,2.6382,2.6885,2.7246,2.8414,2.8894,2.8986,2.9653,2.9918,2.9902,2.9946,2.9946,2.9946,3.0033,3.0033,3.0033,2.9946,2.9946,2.9946,3.0044,3.0017,2.9902,3.006,2.9973,2.9874,2.971,2.9665,2.9576,2.9213,2.8982,2.8795,2.8493,2.8411,2.8411,2.8411,2.8411,2.8396,2.8299,2.8201,2.8054,2.7989,2.789,2.774,2.7675,2.7675,2.7675,2.7625,2.7625,2.781,2.8352,2.8575,2.9118,3.0038,3.0309,0.0,3.0975,3.1072,3.1072,3.1015,3.1151,3.119,3.119,3.119,3.119,3.119,3.0975,3.0797,3.0593,2.954,2.8966,2.8795,2.7944,2.7625,2.7575,2.7306,2.6997,2.6669,2.6136,2.5536,2.4919,2.4216,2.3653,2.3159,2.6547,2.6093,2.5694,2.5694,2.4517,2.3521,2.3387,2.251,2.1848,2.1623,2.1623,2.1813,2.2278,2.2324,2.2463,2.2843,2.1636,2.1042,2.1609,2.1091,2.0993,2.1431,2.1334,2.1326,2.1421,2.1586,2.2214,2.3328,2.3836,2.4498,2.5316,2.5687,2.5952,2.6197,2.7607,2.8294,2.843,2.9468,2.9918,2.9918,2.9902,2.9946,3.0033,3.0017,3.006,3.0146,3.0189,3.0189,3.0146,3.0017,3.0017,3.0087,3.0267,3.0156,3.006,3.0267,3.0113,2.9946,2.9902,2.9918,2.977,2.9213,2.9075,2.8998,2.8493,2.8411,2.8411,2.8411,2.8411,2.8411,2.8411,2.8299,2.8235,2.8268,2.8137,2.7955,2.7925,0.0,2.774,2.7625,2.7625,2.786,2.8463,2.8934,2.9464,3.0081,3.0634,3.0952,3.1015,3.1015,3.1015,3.1015,3.1151,3.119,3.119,3.119,3.1151,3.1095,3.0699,3.0377,3.0166,2.9134,2.8654,2.8463,2.786,2.7575,2.7408,2.6893,2.663,2.6351,2.5384,2.4889,2.4651,2.3666,2.3259,2.306,2.7226,2.6703,2.6287,2.6287,2.6061,2.5561,2.4612,2.4297,2.3819,2.2809,2.2646,2.2692,2.2797,2.2797,2.2797,2.2888,2.2324,2.217,2.2646,2.2555,2.2555,2.2646,2.2601,2.2798,2.3279,2.4196,2.4849,2.5156,2.5713,2.6306,2.7009,2.7087,2.7612,2.8575,2.8823,2.9204,2.9609,2.9826,2.9918,2.9902,2.9946,3.0172,3.0477,3.0258,3.0384,3.0642,3.03,3.0103,3.0017,3.0017,3.0113,3.0267,3.0293,3.0477,3.0601,3.0377,3.0267,3.0199,2.9946,2.9918,2.977,2.9213,2.9075,2.8998,2.8493,2.8411,2.8411,2.8411,2.8411,2.8411,2.8411,2.8299,2.8317,2.8732,2.8332,2.8088,2.8334,0.0,2.779,2.779,2.779,2.8008,2.8591,2.9088,2.9629,3.0208,3.0699,3.1032,3.1151,3.1151,3.1151,3.1151,3.119,3.119,3.119,3.119,3.1015,3.0617,3.0518,3.0208,2.9705,2.9012,2.8654,2.8463,2.786,2.7306,2.6826,2.6736,2.6136,2.5216,2.5061,2.4452,2.3716,2.3441,2.2999,2.2466,2.8722,2.8257,2.784,2.784,2.7378,2.6749,2.6214,2.5848,2.5408,2.4882,2.4792,2.4792,2.4792,2.4792,2.4792,2.4792,2.4597,2.4537,2.4792,2.3647,2.3163,2.3455,2.4038,2.4624,2.5137,2.5667,2.6153,2.658,2.6811,2.7242,2.7905,2.8186,2.8606,2.912,2.9425,2.971,2.9989,3.0172,3.0326,3.041,3.0625,3.0868,3.101,3.0914,3.1033,3.115,3.1067,3.0948,3.0908,3.074,3.0764,3.0845,3.0845,3.0707,3.0543,3.0543,3.0368,3.0044,2.9946,2.9918,2.983,2.9396,2.9213,2.8998,2.8653,2.8493,2.8411,2.8411,2.8411,2.8411,2.8411,2.8348,2.8381,2.8621,2.8396,2.825,2.8301,2.8171,2.7989,2.7905,2.7905,2.8122,2.8764,2.9028,2.9377,3.0011,3.0493,3.0757,3.0821,3.1165,3.1383,3.1383,3.0998,3.0821,3.0821,3.0576,3.0326,3.014,2.9865,2.9556,2.9227,2.859,2.8253,2.8107,2.7408,2.6945,2.6669,2.6028,2.5619,2.5395,2.5132,2.4567,2.3946,2.3694,2.3098,2.2291,2.9902,2.9605,2.9319,2.9319,2.8618,2.789,2.7596,2.7145,2.6696,2.6437,2.6377,2.6377,2.6377,2.6377,2.6377,2.6377,2.6377,2.6377,2.6377,2.4978,2.4225,2.4469,2.545,2.6214,2.6624,2.6914,2.73,2.7814,2.7906,2.8202,2.8685,2.9074,2.9273,2.9319,2.9826,3.0017,3.0017,3.0543,3.0788,3.0828,3.1244,3.1456,3.1568,3.1551,3.1588,3.1679,3.1714,3.1677,3.1623,3.1414,3.1355,3.1372,3.1372,3.0988,3.0584,3.0747,3.0368,2.9918,2.9918,2.9918,2.9814,2.9576,2.9305,2.9029,2.8779,2.8525,2.8411,2.8411,2.8411,2.8411,2.8411,2.8411,2.8444,2.8525,0.0,2.8396,2.8365,2.8284,2.8137,2.8054,2.8054,2.8235,2.8732,2.8858,2.9166,2.975,3.0287,3.0599,3.0725,3.1127,3.1254,3.109,3.0754,3.0474,3.0351,2.9968,2.9766,2.9617,2.9257,2.8997,2.8779,2.8235,2.7855,2.7625,2.6997,2.6597,2.6389,2.5534,2.536,2.5588,2.5071,2.4532,2.3996,2.3629,2.2865,2.1881,2.9973,2.9973,2.993,2.993,2.9837,2.9403,2.8231,2.8,2.7598,2.6559,2.6377,2.6377,2.6377,2.6377,2.6377,2.6377,2.6377,2.6377,2.6377,2.6811,2.6811,2.6241,2.6888,2.7272,2.7319,2.8372,2.8902,2.8949,2.9496,2.9722,2.977,2.9814,2.9858,2.9858,3.0368,3.0351,3.006,3.0971,3.1128,3.0828,3.1287,3.1735,3.2022,3.177,3.1913,3.2197,3.1823,3.1623,3.1497,3.1497,3.1531,3.1582,3.1582,3.1432,3.1179,3.0885,3.0368,2.9918,2.9918,2.9918,2.9814,2.9576,2.9305,2.9029,2.8779,2.8525,2.8411,2.8411,2.8411,2.8411,2.8411,2.8411,2.8525,2.8997,0.0,0.0,2.8826,2.8446,2.8186,2.8186,2.8186,2.8235,2.8396,2.8826,2.9257,2.975,3.0409,3.0945,3.1384,3.1038,3.0554,2.9935,3.0457,3.0457,2.9853,2.9793,2.9572,2.9166,2.9136,2.8873,2.8444,2.8103,2.7675,2.7122,2.6826,2.6394,2.5836,2.5778,2.5487,2.4988,2.4578,2.3898,2.3058,2.2666,2.1871,2.0894,3.0103,3.0103,3.0103,3.0103,3.0103,2.9962,2.947,2.9334,2.9134,2.8686,2.8626,2.8582,2.861,2.8626,2.8626,2.8742,2.8698,2.8654,2.8742,2.891,2.8719,2.8119,2.8325,2.8604,2.8952,2.9387,2.9621,2.9621,2.9814,2.9902,2.9946,2.9946,3.0033,3.0119,3.0518,3.0683,3.0683,3.1493,3.1789,3.1787,3.2196,3.2453,3.257,3.247,3.2555,3.2672,3.2521,3.2403,3.2351,3.2056,3.2003,3.1985,3.1802,3.1372,3.0925,3.0584,3.0309,3.0199,3.041,3.0172,2.9874,2.977,2.9531,2.9305,2.9029,2.8748,2.8573,2.846,2.8411,2.8411,2.8411,2.8411,2.8444,2.8621,0.0,2.8444,2.8573,2.8444,2.8299,2.8299,2.8299,2.8348,2.8411,2.8573,2.8919,2.9485,2.9673,3.003,3.0585,3.0478,3.0101,2.9579,2.9831,2.9754,2.9364,2.9106,2.8842,2.8653,2.8653,2.8573,2.8396,2.771,2.7342,2.7034,2.6396,2.6031,2.5815,2.5788,2.5673,2.5481,2.5049,2.4345,2.3401,2.2641,2.1569,2.0294,3.0468,3.0359,3.0274,3.0274,3.0274,3.0274,3.0384,3.0189,3.0103,3.0258,3.0103,3.0033,3.0076,3.0033,3.0033,3.0189,3.0119,3.0103,3.0189,3.0215,2.9984,2.938,2.938,2.9515,2.9902,3.006,3.013,3.0172,3.03,3.041,3.0435,3.0435,3.0477,3.0617,3.101,3.1206,3.1206,3.2004,3.2317,3.2318,3.2737,3.2916,3.2916,3.2916,3.2916,3.2916,3.2916,3.2916,3.2852,3.2573,3.2454,3.2352,3.2055,3.1487,3.0885,3.0543,3.046,3.0502,3.0764,3.0493,3.0146,3.006,2.9826,2.9605,2.9425,2.9227,2.8982,2.87,2.8605,2.8573,2.846,2.8411,2.8411,2.8411,2.8411,2.8411,2.8411,2.8541,2.8573,2.8396,2.8541,2.8651,2.8704,2.8535,2.8722,2.9583,2.9373,2.939,2.9876,2.9892,2.9619,2.9104,2.9104,2.9005,2.8873,2.8573,2.8411,2.8411,2.8411,2.8299,2.8024,2.7601,2.7141,2.6745,2.6266,2.6061,2.6096,2.5903,2.5741,2.5555,2.4973,2.406,2.2999,2.2167,2.0874,1.9423,3.1021,3.0675,3.0417,3.0417,3.0417,3.0526,3.0764,3.0468,3.0342,3.0764,3.0468,3.0189,3.0189,3.0189,3.0189,3.0189,3.0189,3.0189,3.0189,3.0576,3.0518,2.9946,2.9902,2.9946,3.0017,3.0393,3.0666,3.0788,3.1206,3.1397,3.1397,3.1397,3.1397,3.1435,3.188,3.188,3.1571,3.2486,3.2672,3.2352,3.2737,3.2916,3.2916,3.2916,3.2916,3.2916,3.2916,3.2916,3.2916,3.2916,3.277,3.2555,3.2352,3.1841,3.124,3.0885,3.0788,3.0788,3.0804,3.0804,3.0707,3.0377,3.014,3.0027,3.0011,2.9935,2.9772,2.9316,2.9166,2.8951,2.8493,2.8411,2.8411,2.8396,2.8411,2.8411,2.8396,2.8779,2.8904,2.8444,2.8826,2.9187,2.9385,2.8796,2.8852,3.0022,2.9679,2.9412,2.9396,2.9396,2.9104,2.8427,2.8411,2.8411,2.8411,2.8411,2.8411,2.8411,2.8411,2.8024,2.7327,2.7786,2.7252,2.6048,2.6511,2.6689,2.6674,2.6061,2.5617,2.5181,2.4181,2.2861,2.1461,2.1011,1.9756,1.8256,3.149,3.1376,3.13,3.13,3.13,3.1338,3.1414,3.1227,3.1072,3.0965,3.0988,3.0885,3.0401,3.051,3.0683,3.0804,3.051,3.0485,3.074,3.1089,3.1189,3.0971,3.0948,3.0971,3.0971,3.1089,3.1167,3.1206,3.1321,3.1418,3.1476,3.1476,3.1531,3.164,3.2039,3.2179,3.2109,3.2654,3.2852,3.2737,3.2852,3.2916,3.2916,3.2916,3.2916,3.2916,3.2916,3.2916,3.2884,3.2737,3.2639,3.2488,3.1985,3.1582,3.1295,3.1179,3.1123,3.1218,3.1428,3.1334,3.1083,3.0747,3.0584,3.0502,3.0393,3.0335,3.0107,2.9361,2.9196,2.9028,2.8493,2.8411,2.8493,2.8826,2.8605,2.8525,2.8826,2.8748,2.8573,2.8396,2.8541,2.8602,2.8688,2.8519,2.8722,2.9534,2.9462,2.9212,2.8735,2.8704,2.8611,2.8411,2.8411,2.8411,2.8411,2.8411,2.825,2.8005,2.841,2.8181,2.7453,2.7554,2.7209,2.6617,2.6238,2.609,2.6021,2.5636,2.5119,2.4541,2.3272,2.2253,2.1308,1.9668,1.8576,1.7691,3.1949,3.1787,3.1677,3.1677,3.1677,3.175,3.1913,3.1733,3.1568,3.1528,3.1528,3.1376,3.0982,3.1083,3.1184,3.1338,3.1083,3.1083,3.1507,3.1696,3.1861,3.1986,3.1986,3.1842,3.1456,3.1605,3.1679,3.175,3.1932,3.2021,3.2074,3.2074,3.2092,3.2197,3.242,3.2539,3.2555,3.282,3.2916,3.2916,3.2916,3.2916,3.2916,3.2916,3.2916,3.2916,3.2916,3.2916,3.2884,3.277,3.2588,3.242,3.202,3.1694,3.1504,3.1504,3.1504,3.1542,3.1746,3.1634,3.1466,3.1257,3.11,3.0965,3.0845,3.0723,3.0418,2.9701,2.9361,2.9074,2.8748,2.8653,2.8795,2.9028,2.8873,2.87,2.8826,2.8748,2.8621,2.8396,2.8573,2.8729,2.8781,2.8565,2.8581,2.8981,2.9012,2.8842,2.8427,2.825,2.8152,2.8152,2.8247,2.8283,2.8283,2.8541,2.849,2.8132,2.8464,2.8192,2.7456,2.7513,2.7128,2.6426,2.6257,2.598,2.5574,2.5131,2.4541,2.3818,2.2467,2.142,2.044,1.8886,1.7602,1.6542,3.2352,3.2056,3.1823,3.1823,3.1823,3.1932,3.2283,3.2056,3.1949,3.2249,3.202,3.1787,3.1714,3.1714,3.175,3.175,3.1804,3.1949,3.2283,3.2318,3.2539,3.2884,3.2916,3.2486,3.1645,3.1986,3.2231,3.2352,3.2705,3.2916,3.2916,3.2916,3.2916,3.2916,3.2916,3.2916,3.2916,3.2916,3.2916,3.2916,3.2916,3.2916,3.2916,3.2916,3.2916,3.2916,3.2916,3.2916,3.2916,3.2916,3.2639,3.2283,3.2283,3.2055,3.18,3.18,3.18,3.18,3.18,3.18,3.18,3.18,3.1579,3.1334,3.1334,3.1083,3.0707,3.0201,2.9629,2.9166,2.912,2.912,2.9166,2.9212,2.9166,2.8997,2.8621,2.8826,2.8904,2.8493,2.8779,2.9108,2.9308,2.8765,2.8411,2.8411,2.8411,2.8396,2.8348,2.805,2.7881,2.7831,2.8047,2.8174,2.8174,2.8697,2.8847,2.8652,2.8572,2.8125,2.7304,2.7544,2.6995,2.582,2.635,2.607,2.5193,2.4552,2.3818,2.301,2.1745,2.0518,1.9186,1.8327,1.678,1.5054,3.277,3.2705,3.2621,3.2621,3.2621,3.2654,3.277,3.2705,3.2555,3.2318,3.2488,3.2403,3.175,3.1985,3.2162,3.2162,3.2454,3.2555,3.2318,3.2588,3.2802,3.2884,3.2916,3.2802,3.2603,3.2687,3.2737,3.277,3.2852,3.2916,3.2916,3.2916,3.2916,3.2916,3.2916,3.2916,3.2916,3.2916,3.2916,3.2916,3.2916,3.2916,3.2916,3.2916,3.2916,3.2916,3.2916,3.2916,3.2916,3.2916,3.2639,3.2283,3.2283,3.2055,3.18,3.18,3.18,3.18,3.18,3.18,3.18,3.18,3.1763,3.1709,3.1709,3.1428,3.0988,3.026,3.0064,2.9865,2.9212,2.9393,2.975,3.0123,2.9556,2.9303,2.9968,2.9182,2.8668,2.892,2.87,2.8587,2.8611,2.8488,2.8411,2.8411,2.8411,2.825,2.7955,2.8288,2.8353,2.8024,2.8552,2.8822,2.8822,2.8843,2.8597,2.8096,2.8495,2.7925,2.6579,2.7092,2.6755,2.5896,2.5533,2.5063,2.4552,2.3632,2.2979,2.2381,2.0508,1.9571,1.9018,1.6683,1.547,1.4831,3.2916,3.2916,3.2916,3.2916,3.2916,3.2916,3.2916,3.2916,3.2802,3.2588,3.277,3.2737,3.2335,3.2454,3.2606,3.2606,3.277,3.2802,3.2606,3.277,3.2916,3.2916,3.2916,3.2916,3.2916,3.2916,3.2916,3.2916,3.2916,3.2916,3.2916,3.2916,3.2916,3.2916,3.2916,3.2916,3.2916,3.2916,3.2916,3.2916,3.2916,3.2916,3.2916,3.2916,3.2916,3.2916,3.2916,3.2916,3.2916,3.2916,3.2639,3.2283,3.2283,3.2055,3.18,3.18,3.18,3.18,3.18,3.18,3.18,3.18,3.18,3.1763,3.1596,3.1317,3.0931,3.0302,3.0149,3.0021,2.9821,2.9951,3.0225,3.0477,3.0081,2.9865,3.014,2.9364,2.8826,2.909,2.87,2.8411,2.8411,2.8411,2.8411,2.8411,2.8411,2.8339,2.8243,2.8382,2.8379,2.8269,2.8669,2.8756,2.864,2.8577,2.8236,2.7596,2.7908,2.7404,2.6378,2.6481,2.6195,2.5429,2.4921,2.4348,2.3632,2.267,2.1918,2.1145,1.9502,1.8372,1.7552,1.5779,1.4467,1.3262,3.2961,3.293,3.293,3.2916,3.2916,3.2916,3.2916,3.2916,3.2916,3.2916,3.2916,3.2916,3.2916,3.2916,3.2916,3.2916,3.2916,3.2916,3.2916,3.2916,3.2916,3.2916,3.2916,3.2916,3.2916,3.2916,3.2916,3.2916,3.2916,3.2916,3.2916,3.2916,3.2916,3.2916,3.2916,3.2916,3.2916,3.2916,3.2916,3.2916,3.2916,3.2916,3.2916,3.2916,3.2916,3.2916,3.2916,3.2916,3.2916,3.2916,3.2672,3.2352,3.2318,3.2091,3.1819,3.18,3.18,3.18,3.18,3.18,3.18,3.18,3.18,3.1709,3.1389,3.1145,3.0874,3.0485,3.026,3.0175,3.046,3.0601,3.0642,3.0642,3.0559,3.0393,3.0011,2.9438,2.9074,2.9074,2.87,2.8411,2.8411,2.8411,2.8458,2.8565,2.8483,2.856,2.8749,2.8459,2.833,2.8469,2.8567,2.8524,2.8216,2.8109,2.7683,2.6947,2.6879,2.6595,2.6171,2.5767,2.5288,2.4731,2.4348,2.3706,2.2841,2.1766,2.0904,2.0041,1.8638,1.7253,1.5846,1.4929,1.3281,1.1393,3.319,3.316,3.3099,3.2948,3.2916,3.2916,3.2916,3.2916,3.2916,3.2916,3.2916,3.2916,3.2916,3.2916,3.2916,3.2916,3.2916,3.2916,3.2916,3.2916,3.2916,3.2916,3.2916,3.2916,3.2916,3.2916,3.2916,3.2916,3.2916,3.2916,3.2916,3.2916,3.2916,3.2916,3.2916,3.2916,3.2916,3.2916,3.2916,3.2916,3.2916,3.2916,3.2916,3.2916,3.2916,3.2916,3.2916,3.2916,3.2916,3.2916,3.2737,3.2521,3.2352,3.2197,3.2054,3.1873,3.18,3.18,3.18,3.18,3.18,3.18,3.18,3.1709,3.1389,3.1257,3.1145,3.0874,3.0925,3.0918,3.0625,3.1021,3.1329,3.1218,3.0828,3.0584,3.0502,2.9689,2.9074,2.9074,2.87,2.8411,2.8411,2.8411,2.8642,2.9243,2.8905,2.8764,2.9045,2.9101,2.8984,2.8683,2.8539,2.8461,2.8309,2.7378,2.6514,2.5742,2.5417,2.5288,2.5146,2.4767,2.4288,2.374,2.3361,2.2916,2.2402,2.1354,2.0653,2.0041,1.7963,1.6667,1.5703,1.3262,1.1449,1.0242,3.3444,3.3415,3.3386,3.3298,3.3178,3.3117,3.3268,3.3178,3.3086,3.3086,3.3086,3.3086,3.3086,3.3086,3.3024,3.2916,3.2916,3.2916,3.2916,3.2916,3.2916,3.2916,3.2916,3.2916,3.2916,3.2916,3.2979,3.3086,3.2979,3.2916,3.2916,3.2916,3.2961,3.3086,3.3086,3.3147,3.3298,3.3298,3.3208,3.3086,3.3086,3.2993,3.2916,3.2916,3.2916,3.2916,3.2916,3.2916,3.2916,3.2916,3.277,3.2555,3.2352,3.2197,3.2037,3.1873,3.18,3.18,3.18,3.18,3.18,3.18,3.18,3.1746,3.1634,3.1579,3.1466,3.114,3.1274,3.1368,3.1157,3.1329,3.1423,3.1157,3.0958,3.074,3.0576,2.9924,2.9348,2.8904,2.8573,2.8411,2.8411,2.8488,2.8672,2.8961,2.8891,2.895,2.9202,2.929,2.9103,2.8567,2.8447,2.8065,2.7417,2.6514,2.5755,2.5193,2.4731,2.4455,2.4238,2.4009,2.3728,2.3224,2.2852,2.2231,2.1441,2.042,1.9316,1.8275,1.6593,1.5034,1.3521,1.1925,1.082,0.9953]},{"header":{"parameterUnit":"m.s-1","parameterCategory":1,"la1":30.6,"la2":28.766,"lo1":-90.7593,"lo2":-88.6598,"dx":0.0162,"dy":0.0183,"nx":116,"ny":114,"refTime":"2023-02-06T06:00:00:Z","depth":0,"parameterNumber":3,"parameterNumberName":"V-component_of_WINDS"},"data":[0.0,0.0,0.0,0.0,0.0,0.0,0.0,0.0,0.0,0.0,0.0,0.0,0.0,0.0,0.0,0.0,0.0,0.0,0.0,0.0,0.0,0.0,0.0,0.0,0.0,0.0,0.0,0.0,0.0,0.0,0.0,0.0,0.0,0.0,0.0,0.0,0.0,0.0,0.0,0.0,0.0,0.0,0.0,0.0,0.0,0.0,0.0,0.0,0.0,0.0,0.0,0.0,0.0,0.0,0.0,0.0,0.0,0.0,0.0,0.0,0.0,0.0,0.0,0.0,0.0,0.0,0.0,0.0,0.0,0.0,0.0,0.0,0.0,0.0,0.0,0.0,0.0,0.0,0.0,0.0,0.0,0.0,0.0,0.0,0.0,0.0,0.0,0.0,0.0,0.0,0.0,0.0,0.0,0.0,0.0,0.0,0.0,0.0,0.0,0.0,0.0,0.0,0.0,0.0,0.0,0.0,0.0,0.0,0.0,0.0,0.0,0.0,0.0,0.0,0.0,0.0,0.0,0.0,0.0,0.0,0.0,0.0,0.0,0.0,0.0,0.0,0.0,0.0,0.0,0.0,0.0,0.0,0.0,0.0,0.0,0.0,0.0,0.0,0.0,0.0,0.0,0.0,0.0,0.0,0.0,0.0,0.0,0.0,0.0,0.0,0.0,0.0,0.0,0.0,0.0,0.0,0.0,0.0,0.0,0.0,0.0,0.0,0.0,0.0,0.0,0.0,0.0,0.0,0.0,0.0,0.0,0.0,0.0,0.0,0.0,0.0,0.0,0.0,0.0,0.0,0.0,0.0,0.0,0.0,0.0,0.0,0.0,0.0,0.0,0.0,0.0,0.0,0.0,0.0,0.0,0.0,0.0,0.0,0.0,0.0,0.0,0.0,0.0,0.0,0.0,0.0,0.0,0.0,0.0,0.0,0.0,0.0,0.0,0.0,0.0,0.0,0.0,0.0,0.0,0.0,0.0,0.0,0.0,0.0,0.0,0.0,0.0,0.0,0.0,0.0,0.0,0.0,0.0,0.0,0.0,0.0,0.0,0.0,0.0,0.0,0.0,0.0,0.0,0.0,0.0,0.0,0.0,0.0,0.0,0.0,0.0,0.0,0.0,0.0,0.0,0.0,0.0,0.0,0.0,0.0,0.0,0.0,0.0,0.0,0.0,0.0,0.0,0.0,0.0,0.0,0.0,0.0,0.0,0.0,0.0,0.0,0.0,0.0,0.0,0.0,0.0,0.0,0.0,0.0,0.0,0.0,0.0,0.0,0.0,0.0,0.0,0.0,0.0,0.0,0.0,0.0,0.0,0.0,0.0,0.0,0.0,0.0,0.0,0.0,0.0,0.0,0.0,0.0,0.0,0.0,0.0,0.0,0.0,0.0,0.0,0.0,0.0,0.0,0.0,0.0,0.0,0.0,0.0,0.0,0.0,0.0,0.0,0.0,0.0,0.0,0.0,0.0,0.0,0.0,0.0,0.0,0.0,0.0,0.0,0.0,0.0,0.0,0.0,0.0,0.0,0.0,0.0,0.0,0.0,0.0,0.0,0.0,0.0,0.0,0.0,0.0,0.0,0.0,0.0,0.0,0.0,0.0,0.0,0.0,0.0,0.0,0.0,0.0,0.0,0.0,0.0,0.0,0.0,0.0,0.0,0.0,0.0,0.0,0.0,0.0,0.0,0.0,0.0,0.0,0.0,0.0,0.0,0.0,0.0,0.0,0.0,0.0,0.0,0.0,0.0,0.0,0.0,0.0,0.0,0.0,0.0,0.0,0.0,0.0,0.0,0.0,0.0,0.0,0.0,0.0,0.0,0.0,0.0,0.0,0.0,0.0,0.0,0.0,0.0,0.0,0.0,0.0,0.0,0.0,0.0,0.0,0.0,0.0,0.0,0.0,0.0,0.0,0.0,0.0,0.0,0.0,0.0,0.0,0.0,0.0,0.0,0.0,0.0,0.0,0.0,0.0,0.0,0.0,0.0,0.0,0.0,0.0,0.0,0.0,0.0,0.0,0.0,0.0,0.0,0.0,0.0,0.0,0.0,0.0,0.0,0.0,0.0,0.0,0.0,0.0,0.0,0.0,0.0,0.0,0.0,0.0,0.0,0.0,0.0,0.0,0.0,0.0,0.0,0.0,0.0,0.0,0.0,0.0,0.0,0.0,0.0,0.0,0.0,0.0,0.0,0.0,0.0,0.0,0.0,0.0,0.0,0.0,0.0,0.0,0.0,0.0,0.0,0.0,0.0,0.0,0.0,0.0,0.0,0.0,0.0,0.0,0.0,0.0,0.0,0.0,0.0,0.0,0.0,0.0,0.0,0.0,0.0,0.0,0.0,0.0,0.0,0.0,0.0,0.0,0.0,0.0,0.0,0.0,0.0,0.0,0.0,0.0,0.0,0.0,0.0,0.0,0.0,0.0,0.0,0.0,0.0,0.0,0.0,0.0,0.0,0.0,0.0,0.0,0.0,0.0,0.0,0.0,0.0,0.0,0.0,0.0,0.0,0.0,0.0,0.0,0.0,0.0,0.0,0.0,0.0,0.0,0.0,0.0,0.0,0.0,0.0,0.0,0.0,0.0,0.0,0.0,0.0,0.0,0.0,0.0,0.0,0.0,0.0,0.0,0.0,0.0,0.0,0.0,0.0,0.0,0.0,0.0,0.0,0.0,0.0,0.0,0.0,0.0,0.0,0.0,0.0,0.0,0.0,0.0,0.0,0.0,0.0,0.0,0.0,0.0,0.0,0.0,0.0,0.0,0.0,0.0,0.0,0.0,0.0,0.0,0.0,0.0,0.0,0.0,0.0,0.0,0.0,0.0,0.0,0.0,0.0,0.0,0.0,0.0,0.0,0.0,0.0,0.0,0.0,0.0,0.0,0.0,0.0,0.0,0.0,0.0,0.0,0.0,0.0,0.0,0.0,0.0,0.0,0.0,0.0,0.0,0.0,0.0,0.0,0.0,0.0,0.0,0.0,0.0,0.0,0.0,0.0,0.0,0.0,0.0,0.0,0.0,0.0,0.0,0.0,0.0,0.0,0.0,0.0,0.0,0.0,0.0,0.0,0.0,0.0,0.0,0.0,0.0,0.0,0.0,0.0,0.0,0.0,0.0,0.0,0.0,0.0,0.0,0.0,0.0,0.0,0.0,0.0,0.0,0.0,0.0,0.0,0.0,0.0,0.0,0.0,0.0,0.0,0.0,0.0,0.0,0.0,0.0,0.0,0.0,0.0,0.0,0.0,0.0,0.0,0.0,0.0,0.0,0.0,0.0,0.0,0.0,0.0,0.0,0.0,0.0,0.0,0.0,0.0,0.0,0.0,0.0,0.0,0.0,0.0,0.0,0.0,0.0,0.0,0.0,0.0,0.0,0.0,0.0,0.0,0.0,0.0,0.0,0.0,0.0,0.0,0.0,0.0,0.0,0.0,0.0,0.0,0.0,0.0,0.0,0.0,0.0,0.0,0.0,0.0,0.0,0.0,0.0,0.0,0.0,0.0,0.0,0.0,0.0,0.0,0.0,0.0,0.0,0.0,0.0,0.0,0.0,0.0,0.0,0.0,0.0,0.0,0.0,0.0,0.0,0.0,0.0,0.0,0.0,0.0,0.0,0.0,0.0,0.0,0.0,0.0,0.0,0.0,0.0,0.0,0.0,0.0,0.0,0.0,0.0,0.0,0.0,0.0,0.0,0.0,0.0,0.0,0.0,0.0,0.0,0.0,0.0,0.0,0.0,0.0,0.0,0.0,0.0,0.0,0.0,0.0,0.0,0.0,0.0,0.0,0.0,0.0,0.0,0.0,0.0,0.0,0.0,0.0,0.0,0.0,0.0,0.0,0.0,0.0,0.0,0.0,0.0,0.0,0.0,0.0,0.0,0.0,0.0,0.0,0.0,0.0,0.0,0.0,0.0,0.0,0.0,0.0,0.0,0.0,0.0,0.0,0.0,0.0,0.0,0.0,0.0,0.0,0.0,0.0,0.0,0.0,0.0,0.0,0.0,0.0,0.0,0.0,0.0,0.0,0.0,0.0,0.0,0.0,0.0,0.0,0.0,0.0,0.0,0.0,0.0,0.0,0.0,0.0,0.0,0.0,0.0,0.0,0.0,0.0,0.0,0.0,0.0,0.0,0.0,0.0,0.0,0.0,0.0,0.0,0.0,0.0,0.0,0.0,0.0,0.0,0.0,0.0,0.0,0.0,0.0,0.0,0.0,0.0,0.0,0.0,0.0,0.0,0.0,0.0,0.0,0.0,0.0,0.0,0.0,0.0,0.0,0.0,0.0,0.0,0.0,0.0,0.0,0.0,0.0,0.0,0.0,0.0,0.0,0.0,0.0,0.0,0.0,0.0,0.0,0.0,0.0,0.0,0.0,0.0,0.0,0.0,0.0,0.0,0.0,0.0,0.0,0.0,0.0,0.0,0.0,0.0,0.0,0.0,0.0,0.0,0.0,0.0,0.0,0.0,0.0,0.0,0.0,0.0,0.0,0.0,0.0,0.0,0.0,0.0,0.0,0.0,0.0,0.0,0.0,0.0,0.0,0.0,0.0,0.0,0.0,0.0,0.0,0.0,0.0,0.0,0.0,0.0,0.0,0.0,0.0,0.0,0.0,0.0,0.0,0.0,0.0,0.0,0.0,0.0,0.0,0.0,0.0,0.0,0.0,0.0,0.0,0.0,0.0,0.0,0.0,0.0,0.0,0.0,0.0,0.0,0.0,0.0,0.0,0.0,0.0,0.0,0.0,0.0,0.0,0.0,0.0,0.0,0.0,0.0,0.0,0.0,0.0,0.0,0.0,0.0,0.0,0.0,0.0,0.0,0.0,0.0,0.0,0.0,0.0,0.0,0.0,0.0,0.0,0.0,0.0,0.0,0.0,0.0,0.0,0.0,0.0,0.0,0.0,0.0,0.0,0.0,0.0,0.0,0.0,0.0,0.0,0.0,0.0,0.0,0.0,0.0,0.0,0.0,0.0,0.0,0.0,0.0,0.0,0.0,0.0,0.0,0.0,0.0,0.0,0.0,0.0,0.0,0.0,0.0,0.0,0.0,0.0,0.0,0.0,0.0,0.0,0.0,0.0,0.0,0.0,0.0,0.0,0.0,0.0,0.0,0.0,0.0,0.0,0.0,0.0,0.0,0.0,0.0,0.0,0.0,0.0,0.0,0.0,0.0,0.0,0.0,0.0,0.0,0.0,0.0,0.0,0.0,0.0,0.0,0.0,0.0,0.0,0.0,0.0,0.0,0.0,0.0,0.0,0.0,0.0,0.0,0.0,0.0,0.0,0.0,0.0,0.0,0.0,0.0,0.0,0.0,0.0,0.0,0.0,0.0,0.0,0.0,0.0,0.0,0.0,0.0,0.0,0.0,0.0,0.0,0.0,0.0,0.0,0.0,0.0,0.0,0.0,0.0,0.0,0.0,0.0,0.0,0.0,0.0,0.0,0.0,0.0,0.0,0.0,0.0,0.0,0.0,0.0,0.0,0.0,0.0,0.0,0.0,0.0,0.0,0.0,0.0,0.0,0.0,0.0,0.0,0.0,0.0,0.0,0.0,0.0,0.0,0.0,0.0,0.0,0.0,0.0,0.0,0.0,0.0,0.0,0.0,0.0,0.0,0.0,0.0,0.0,0.0,0.0,0.0,0.0,0.0,0.0,0.0,0.0,0.0,0.0,0.0,0.0,0.0,0.0,0.0,0.0,0.0,0.0,0.0,0.0,0.0,0.0,0.0,0.0,0.0,0.0,0.0,0.0,0.0,0.0,0.0,0.0,0.0,0.0,0.0,0.0,0.0,0.0,0.0,0.0,0.0,0.0,0.0,0.0,0.0,0.0,0.0,0.0,0.0,0.0,0.0,0.0,0.0,0.0,0.0,0.0,0.0,0.0,0.0,0.0,0.0,0.0,0.0,0.0,0.0,0.0,0.0,0.0,0.0,0.0,0.0,0.0,0.0,0.0,0.0,0.0,0.0,0.0,0.0,0.0,0.0,0.0,0.0,0.0,0.0,0.0,0.0,0.0,0.0,0.0,0.0,0.0,0.0,0.0,0.0,0.0,0.0,0.0,0.0,0.0,0.0,0.0,0.0,0.0,0.0,0.0,0.0,0.0,-2.8797,-2.8971,0.0,0.0,0.0,0.0,0.0,0.0,0.0,0.0,0.0,0.0,0.0,0.0,0.0,0.0,0.0,0.0,0.0,0.0,0.0,0.0,0.0,0.0,0.0,0.0,0.0,0.0,0.0,0.0,0.0,0.0,0.0,0.0,0.0,0.0,0.0,0.0,0.0,0.0,-2.6605,-2.7613,-2.9168,-2.9644,-3.0149,-3.0603,0.0,0.0,0.0,0.0,0.0,0.0,0.0,0.0,0.0,0.0,0.0,0.0,0.0,0.0,0.0,0.0,0.0,0.0,0.0,0.0,0.0,0.0,0.0,0.0,0.0,0.0,0.0,0.0,0.0,0.0,0.0,0.0,0.0,0.0,0.0,0.0,0.0,0.0,0.0,0.0,0.0,0.0,0.0,0.0,0.0,0.0,0.0,0.0,0.0,0.0,0.0,0.0,0.0,0.0,0.0,0.0,0.0,0.0,0.0,0.0,0.0,0.0,0.0,0.0,0.0,0.0,0.0,0.0,0.0,0.0,-2.8558,-2.8959,0.0,0.0,0.0,0.0,0.0,0.0,0.0,0.0,0.0,0.0,0.0,0.0,0.0,0.0,0.0,0.0,0.0,0.0,0.0,0.0,0.0,0.0,0.0,-2.9889,-2.9711,-2.9254,-2.9133,-2.8773,0.0,0.0,0.0,0.0,0.0,0.0,0.0,-2.5655,-2.5619,-2.5504,-2.6264,-2.7297,-2.8542,-2.8817,-2.9409,-3.0227,-3.0329,0.0,0.0,0.0,0.0,0.0,0.0,0.0,0.0,0.0,0.0,0.0,0.0,0.0,0.0,0.0,0.0,0.0,0.0,0.0,0.0,0.0,0.0,0.0,0.0,0.0,0.0,0.0,0.0,0.0,0.0,0.0,0.0,0.0,0.0,0.0,0.0,0.0,0.0,0.0,0.0,0.0,0.0,0.0,0.0,0.0,0.0,0.0,0.0,0.0,0.0,0.0,0.0,0.0,0.0,0.0,0.0,0.0,0.0,0.0,0.0,0.0,0.0,0.0,-2.8743,-2.8669,-2.8651,-2.8386,-2.8412,-2.8669,-2.8531,-2.9061,-3.0122,-3.0646,0.0,0.0,0.0,0.0,0.0,0.0,0.0,0.0,0.0,0.0,0.0,0.0,0.0,0.0,0.0,0.0,0.0,0.0,0.0,0.0,0.0,-2.9303,-2.9056,-2.9264,-2.8657,-2.7946,-2.7203,0.0,0.0,0.0,0.0,0.0,-2.5684,-2.5631,-2.5589,-2.5507,-2.6119,-2.6503,-2.6689,-2.816,-2.8917,-2.9148,-2.9954,-3.033,-3.0343,0.0,0.0,0.0,0.0,0.0,0.0,0.0,0.0,0.0,0.0,0.0,0.0,0.0,0.0,0.0,0.0,0.0,0.0,0.0,0.0,0.0,0.0,0.0,0.0,0.0,0.0,0.0,0.0,0.0,0.0,0.0,0.0,0.0,0.0,0.0,0.0,0.0,0.0,0.0,0.0,0.0,-3.0251,-3.0227,0.0,0.0,0.0,0.0,0.0,0.0,0.0,0.0,0.0,0.0,0.0,0.0,0.0,-2.8858,-2.8651,-2.8881,-2.8881,-2.8669,-2.8858,-2.8947,-2.8947,-2.8905,-2.8905,-2.8965,-2.9637,0.0,-3.084,-3.1891,0.0,0.0,0.0,0.0,0.0,0.0,0.0,0.0,0.0,0.0,0.0,0.0,0.0,0.0,0.0,0.0,0.0,0.0,0.0,0.0,0.0,-2.8508,-2.8057,-2.7865,-2.755,-2.7055,-2.632,-2.6264,0.0,0.0,0.0,-2.568,-2.564,-2.5629,-2.5522,-2.5397,-2.5584,-2.5876,-2.626,-2.6992,-2.7865,-2.8806,-2.9227,-2.9732,-3.0292,-3.0292,0.0,0.0,0.0,0.0,0.0,0.0,0.0,0.0,0.0,0.0,0.0,0.0,0.0,0.0,0.0,0.0,0.0,0.0,0.0,0.0,0.0,0.0,0.0,0.0,0.0,0.0,0.0,0.0,0.0,0.0,0.0,0.0,0.0,0.0,0.0,0.0,0.0,0.0,0.0,-3.0075,-2.9876,-2.9903,-2.9725,-2.9613,0.0,0.0,0.0,0.0,0.0,0.0,0.0,0.0,0.0,-2.8834,-2.8791,-2.8791,-2.8815,-2.8929,-2.8881,-2.8601,-2.8881,-2.8905,-2.8767,-2.8929,-2.9255,-2.9732,-3.0522,-3.1254,-3.19,-3.2397,-3.2894,-3.339,0.0,0.0,0.0,0.0,-3.3807,-3.3807,0.0,0.0,0.0,0.0,0.0,0.0,0.0,0.0,0.0,0.0,0.0,0.0,-2.8223,-2.7851,-2.7369,-2.6792,-2.6586,-2.6267,-2.5726,-2.571,-2.5696,-2.5707,-2.5707,-2.5681,-2.5634,-2.559,-2.5446,-2.5253,-2.513,-2.5361,-2.5901,-2.611,-2.6986,-2.8408,-2.86,-2.9258,-3.0213,-3.0213,-3.0213,-3.0226,0.0,0.0,0.0,0.0,0.0,0.0,0.0,0.0,0.0,0.0,0.0,0.0,0.0,0.0,0.0,0.0,0.0,0.0,0.0,0.0,0.0,0.0,0.0,0.0,0.0,0.0,0.0,0.0,0.0,0.0,0.0,0.0,0.0,0.0,0.0,0.0,0.0,-2.9857,-2.963,-2.9638,-2.95,-2.9339,0.0,0.0,0.0,0.0,0.0,0.0,-2.8773,-2.8594,-2.8601,-2.8881,-2.8694,-2.8718,-2.8994,-2.8929,-2.8834,-2.87,-2.8905,-2.8905,-2.8718,-2.8905,-2.9457,-3.0246,-3.1035,-3.1861,-3.2632,-3.2834,-3.3203,-3.368,-3.378,-3.3734,-3.368,-3.378,-3.3807,-3.3807,0.0,0.0,0.0,0.0,0.0,0.0,0.0,0.0,0.0,0.0,0.0,-2.891,-2.7509,-2.7567,-2.7441,-2.6849,-2.6098,-2.5667,-2.5707,-2.571,-2.5696,-2.5707,-2.5707,-2.5698,-2.57,-2.5515,-2.5302,-2.5115,-2.5038,-2.5018,-2.5086,-2.5844,-2.6698,-2.7589,-2.837,-2.9147,-2.9921,-2.9921,-2.9956,-3.0038,-3.0161,0.0,0.0,0.0,0.0,0.0,0.0,0.0,0.0,0.0,0.0,0.0,0.0,0.0,0.0,0.0,0.0,0.0,0.0,0.0,0.0,0.0,0.0,0.0,0.0,0.0,0.0,0.0,0.0,0.0,0.0,0.0,0.0,0.0,0.0,0.0,0.0,0.0,0.0,-2.9539,-2.9444,0.0,0.0,0.0,0.0,-2.8272,-2.7959,-2.7866,-2.8127,-2.8136,-2.8281,-2.8601,-2.8601,-2.8718,-2.8994,-2.8743,-2.8743,-2.8994,-2.8994,-2.8994,-2.8994,-2.8994,-2.9457,-3.0246,-3.1035,-3.1861,-3.2669,-3.3421,-3.3588,-3.335,-3.368,-3.3625,-3.3379,-3.368,-3.3807,-3.3807,0.0,0.0,0.0,0.0,0.0,0.0,0.0,0.0,-2.8904,-2.8114,-2.8053,-2.7705,-2.6702,-2.6406,-2.6199,-2.5975,-2.5744,-2.5605,-2.5629,-2.5632,-2.5645,-2.5707,-2.5696,-2.5663,-2.5567,-2.5447,-2.5321,-2.516,-2.505,-2.4999,-2.501,-2.5294,-2.6167,-2.7513,-2.7801,-2.8654,-2.9888,-2.9888,-2.9891,-2.9874,-2.9969,-3.0041,0.0,0.0,0.0,0.0,0.0,0.0,0.0,0.0,0.0,0.0,0.0,0.0,0.0,0.0,0.0,0.0,0.0,0.0,0.0,0.0,0.0,0.0,0.0,0.0,0.0,0.0,0.0,0.0,0.0,0.0,0.0,0.0,0.0,0.0,0.0,0.0,0.0,-2.9444,-2.9407,0.0,-2.9057,-2.8824,-2.8639,-2.8461,-2.8156,-2.7983,-2.8081,-2.811,-2.8156,-2.8264,-2.8482,-2.8644,-2.8743,-2.8834,-2.9089,-2.9526,-2.9698,-2.9948,-3.0272,-2.9936,-3.0503,-3.1733,-3.1494,-3.2155,-3.3385,-3.3678,-3.3734,-3.3625,-3.3734,-3.3734,-3.3652,-3.378,-3.3807,-3.3807,0.0,0.0,0.0,0.0,0.0,0.0,0.0,0.0,-2.8926,-2.8159,-2.7894,-2.74,-2.6384,-2.6091,-2.586,-2.557,-2.5564,-2.5604,-2.5598,-2.5601,-2.5639,-2.5705,-2.5701,-2.5634,-2.5464,-2.5413,-2.5312,-2.5168,-2.5057,-2.4999,-2.5004,-2.501,-2.5901,-2.7494,-2.7494,-2.8389,-2.9888,-2.9888,-2.9857,-2.9808,-2.9924,-2.9984,-3.0041,0.0,0.0,0.0,0.0,0.0,0.0,0.0,0.0,0.0,0.0,0.0,0.0,0.0,0.0,0.0,0.0,0.0,0.0,0.0,0.0,0.0,0.0,0.0,0.0,0.0,0.0,0.0,0.0,0.0,0.0,0.0,0.0,0.0,0.0,-2.9725,-2.9537,-2.9388,-2.9388,-2.9299,-2.9062,-2.8811,-2.8649,-2.8496,-2.8152,-2.8003,-2.8102,-2.8102,-2.8156,-2.8281,-2.8482,-2.8753,-2.9143,-2.9235,-2.9637,-3.0345,-3.0521,-3.0796,-3.1117,-3.0759,-3.1182,-3.2192,-3.1916,-3.2412,-3.3421,-3.3705,-3.3815,-3.3815,-3.3807,-3.3807,-3.3807,-3.3807,-3.3807,-3.3752,0.0,0.0,0.0,0.0,0.0,0.0,0.0,-2.9134,-2.8947,-2.8276,-2.848,-2.8082,-2.6573,-2.6671,-2.6514,-2.5679,-2.5601,-2.5604,-2.5598,-2.5601,-2.5639,-2.5707,-2.5703,-2.5618,-2.5408,-2.541,-2.5303,-2.5094,-2.5051,-2.4993,-2.4993,-2.5004,-2.5901,-2.7494,-2.7494,-2.8404,-2.9905,-2.9905,-2.9874,-2.9842,-3.0007,-3.0098,-3.0123,0.0,0.0,0.0,0.0,0.0,0.0,0.0,0.0,0.0,0.0,0.0,0.0,0.0,0.0,0.0,0.0,0.0,0.0,0.0,0.0,0.0,0.0,0.0,0.0,0.0,0.0,0.0,0.0,0.0,0.0,0.0,0.0,0.0,-2.9942,-2.9746,-2.9518,-2.933,-2.937,-2.9222,-2.8755,-2.8705,-2.858,-2.8255,-2.7897,-2.7829,-2.8102,-2.8102,-2.8255,-2.8576,-2.8637,-2.9143,-3.0167,-2.9963,-3.0363,-3.1439,-3.1439,-3.1439,-3.1458,-3.1439,-3.1439,-3.1513,-3.2247,-3.2596,-3.2669,-3.3519,-3.3858,-3.3858,-3.3815,-3.3788,-3.3788,-3.3807,-3.3815,-3.3642,0.0,0.0,0.0,0.0,0.0,0.0,0.0,-2.8791,-2.8713,-2.8316,-2.794,-2.7399,-2.6621,-2.616,-2.5809,-2.5615,-2.5601,-2.5604,-2.5598,-2.5601,-2.5634,-2.5703,-2.5696,-2.5619,-2.5479,-2.5425,-2.5339,-2.5163,-2.5118,-2.5063,-2.4993,-2.4999,-2.5918,-2.757,-2.757,-2.8545,-3.018,-3.018,-3.0185,-3.0138,-3.0068,-3.0094,-3.0196,0.0,0.0,0.0,0.0,0.0,0.0,0.0,0.0,0.0,0.0,0.0,0.0,0.0,0.0,0.0,0.0,0.0,0.0,0.0,0.0,0.0,0.0,0.0,0.0,0.0,0.0,0.0,0.0,0.0,0.0,0.0,-3.0398,-3.0286,-2.9952,-2.9851,-2.9706,-2.9407,-2.9388,-2.9344,-2.9152,-2.8868,-2.8658,-2.8576,-2.8201,-2.802,-2.8102,-2.8102,-2.8129,-2.8237,-2.906,-2.9606,-2.9919,-3.0611,-3.1382,-3.2284,-3.2284,-3.2577,-3.3109,-3.254,-3.2603,-3.3151,-3.2213,-3.2164,-3.2766,-3.3013,-3.3105,-3.316,-3.3674,-3.3868,-3.3895,-3.4049,-3.3728,-3.3093,0.0,0.0,0.0,0.0,0.0,0.0,0.0,-2.8583,-2.8672,-2.8587,-2.814,-2.7595,-2.7052,-2.6371,-2.5848,-2.5583,-2.5531,-2.5544,-2.5598,-2.5626,-2.5655,-2.5701,-2.5709,-2.5632,-2.5504,-2.5432,-2.5337,-2.5244,-2.5153,-2.5082,-2.5082,-2.5069,-2.5971,-2.7638,-2.7638,-2.8632,-3.0292,-3.0292,-3.0318,-3.0323,-3.0202,-3.0209,-3.0278,-3.0273,-3.0364,-3.05,-3.0509,-3.0518,-3.0546,-3.0505,0.0,0.0,0.0,0.0,0.0,0.0,0.0,0.0,0.0,0.0,0.0,0.0,0.0,0.0,0.0,0.0,0.0,0.0,0.0,0.0,0.0,0.0,0.0,0.0,-3.0398,-3.0299,-3.0007,-2.9941,-2.9793,-2.951,-2.9429,-2.9516,-2.9805,-2.9613,-2.9586,-2.9929,-2.9254,-2.8846,-2.8846,-2.8514,-2.8452,-2.8793,-2.9569,-3.0298,-3.0972,-3.1583,-3.2327,-3.3136,-3.3136,-3.3401,-3.385,-3.339,-3.3287,-3.3393,-3.2447,-3.214,-3.2299,-3.2323,-3.2395,0.0,0.0,0.0,0.0,0.0,-3.3026,-3.2481,0.0,0.0,0.0,0.0,0.0,0.0,0.0,-2.8402,-2.8676,-2.8952,-2.8633,-2.8175,-2.7528,-2.6918,-2.6265,-2.5522,-2.5412,-2.5456,-2.5585,-2.5648,-2.5683,-2.5701,-2.5691,-2.5639,-2.5515,-2.5439,-2.5374,-2.5303,-2.5176,-2.513,-2.5198,-2.5126,-2.6048,-2.7727,-2.7716,-2.8687,-3.033,-3.033,-3.0379,-3.0409,-3.0409,-3.0409,-3.0428,-3.0414,-3.0458,-3.052,-3.0519,-3.0557,-3.0604,-3.0593,0.0,0.0,0.0,0.0,0.0,0.0,0.0,0.0,0.0,0.0,0.0,0.0,0.0,0.0,0.0,0.0,0.0,0.0,0.0,0.0,0.0,0.0,0.0,0.0,-3.0475,-3.0477,-3.0303,-3.0235,-3.0092,-2.9776,-2.9716,-2.9986,-3.0671,-3.068,-3.0932,-3.1654,-3.0699,-3.0079,-3.0079,-2.9355,0.0,0.0,0.0,-3.1189,-3.2596,-3.2713,-3.3143,-3.3895,-3.3895,-3.3947,-3.3998,-3.3998,-3.3573,-3.2798,-3.2754,-3.2255,-3.152,-3.1589,-3.1766,-3.2008,-3.2729,-3.3004,-3.2935,-3.222,-3.1977,-3.1883,0.0,0.0,0.0,0.0,0.0,0.0,0.0,-2.784,-2.8139,-2.8819,-2.8242,-2.764,-2.7308,-2.6681,-2.5968,-2.5234,-2.5312,-2.5426,-2.5517,-2.5577,-2.5636,-2.5703,-2.5641,-2.562,-2.566,-2.5493,-2.5379,-2.5382,-2.5241,-2.5176,-2.5194,-2.519,-2.6145,-2.7856,-2.7855,-2.8858,-3.053,-3.053,-3.054,-3.0559,-3.0559,-3.0559,-3.0559,-3.0569,-3.0579,-3.0588,-3.0588,-3.0579,-3.0598,-3.0597,-3.064,-3.0671,-3.0704,-3.0698,0.0,0.0,0.0,0.0,0.0,0.0,0.0,0.0,0.0,0.0,0.0,0.0,0.0,0.0,0.0,0.0,0.0,0.0,0.0,-3.0398,-3.0987,-3.1436,-3.1392,-3.1833,-3.1751,-3.0697,-3.1184,-3.1591,-3.1563,-3.1514,-3.1501,-3.1621,-3.1407,-3.1243,-3.1195,-3.1096,-3.1102,-3.1243,-3.1937,-3.2435,-3.2748,-3.3393,-3.3825,-3.3972,0.0,0.0,-3.3998,-3.3998,-3.358,-3.2858,-3.237,-3.1696,-3.0973,-3.113,-3.133,-3.1578,-3.2147,-3.2468,-3.2502,-3.1505,-3.1257,-3.1301,0.0,0.0,0.0,0.0,0.0,0.0,0.0,-2.763,-2.784,-2.8246,-2.8105,-2.7706,-2.6898,-2.6591,-2.605,-2.5025,-2.5156,-2.5301,-2.534,-2.5484,-2.5576,-2.5655,-2.5625,-2.5622,-2.5703,-2.5541,-2.5459,-2.5441,-2.5348,-2.5331,-2.5365,-2.5792,-2.6725,-2.8014,-2.8459,-2.9388,-3.0598,-3.0636,-3.0656,-3.0656,-3.0656,-3.0656,-3.0656,-3.0617,-3.0617,-3.0656,-3.0656,-3.0675,-3.0694,-3.0695,-3.0737,-3.0799,-3.079,-3.081,-3.0804,0.0,0.0,0.0,0.0,0.0,0.0,0.0,0.0,0.0,0.0,0.0,0.0,0.0,0.0,-3.0626,0.0,0.0,-3.1094,-3.1056,-3.1756,-3.2295,-3.2295,-3.2974,-3.3038,-3.1891,-3.2051,-3.2374,-3.2671,-3.2582,-3.268,-3.3086,-3.2672,-3.2385,-3.2344,-3.2067,-3.2075,-3.2486,-3.2895,-3.3258,-3.3547,-3.3956,-3.4111,-3.4049,-3.4197,-3.4269,-3.4293,-3.4413,-3.4011,-3.3227,-3.2522,-3.1714,-3.0921,-3.0693,-3.0666,-3.0801,-3.1172,-3.1374,-3.1379,-3.0848,-3.0729,-3.0762,0.0,0.0,0.0,0.0,0.0,0.0,0.0,-2.7465,-2.7642,-2.7701,-2.8039,-2.7814,-2.6631,-2.6542,-2.6061,-2.4821,-2.4898,-2.5077,-2.5168,-2.5323,-2.5459,-2.5561,-2.5566,-2.56,-2.5664,-2.5568,-2.5496,-2.5493,-2.5428,-2.5525,-2.577,-2.6475,-2.7369,-2.8398,-2.9091,-2.9841,-3.0629,-3.0671,-3.0701,-3.0701,-3.069,-3.0711,-3.0714,-3.0656,-3.0664,-3.069,-3.069,-3.075,-3.0791,-3.0791,-3.0847,-3.0898,-3.0891,-3.0909,-3.0894,-3.0878,-3.0838,0.0,0.0,0.0,0.0,0.0,0.0,0.0,0.0,0.0,-3.0833,-3.0942,-3.0969,-3.0973,-3.1033,-3.1611,-3.2048,-3.1989,-3.2639,-3.3179,-3.3141,-3.3891,-3.4139,-3.3336,-3.3067,-3.3178,-3.3789,-3.3714,-3.3895,-3.4591,-3.3947,-3.3513,-3.3513,-3.2996,-3.3015,-3.3658,-3.3696,-3.3918,-3.4423,-3.4423,-3.4353,-3.425,-3.4476,-3.4604,-3.4668,-3.4831,-3.4339,-3.3317,-3.2348,-3.1678,-3.1159,-3.0629,-3.0494,-3.0661,-3.0823,-3.0891,-3.0852,-3.0513,-3.0398,-3.0398,0.0,0.0,0.0,0.0,0.0,0.0,0.0,0.0,-2.7421,-2.7672,-2.7742,-2.7533,-2.6907,-2.6375,-2.5607,-2.4462,-2.4439,-2.4643,-2.5003,-2.5097,-2.5224,-2.5415,-2.5484,-2.5508,-2.5523,-2.5508,-2.5497,-2.5505,-2.5431,-2.5834,-2.6656,-2.6754,-2.7716,-2.9347,-2.9374,-2.9874,-3.0681,-3.07,-3.0703,-3.0703,-3.0706,-3.0736,-3.0791,-3.0772,-3.0739,-3.0691,-3.0691,-3.0736,-3.0791,-3.0791,-3.0847,-3.0898,-3.0898,-3.0894,-3.0889,-3.0827,-3.081,-3.0794,-3.0735,-3.0753,-3.08,-3.08,-3.0797,-3.0801,0.0,0.0,-3.1014,-3.1794,-3.1906,-3.209,-3.2844,-3.3031,-3.3017,-3.2948,-3.3624,-3.4121,-3.4071,-3.4795,-3.5301,-3.5191,-3.5021,-3.4859,-3.4756,-3.4737,-3.4737,-3.4773,-3.4737,-3.468,-3.4602,-3.4623,-3.4624,-3.4718,-3.4718,-3.4775,-3.4831,-3.4831,-3.4831,-3.4812,-3.4831,-3.487,-3.487,-3.4889,-3.4036,-3.2444,-3.0994,-3.0852,-3.1629,-3.1558,-3.1943,-3.2577,-3.2622,-3.2622,-3.2449,-3.0948,-3.0398,-3.0398,0.0,0.0,0.0,0.0,0.0,0.0,0.0,0.0,0.0,-2.71,-2.7324,-2.7183,-2.6417,-2.5826,-2.5255,-2.4748,-2.5226,-2.543,-2.5153,-2.5433,-2.5468,-2.5119,-2.5204,-2.5287,-2.5324,-2.543,-2.5746,-2.6264,-2.6269,-2.6737,-2.7633,-2.8124,-2.8785,-2.9515,-2.9991,-3.0407,-3.0702,-3.0698,-3.0675,-3.064,-3.0637,-3.0683,-3.0736,-3.0736,-3.0722,-3.0719,-3.0732,-3.0777,0.0,-3.0741,-3.0761,-3.0774,-3.0788,-3.0774,-3.0782,-3.0746,-3.0739,-3.0742,-3.0707,-3.0721,-3.0749,-3.0749,-3.0736,-3.0878,-3.1425,-3.1561,-3.1793,-3.2678,-3.282,-3.2904,-3.3234,-3.3691,-3.3985,0.0,-3.4583,-3.5107,-3.5078,-3.5396,-3.5629,-3.5629,-3.5507,-3.5383,-3.5258,-3.5141,-3.5072,-3.5035,-3.5072,-3.5072,-3.5035,-3.5157,-3.5242,-3.5242,-3.5242,-3.5174,-3.5072,-3.5072,-3.5019,-3.4889,-3.5019,-3.5072,-3.5072,-3.5209,-3.4305,-3.2656,-3.2018,-3.1725,-3.1737,-3.2218,-3.2602,-3.2891,-3.2935,-3.2967,-3.28,-3.1602,-3.116,-3.1083,0.0,0.0,0.0,0.0,0.0,0.0,0.0,0.0,0.0,0.0,-2.6775,-2.6568,-2.5671,-2.5214,-2.4935,-2.4741,-2.5445,-2.5746,-2.5353,-2.5819,-2.5919,-2.5494,-2.5596,-2.5688,-2.574,-2.5887,-2.628,-2.6947,-2.6981,-2.7459,-2.8326,-2.8953,-2.9386,-2.9675,-3.0303,-3.0556,-3.054,-3.0594,-3.0586,-3.0549,-3.0579,-3.0625,-3.0672,-3.0697,-3.0703,-3.071,-3.0746,-3.0759,-3.078,-3.0723,-3.0703,-3.0697,-3.0698,-3.0691,-3.0704,-3.0681,-3.0672,-3.0672,-3.0667,-3.0661,-3.0673,-3.0696,-3.0879,-3.1245,-3.1947,-3.2283,-3.2715,-3.3586,-3.3754,-3.3821,-3.4012,-3.4569,-3.4959,-3.4899,-3.539,-3.5745,-3.5702,-3.5693,-3.5693,-3.5693,-3.566,-3.5607,-3.5547,-3.5398,-3.5273,-3.5273,-3.5273,-3.5273,-3.5273,-3.5417,-3.5493,-3.5493,-3.5493,-3.5432,-3.5273,-3.5273,-3.5209,-3.5072,-3.5207,-3.527,-3.5285,-3.5191,-3.4494,-3.3301,-3.3051,-3.2781,-3.2519,-3.3096,-3.3481,-3.368,-3.3724,-3.373,-3.3646,-3.2793,-3.2319,-3.1965,0.0,0.0,0.0,0.0,0.0,0.0,0.0,0.0,0.0,0.0,0.0,0.0,0.0,-2.4736,-2.4545,-2.4076,-2.4397,-2.4945,-2.5619,-2.614,-2.6554,-2.6914,-2.6996,-2.7059,-2.7145,-2.7146,-2.7196,-2.7287,-2.729,-2.7725,-2.8593,-2.8619,-2.9117,-2.9982,-3.0002,-3.0063,-3.0136,-3.0327,-3.0419,-3.043,-3.0546,-3.0595,-3.0617,-3.0685,-3.0704,-3.0692,-3.0703,-3.0704,-3.0694,-3.0704,-3.0704,-3.0704,-3.0704,-3.0704,-3.0684,-3.0626,-3.0607,-3.0607,-3.0588,0.0,-3.0626,-3.0684,-3.1339,-3.1998,-3.2087,-3.2744,-3.3611,-3.4473,-3.4661,-3.492,-3.5757,-3.5932,-3.5942,-3.5875,-3.5889,-3.5846,-3.5729,-3.5693,-3.5693,-3.5693,-3.5693,-3.5706,0.0,-3.5572,-3.5493,-3.5493,-3.5493,-3.5493,-3.5493,-3.5493,-3.5493,-3.5493,-3.5493,-3.5493,-3.5493,-3.5493,-3.5493,-3.5493,-3.5495,-3.5483,-3.5464,-3.4692,-3.4338,-3.4306,-3.3469,-3.36,-3.4424,-3.4443,-3.4918,-3.5622,-3.5622,-3.5618,-3.5514,-3.4711,-3.3843,-3.2952,0.0,0.0,0.0,0.0,0.0,0.0,0.0,0.0,0.0,0.0,0.0,0.0,0.0,0.0,0.0,0.0,-2.5294,-2.5541,-2.5186,-2.5817,-2.6011,-2.5569,-2.595,-2.6292,-2.6514,-2.6674,-2.715,-2.8039,-2.8066,-2.8551,-2.9453,-2.946,-2.9631,-2.9921,-2.9928,-2.9926,-2.9898,-3.0011,-3.0036,-2.9999,-3.009,-3.0218,-3.0312,-3.0202,-3.0254,-3.0352,0.0,-3.0344,-3.0479,-3.0355,-3.0311,-3.0311,-3.0311,-3.0311,-3.0311,-3.0273,-3.0333,0.0,0.0,0.0,-3.0607,-3.0634,-3.1297,-3.2098,-3.2683,-3.3502,-3.4382,-3.5315,-3.5502,-3.5604,-3.5937,-3.5996,-3.5993,-3.5962,-3.5974,-3.5951,-3.5914,-3.5895,-3.5895,-3.5895,-3.5856,0.0,0.0,0.0,0.0,-3.5565,-3.5584,-3.5565,-3.5493,-3.5493,-3.5501,-3.5509,-3.5509,-3.5522,-3.5573,-3.5573,-3.5573,-3.5573,-3.5573,-3.5586,-3.5618,-3.5341,-3.4955,-3.448,-3.471,-3.4695,-3.4539,-3.5075,-3.5474,-3.5697,-3.5756,-3.5765,-3.5743,-3.5516,-3.5223,-3.4756,0.0,0.0,0.0,0.0,0.0,0.0,0.0,0.0,0.0,0.0,0.0,0.0,0.0,0.0,0.0,0.0,0.0,-2.5628,-2.5168,-2.5762,-2.5935,-2.545,-2.5813,-2.6135,-2.6365,-2.6518,-2.6981,-2.782,-2.8054,-2.8477,-2.9081,-2.9193,-2.927,-2.9285,-2.9288,-2.927,-2.927,-2.9382,-2.942,-2.942,-2.9513,-2.9636,-2.9788,-2.967,-2.9702,0.0,-2.9653,-2.9725,-2.9874,-3.0018,-3.0061,-3.0061,-3.0061,-3.0075,-3.0109,0.0,0.0,0.0,0.0,-3.0356,-3.0451,-3.0511,-3.14,-3.2416,-3.306,-3.4112,-3.5132,-3.5734,-3.5869,-3.588,-3.5945,-3.5966,-3.5973,-3.5992,-3.6009,-3.6007,-3.6001,-3.6001,-3.6001,-3.6001,-3.5962,-3.594,0.0,0.0,0.0,-3.5635,-3.5631,-3.5622,-3.5584,-3.5584,-3.5578,-3.5566,-3.5573,-3.5598,-3.5642,-3.5642,-3.5662,-3.5681,-3.5673,-3.5688,-3.5737,-3.5737,-3.5474,-3.5029,-3.5543,-3.5496,-3.5073,-3.5591,-3.5806,-3.5806,-3.5845,-3.5875,-3.5885,-3.5917,-3.5939,-3.5727,0.0,0.0,0.0,0.0,0.0,0.0,0.0,0.0,0.0,0.0,0.0,0.0,0.0,0.0,0.0,0.0,0.0,0.0,-2.5422,-2.5848,-2.6166,-2.6437,-2.6471,-2.6504,-2.6585,-2.6585,-2.665,-2.6747,-2.727,-2.7531,-2.7578,-2.7883,-2.8084,-2.8139,-2.8139,-2.8192,-2.828,-2.8481,-2.8609,-2.8686,-2.882,-2.895,-2.907,-2.9072,-2.9074,-2.9074,-2.8923,-2.8876,-2.8984,-2.9708,-2.9939,0.0,0.0,0.0,0.0,0.0,0.0,-3.0095,-3.0095,-3.0089,-3.015,-3.0352,-3.1611,-3.2891,-3.3132,-3.4506,-3.5726,-3.5787,-3.5807,-3.5813,0.0,0.0,-3.5926,-3.5989,-3.5992,-3.5995,-3.5995,-3.5993,-3.5993,0.0,0.0,0.0,0.0,0.0,0.0,-3.5723,0.0,-3.5701,-3.5707,-3.5707,-3.5707,-3.5707,-3.5714,-3.5712,-3.5705,-3.5705,-3.5732,-3.5809,-3.5821,-3.582,-3.5802,-3.5802,-3.5833,-3.592,-3.592,-3.5937,-3.5996,-3.5996,-3.5996,-3.5996,-3.5996,-3.5996,-3.5996,-3.6006,-3.5993,-3.5883,0.0,0.0,0.0,0.0,0.0,0.0,0.0,0.0,0.0,0.0,0.0,0.0,0.0,0.0,0.0,0.0,0.0,0.0,-2.3563,-2.3967,-2.4209,-2.4315,-2.4563,-2.4882,-2.5137,-2.5137,-2.5435,-2.6051,-2.6302,-2.6614,-2.702,-2.7174,-2.7282,-2.7313,-2.7313,-2.7496,-2.778,-2.7822,-2.8058,-2.8417,-2.8499,-2.8657,-2.8846,-2.8704,-2.875,-2.8868,-2.8675,-2.8597,-2.8646,-2.8924,0.0,0.0,0.0,-2.9754,-2.9789,0.0,0.0,-2.995,-2.995,-3.0022,-3.0122,-3.0163,-3.0994,-3.2019,-3.2855,-3.3862,-3.4823,-3.5629,-3.5763,-3.5754,0.0,0.0,0.0,-3.5857,-3.5844,0.0,-3.5857,-3.5857,0.0,-3.5918,0.0,-3.5948,-3.5994,-3.5991,0.0,0.0,-3.5874,-3.5807,-3.5713,-3.5704,-3.5724,-3.5763,-3.5771,-3.5776,-3.5767,-3.5767,-3.5801,-3.5867,-3.5862,-3.5898,-3.5951,-3.5951,-3.5966,-3.5974,-3.5974,-3.5987,-3.5996,-3.5996,-3.5996,-3.5996,-3.5996,-3.5995,-3.6007,-3.6009,-3.6003,-3.5977,0.0,0.0,0.0,0.0,0.0,0.0,0.0,0.0,0.0,0.0,0.0,0.0,0.0,0.0,0.0,0.0,0.0,0.0,0.0,-2.3522,-2.3535,-2.3535,-2.3761,-2.3853,-2.384,-2.3902,-2.4138,-2.4579,-2.4888,-2.5338,-2.5872,-2.6116,-2.6354,-2.6605,-2.6605,-2.6737,-2.6933,-2.6931,-2.712,0.0,0.0,-2.7688,-2.7895,-2.7984,-2.8094,-2.8165,-2.8166,-2.8156,-2.8166,0.0,0.0,-2.9126,-2.9332,-2.9511,-2.9664,-2.9664,0.0,-2.9806,-2.9806,-2.9874,-2.9934,-3.0011,-3.067,-3.1493,-3.2148,-3.2942,-3.3814,-3.4762,-3.5002,-3.516,-3.5546,-3.5697,-3.5757,0.0,0.0,0.0,-3.5795,-3.5795,-3.5813,0.0,-3.5854,0.0,-3.5916,-3.5916,-3.5914,0.0,-3.5935,-3.5915,-3.5841,-3.5838,-3.5857,-3.5896,-3.5896,-3.588,-3.589,-3.589,-3.5908,-3.5943,-3.5943,-3.597,-3.5996,-3.5996,-3.5996,-3.5996,-3.5996,-3.5986,-3.5968,-3.5968,-3.5935,-3.5901,-3.5901,-3.5901,-3.5901,-3.5901,-3.5901,-3.5901,0.0,0.0,0.0,0.0,0.0,0.0,0.0,0.0,0.0,0.0,0.0,0.0,0.0,0.0,0.0,0.0,0.0,0.0,0.0,0.0,-2.3465,-2.3421,-2.3421,-2.3172,-2.2716,-2.2743,-2.2812,-2.2876,-2.3377,-2.3899,-2.4489,-2.4839,-2.5293,-2.5783,-2.5799,-2.5835,-2.5892,-2.5944,-2.5999,-2.6142,-2.6386,-2.6556,-2.6691,0.0,-2.7293,-2.7324,-2.7522,-2.7642,-2.7701,0.0,-2.8402,-2.8906,-2.8997,-2.9251,-2.9491,-2.9531,-2.955,-2.9626,-2.9664,-2.9664,-2.9682,-2.9841,-3.0438,-3.1073,-3.1306,-3.1962,-3.2726,-3.3578,-3.3949,-3.4372,-3.5072,-3.5442,-3.5687,-3.5736,0.0,-3.5785,-3.5792,-3.5781,-3.5781,-3.5781,-3.5788,-3.5788,-3.5807,-3.5807,-3.5807,-3.5807,-3.5907,-3.5972,-3.5975,-3.5975,-3.5975,-3.5975,-3.5975,-3.5975,-3.5975,-3.5975,-3.5975,-3.5975,-3.5975,-3.5975,-3.5975,-3.5975,-3.5975,-3.5975,-3.5975,-3.5942,-3.5892,-3.5899,-3.5853,-3.5807,-3.5807,-3.5807,-3.5807,-3.5807,-3.5807,-3.5807,0.0,0.0,0.0,0.0,0.0,0.0,0.0,0.0,0.0,0.0,0.0,0.0,0.0,0.0,0.0,0.0,0.0,0.0,0.0,0.0,0.0,-2.2449,-2.2449,-2.2203,-2.1657,-2.167,-2.1902,-2.232,-2.2466,-2.2831,-2.3318,-2.3706,-2.3933,-2.4032,-2.4271,-2.4527,-2.48,-2.5051,-2.5416,-2.5826,-2.6125,-2.6333,-2.6454,-2.6556,0.0,0.0,-2.7053,-2.7261,-2.7465,-2.7509,-2.7897,-2.8394,-2.8603,-2.8772,-2.8888,-2.9126,-2.9126,-2.9126,-2.9511,-2.9531,-2.9511,-2.9701,-2.9851,-3.0167,-3.1029,-3.1347,0.0,0.0,-3.3451,-3.3991,-3.414,-3.487,-3.5464,-3.5464,-3.5608,-3.5715,-3.5723,-3.5723,-3.5723,0.0,-3.5716,-3.5747,-3.5786,-3.5805,0.0,0.0,-3.5815,-3.5823,-3.5836,-3.5841,-3.5841,-3.5841,-3.5841,-3.5841,-3.5841,-3.5841,-3.5841,-3.5841,-3.5841,-3.5841,-3.5841,-3.5841,-3.5841,-3.5841,-3.5841,0.0,-3.5827,-3.5825,-3.5813,-3.5805,-3.5805,-3.5805,-3.5805,-3.5805,-3.5805,-3.5805,0.0,0.0,0.0,0.0,0.0,0.0,0.0,0.0,0.0,0.0,0.0,0.0,0.0,0.0,0.0,0.0,0.0,0.0,0.0,0.0,0.0,0.0,0.0,0.0,-2.1423,-2.1423,-2.152,-2.1793,0.0,-2.2095,-2.262,-2.2965,-2.329,-2.3595,-2.3882,-2.4094,-2.4256,-2.442,-2.4608,-2.4855,-2.5297,-2.5427,-2.5335,0.0,0.0,0.0,0.0,0.0,-2.6873,-2.6873,-2.7192,-2.7707,-2.8192,-2.8478,-2.8676,-2.8795,-2.8819,-2.8865,-2.9148,-2.9126,-2.9104,-2.9314,-2.9414,-2.9567,-3.0133,0.0,0.0,0.0,-3.2145,-3.2746,-3.3587,-3.4228,0.0,-3.5315,-3.5477,-3.5577,-3.5693,-3.5704,-3.5704,-3.5704,-3.5704,-3.5704,-3.5742,-3.5742,-3.5742,-3.5742,-3.5742,-3.5756,-3.5791,-3.5799,-3.5799,-3.5799,-3.5799,-3.5799,-3.5799,-3.5799,-3.5799,-3.5799,-3.5799,-3.5799,-3.5799,-3.5799,-3.5799,-3.5799,-3.5799,-3.5771,-3.5752,-3.5746,-3.5742,-3.5742,-3.5742,-3.5742,-3.5742,-3.5712,-3.5712,-3.5742,0.0,0.0,0.0,0.0,0.0,0.0,0.0,0.0,0.0,0.0,0.0,0.0,0.0,0.0,0.0,0.0,0.0,0.0,0.0,0.0,0.0,0.0,0.0,0.0,0.0,0.0,0.0,0.0,-2.1423,0.0,0.0,0.0,0.0,0.0,-2.3668,-2.3769,-2.3769,-2.3839,-2.3882,0.0,0.0,-2.4467,0.0,0.0,0.0,0.0,0.0,0.0,-2.6229,-2.6298,-2.659,-2.7036,-2.7554,-2.8039,-2.8402,-2.8428,-2.8478,-2.8578,-2.8772,-2.8748,-2.87,-2.8934,-2.9082,-2.9166,-2.923,-2.9453,0.0,-3.0412,-3.0866,-3.1519,-3.2769,-3.346,-3.4082,0.0,-3.5172,-3.5364,-3.5521,-3.5553,-3.5553,0.0,-3.5553,0.0,-3.5553,-3.5553,0.0,-3.5565,-3.5565,-3.5628,-3.5762,-3.5781,-3.5781,-3.5781,-3.5781,-3.5781,-3.5781,-3.5781,-3.5781,-3.5781,-3.5781,-3.5781,-3.5781,-3.5781,-3.5781,-3.5781,-3.5781,-3.5742,-3.5704,-3.5704,-3.5684,-3.5673,-3.5673,-3.5662,-3.5608,-3.5589,-3.5577,-3.5553,0.0,0.0,0.0,0.0,0.0,0.0,0.0,0.0,0.0,0.0,0.0,0.0,0.0,0.0,0.0,0.0,0.0,0.0,0.0,0.0,0.0,0.0,0.0,0.0,0.0,0.0,0.0,0.0,0.0,0.0,0.0,0.0,0.0,0.0,0.0,0.0,-2.3023,-2.3348,0.0,0.0,0.0,0.0,0.0,0.0,0.0,0.0,0.0,0.0,0.0,0.0,0.0,-2.6488,-2.6539,-2.7112,-2.78,-2.7869,0.0,0.0,-2.8522,-2.8529,-2.8478,-2.8676,-2.8842,-2.8888,-2.8795,0.0,-2.9411,-2.9384,-3.0183,-3.096,-3.1052,-3.243,-3.3563,-3.3658,-3.4432,-3.503,-3.5062,-3.5059,-3.5059,-3.5059,0.0,0.0,-3.5059,-3.5059,-3.5095,-3.5146,-3.5162,-3.5321,-3.5693,-3.5704,-3.5704,-3.5704,-3.5704,-3.5704,-3.5704,-3.5704,-3.5704,-3.5704,-3.5704,-3.5704,-3.5704,-3.5704,-3.5704,-3.5704,-3.5704,-3.5704,0.0,-3.5704,-3.5654,-3.5612,-3.5612,-3.5496,-3.536,-3.5534,-3.5355,-3.5119,0.0,0.0,0.0,0.0,0.0,0.0,0.0,0.0,0.0,0.0,0.0,0.0,0.0,0.0,0.0,0.0,0.0,0.0,0.0,0.0,0.0,0.0,0.0,0.0,0.0,0.0,0.0,0.0,0.0,0.0,0.0,0.0,0.0,0.0,0.0,0.0,0.0,0.0,0.0,0.0,0.0,0.0,0.0,0.0,0.0,0.0,0.0,0.0,0.0,0.0,0.0,0.0,-2.5721,-2.6264,0.0,0.0,-2.7258,-2.7461,-2.7707,-2.7783,-2.784,-2.8102,-2.8324,-2.8478,-2.8504,0.0,-2.8975,-2.8906,-2.9407,-2.9946,-3.0429,-3.1231,-3.2239,-3.3317,-3.3828,0.0,-3.4902,-3.4996,-3.4996,-3.4996,-3.4996,0.0,0.0,0.0,-3.5013,-3.5049,-3.5049,-3.5117,-3.5262,-3.5321,-3.535,-3.535,-3.535,-3.535,-3.535,-3.535,-3.535,-3.535,-3.535,-3.5316,-3.5268,-3.5268,-3.5273,-3.5277,-3.5277,-3.5277,0.0,-3.5277,-3.5262,-3.5228,-3.5228,-3.52,-3.5119,-3.5149,-3.51,-3.5015,0.0,0.0,0.0,0.0,0.0,0.0,0.0,0.0,0.0,0.0,0.0,0.0,0.0,0.0,0.0,0.0,0.0,0.0,0.0,0.0,0.0,0.0,0.0,0.0,0.0,0.0,0.0,-2.1423,-2.1423,0.0,0.0,0.0,0.0,0.0,0.0,0.0,0.0,0.0,0.0,0.0,0.0,0.0,0.0,0.0,0.0,0.0,0.0,0.0,0.0,0.0,0.0,0.0,0.0,0.0,0.0,0.0,-2.6725,-2.6923,-2.7103,-2.7198,-2.7355,-2.7612,-2.78,-2.7964,0.0,0.0,-2.8529,-2.8554,-2.8772,-2.9163,-2.9802,-3.0305,-3.1094,-3.2444,-3.3047,-3.3615,-3.4339,-3.4642,-3.4793,-3.4793,0.0,-3.4793,-3.4793,-3.4813,-3.4813,-3.4813,-3.4813,-3.4813,-3.4813,-3.487,-3.4961,-3.5064,-3.5064,-3.5064,-3.5064,-3.5064,-3.5064,-3.5064,-3.5064,-3.5047,-3.4994,-3.4994,-3.4996,-3.4997,-3.4997,-3.4997,0.0,-3.4997,-3.498,-3.498,-3.498,-3.4925,-3.4889,-3.4889,-3.4851,-3.4793,0.0,0.0,0.0,0.0,0.0,0.0,0.0,0.0,0.0,0.0,0.0,0.0,0.0,0.0,0.0,0.0,0.0,0.0,0.0,0.0,0.0,0.0,0.0,0.0,0.0,0.0,-2.1423,-2.1423,-2.1423,-2.1568,-2.1793,0.0,0.0,0.0,0.0,0.0,0.0,0.0,0.0,0.0,0.0,0.0,0.0,0.0,0.0,0.0,0.0,0.0,0.0,0.0,0.0,0.0,0.0,0.0,-2.4997,0.0,-2.6487,-2.6758,-2.694,-2.7006,-2.707,-2.7341,-2.7293,-2.7307,0.0,0.0,-2.8129,-2.8183,-2.8478,-2.8772,-2.8971,-2.9715,-3.0374,-3.0593,-3.1972,-3.3036,-3.3101,-3.3813,-3.4316,0.0,0.0,-3.4316,-3.4316,-3.4363,-3.4404,-3.4404,-3.4404,0.0,-3.4404,-3.4427,-3.4588,-3.498,-3.4997,-3.4997,-3.4997,-3.4997,-3.4997,-3.4997,-3.4997,-3.4997,-3.4997,-3.4997,-3.4997,-3.4997,-3.4997,-3.4997,0.0,-3.4997,-3.4962,-3.4906,-3.4906,-3.4774,-3.4626,-3.4831,-3.4609,-3.4274,0.0,0.0,0.0,0.0,0.0,0.0,0.0,0.0,0.0,0.0,0.0,0.0,0.0,0.0,0.0,0.0,0.0,0.0,0.0,0.0,0.0,0.0,0.0,0.0,0.0,0.0,-2.1423,-2.1423,-2.1423,-2.1616,-2.2091,-2.2184,-2.2417,0.0,0.0,0.0,0.0,0.0,0.0,0.0,0.0,0.0,0.0,0.0,0.0,0.0,0.0,0.0,0.0,0.0,0.0,0.0,0.0,0.0,0.0,-2.4799,0.0,0.0,-2.6225,-2.6486,-2.6742,-2.6825,-2.6957,-2.7103,-2.7181,-2.743,-2.7642,-2.7642,-2.7992,-2.8324,-2.8376,-2.8771,-2.9466,-3.0629,-3.1232,-3.2041,0.0,0.0,0.0,-3.3947,-3.377,-3.3616,0.0,0.0,-3.3643,-3.3643,-3.3643,-3.3643,-3.3643,-3.3643,-3.3943,-3.4567,-3.4588,-3.4588,-3.4588,-3.4588,-3.4588,-3.4588,-3.4588,-3.4567,-3.4505,-3.4505,-3.4483,-3.4461,-3.4461,-3.4461,-3.4461,-3.4461,-3.4439,-3.4473,-3.5071,-3.5268,-3.5291,-3.5904,-3.6037,-3.5838,0.0,0.0,0.0,0.0,0.0,0.0,0.0,0.0,0.0,0.0,0.0,0.0,0.0,0.0,0.0,0.0,0.0,0.0,0.0,0.0,0.0,0.0,0.0,0.0,0.0,-2.1423,-2.1423,-2.1423,-2.1423,-2.1568,-2.1902,-2.2137,-2.237,-2.2661,-2.2797,0.0,0.0,0.0,0.0,0.0,0.0,0.0,-2.3127,0.0,0.0,0.0,0.0,0.0,0.0,0.0,0.0,0.0,0.0,0.0,0.0,0.0,0.0,0.0,0.0,-2.6063,-2.6468,-2.6572,-2.6674,0.0,0.0,-2.7038,-2.7152,-2.7373,-2.7642,-2.7897,-2.8075,-2.8246,-2.8809,-3.018,-3.0658,-3.1392,0.0,0.0,0.0,-3.3578,0.0,0.0,0.0,-3.3291,-3.3291,-3.3291,-3.3291,-3.3291,-3.3291,-3.3291,-3.3504,-3.3961,-3.3986,-3.3986,-3.3986,-3.4105,-3.4105,-3.3986,-3.4221,-3.4245,-3.4124,-3.4221,-3.4245,-3.4197,-3.4197,-3.4197,0.0,-3.4197,-3.4383,-3.4736,-3.5274,-3.5683,-3.5999,-3.6519,-3.6686,-3.663,0.0,0.0,0.0,0.0,0.0,0.0,0.0,0.0,0.0,0.0,0.0,0.0,0.0,0.0,0.0,0.0,0.0,0.0,0.0,0.0,0.0,0.0,0.0,0.0,0.0,-2.1423,-2.1423,-2.1423,-2.1423,-2.1423,-2.1423,-2.1949,-2.2231,-2.2231,-2.2706,-2.2888,0.0,0.0,0.0,0.0,0.0,0.0,0.0,0.0,0.0,0.0,0.0,0.0,0.0,0.0,0.0,0.0,0.0,0.0,0.0,0.0,0.0,0.0,0.0,0.0,0.0,0.0,0.0,0.0,0.0,0.0,0.0,-2.7247,-2.7373,-2.7491,-2.7936,-2.8055,-2.8413,-2.943,-3.023,0.0,0.0,-3.2649,0.0,0.0,-3.3184,0.0,-3.3232,-3.3232,-3.3214,-3.3232,-3.3232,-3.3232,-3.3232,-3.3232,-3.3232,-3.3232,-3.3232,-3.3262,-3.3291,-3.3625,-3.3625,-3.3321,-3.3858,-3.4023,-3.3762,-3.4005,-3.4148,0.0,-3.4173,-3.4173,-3.4148,-3.4247,-3.473,-3.5447,-3.5583,-3.6085,-3.6727,-3.6809,-3.6846,-3.6827,0.0,0.0,0.0,0.0,0.0,0.0,0.0,0.0,0.0,0.0,0.0,0.0,0.0,0.0,0.0,0.0,0.0,0.0,0.0,0.0,0.0,0.0,0.0,0.0,0.0,-2.1423,-2.1423,-2.1423,-2.1423,-2.152,-2.1712,-2.2044,-2.2324,-2.2509,-2.2797,-2.2888,0.0,0.0,0.0,0.0,0.0,0.0,0.0,0.0,0.0,0.0,-2.4291,-2.4009,0.0,0.0,0.0,0.0,0.0,0.0,0.0,0.0,-2.348,0.0,0.0,0.0,0.0,0.0,0.0,0.0,0.0,0.0,0.0,0.0,0.0,0.0,0.0,0.0,-2.8115,-2.9124,0.0,-3.0905,-3.2307,0.0,0.0,-3.2488,-3.2283,-3.2214,-3.242,-3.23,-3.2352,-3.259,-3.259,-3.259,-3.259,-3.259,-3.259,-3.259,-3.259,-3.2816,-3.3291,-3.3379,-3.3379,-3.3291,-3.3447,-3.3476,-3.3408,-3.3476,-3.3504,-3.3532,-3.377,-3.3743,-3.3587,-3.4752,-3.4998,-3.4882,-3.6376,-3.6886,-3.6875,-3.7819,-3.8147,-3.8103,0.0,0.0,0.0,0.0,0.0,0.0,0.0,0.0,0.0,0.0,0.0,0.0,0.0,0.0,0.0,0.0,0.0,0.0,0.0,0.0,0.0,0.0,0.0,-2.1423,-2.1423,-2.1423,-2.1423,-2.1423,-2.1423,-2.1471,-2.1616,-2.1902,-2.2091,-2.2231,-2.2463,-2.2661,0.0,0.0,0.0,0.0,-2.2888,0.0,0.0,0.0,0.0,0.0,-2.425,-2.4009,0.0,-2.345,-2.3392,-2.3334,0.0,0.0,0.0,0.0,-2.3098,0.0,0.0,0.0,0.0,0.0,0.0,0.0,0.0,0.0,0.0,0.0,0.0,0.0,0.0,0.0,0.0,0.0,-2.9462,0.0,0.0,0.0,-3.1771,-3.1694,-3.1562,-3.1579,0.0,-3.1765,-3.1802,-3.1965,-3.1982,-3.1982,-3.1982,-3.2108,-3.2179,-3.2179,-3.2319,-3.2541,-3.288,-3.3019,-3.3019,-3.288,-3.3172,-3.3214,-3.3093,-3.3214,-3.3291,-3.3339,-3.3894,-3.4029,-3.3936,-3.5089,-3.5549,-3.5675,-3.6703,-3.7235,-3.7486,-3.815,-3.8378,-3.8337,0.0,0.0,0.0,0.0,0.0,0.0,0.0,0.0,0.0,0.0,0.0,0.0,0.0,0.0,0.0,0.0,0.0,0.0,0.0,0.0,0.0,0.0,0.0,-2.1423,-2.1423,-2.1423,-2.1423,-2.1423,-2.1423,-2.1423,-2.1423,-2.1664,-2.1793,-2.1841,-2.2091,-2.237,0.0,0.0,0.0,0.0,-2.2978,0.0,0.0,0.0,0.0,0.0,0.0,0.0,0.0,-2.3421,-2.3566,-2.3726,-2.3112,0.0,0.0,0.0,0.0,0.0,0.0,0.0,-2.4415,-2.4879,-2.4997,-2.5114,0.0,0.0,0.0,0.0,0.0,0.0,0.0,-2.6856,0.0,0.0,0.0,0.0,-3.0501,-3.0633,-3.0794,-3.0988,-3.1004,0.0,-3.1351,-3.1334,-3.1389,-3.1428,-3.1466,-3.1504,-3.1504,-3.1728,-3.1821,-3.1821,-3.2108,-3.2284,-3.2284,-3.2588,-3.2621,-3.2406,-3.2912,-3.3001,-3.2749,-3.305,-3.3226,-3.3388,-3.4104,0.0,-3.4614,-3.5435,-3.6107,-3.6654,-3.6847,-3.7334,-3.7931,-3.8,-3.8,-3.798,0.0,0.0,0.0,0.0,0.0,0.0,0.0,0.0,0.0,0.0,0.0,0.0,0.0,0.0,0.0,0.0,0.0,0.0,0.0,0.0,0.0,0.0,-2.1423,-2.1423,-2.1423,-2.1423,-2.1423,-2.1423,-2.1423,-2.1423,-2.1423,-2.1664,-2.1949,-2.2137,-2.2184,-2.237,-2.2615,-2.2615,-2.2859,-2.3334,-2.3334,0.0,0.0,0.0,0.0,0.0,0.0,0.0,0.0,-2.3023,-2.3023,-2.3068,-2.2947,0.0,0.0,0.0,0.0,0.0,-2.2509,-2.2512,-2.2935,-2.4147,-2.4426,-2.4492,-2.4719,-2.5013,0.0,0.0,0.0,0.0,0.0,-2.6534,-2.7494,0.0,0.0,-3.0451,0.0,0.0,-3.0608,-3.0666,0.0,-3.0452,-3.0707,-3.0747,-3.0885,-3.1123,-3.1372,-3.1504,-3.1504,-3.1542,-3.1542,-3.1542,-3.1634,-3.1634,-3.1634,-3.2179,-3.2457,-3.2406,-3.2473,-3.2507,-3.2473,-3.2507,-3.2894,-3.3511,0.0,-3.43,-3.4765,-3.6101,-3.6342,-3.6035,-3.7041,-3.7306,-3.7185,-3.7487,-3.7578,-3.7453,0.0,0.0,0.0,0.0,0.0,0.0,0.0,0.0,0.0,0.0,0.0,0.0,0.0,0.0,0.0,0.0,0.0,0.0,0.0,0.0,0.0,-2.1423,-2.1423,-2.1423,-2.1423,-2.1423,-2.1423,-2.1423,-2.1423,-2.1423,-2.1423,-2.152,-2.1664,-2.1746,-2.1949,-2.2137,-2.2417,-2.2737,-2.3068,-2.3406,0.0,0.0,0.0,0.0,0.0,0.0,0.0,0.0,0.0,0.0,-2.2752,-2.2509,-2.2509,0.0,0.0,0.0,0.0,0.0,-2.217,-2.2016,-2.1974,-2.256,-2.3157,-2.3752,-2.4214,-2.4599,0.0,0.0,0.0,0.0,0.0,0.0,-2.7273,-2.8279,0.0,-2.9793,-2.9793,-2.9793,-2.9837,0.0,0.0,-2.9897,-3.014,-3.0309,-3.0452,-3.0617,-3.0838,-3.0958,-3.0958,-3.1117,-3.1252,-3.1252,-3.1781,-3.2047,-3.2047,-3.2689,-3.2668,-3.191,-3.2291,-3.2572,-3.2806,-3.3188,-3.3646,-3.4179,0.0,-3.5098,-3.5392,-3.645,-3.6712,-3.6517,-3.7044,-3.7147,-3.7009,-3.7185,-3.694,-3.6447,0.0,0.0,0.0,0.0,0.0,0.0,0.0,0.0,0.0,0.0,0.0,0.0,0.0,0.0,0.0,0.0,0.0,0.0,0.0,0.0,-2.1423,-2.1423,-2.1423,-2.1423,-2.1423,-2.1423,-2.1423,-2.1423,-2.1423,-2.1423,-2.1423,-2.1423,-2.1423,-2.152,-2.1712,-2.1996,-2.2324,-2.2859,-2.3246,-2.3595,0.0,0.0,0.0,0.0,0.0,0.0,0.0,0.0,0.0,0.0,0.0,0.0,0.0,0.0,0.0,-2.1732,-2.1623,-2.1465,-2.1732,-2.1527,-2.1224,-2.1369,0.0,-2.295,-2.3537,-2.4006,0.0,0.0,0.0,0.0,0.0,-2.5817,0.0,-2.8576,-2.8873,-2.892,-2.8826,-2.892,-2.9013,-2.9227,-2.9273,-2.9364,-2.9633,-2.987,-3.006,-3.0087,-3.0258,-3.0384,-3.0468,-3.0634,-3.084,-3.1146,-3.183,-3.2307,-3.2557,-3.3109,-3.2904,-3.1995,-3.2502,-3.2894,-3.3235,-3.3878,-3.4436,-3.4874,-3.5528,-3.5917,-3.6145,-3.6742,-3.6987,-3.6987,-3.6987,-3.6987,-3.6987,-3.6987,-3.6373,-3.5478,0.0,0.0,0.0,0.0,0.0,0.0,0.0,0.0,0.0,0.0,0.0,0.0,0.0,0.0,0.0,0.0,0.0,0.0,0.0,0.0,-2.1423,-2.1423,-2.1423,-2.1423,-2.1423,-2.1423,-2.1423,-2.1423,-2.1423,-2.1423,-2.1423,-2.1423,-2.152,-2.1746,-2.1793,-2.2091,-2.2601,-2.2949,-2.3436,-2.3982,-2.4333,0.0,0.0,0.0,0.0,0.0,0.0,0.0,0.0,0.0,0.0,0.0,0.0,0.0,-2.1321,-2.0858,-2.1042,-2.1321,-2.0858,-2.0709,-2.0795,-2.1272,-2.1813,-2.2263,-2.231,-2.3024,0.0,-2.3493,0.0,0.0,0.0,-2.597,-2.7109,-2.7841,-2.8304,-2.8415,-2.8061,0.0,-2.8559,-2.8559,-2.8559,-2.8716,-2.9121,-2.938,-2.9649,-2.981,-2.9837,-3.0027,-3.0468,-3.0113,-3.0424,-3.152,-3.1473,-3.1803,-3.2685,-3.2752,-3.3007,-3.3434,-3.3485,-3.356,-3.356,-3.4002,-3.4597,-3.5278,-3.5622,-3.6233,-3.69,-3.697,-3.6987,-3.6987,-3.6987,-3.6987,-3.6987,-3.6987,-3.6039,-3.4758,0.0,0.0,0.0,0.0,0.0,0.0,0.0,0.0,0.0,0.0,0.0,0.0,0.0,0.0,0.0,0.0,0.0,0.0,0.0,0.0,-2.1423,-2.1423,-2.1423,-2.1423,-2.1423,-2.1423,-2.1423,-2.1423,-2.1423,-2.1423,-2.1423,-2.1568,-2.1712,-2.1793,-2.2137,-2.2555,-2.2949,-2.3451,-2.3925,-2.4333,-2.4686,-2.4701,0.0,0.0,0.0,0.0,0.0,0.0,0.0,0.0,-2.2077,-2.1396,-2.1286,-2.0832,-2.0295,-2.0346,-2.0245,-2.0207,-2.0409,-2.022,-2.0055,-2.0346,-2.0795,0.0,0.0,-2.2114,-2.2469,-2.268,-2.3194,0.0,0.0,0.0,-2.7375,-2.7819,-2.8012,-2.8061,-2.7898,-2.8012,-2.811,-2.811,-2.811,-2.8255,-2.8669,-2.8748,-2.8889,-2.9227,-2.9166,-2.9196,-2.9377,-2.9838,-3.0298,-3.0755,-3.1984,-3.2774,-3.3129,-3.373,-3.4193,-3.4404,-3.3935,-3.3832,-3.4066,-3.4686,-3.5198,-3.5693,-3.5835,-3.6032,-3.6308,-3.6308,-3.6308,-3.6308,-3.6308,-3.6308,-3.6298,-3.6052,-3.5257,-3.4356,0.0,0.0,0.0,0.0,0.0,0.0,0.0,0.0,0.0,0.0,0.0,0.0,0.0,0.0,0.0,0.0,0.0,0.0,-2.1423,-2.1423,-2.1423,-2.1423,-2.1423,-2.1423,-2.1423,-2.1423,-2.1423,-2.1423,-2.1423,-2.1423,-2.1423,-2.1616,-2.1746,-2.1949,-2.2402,-2.2859,-2.326,-2.3882,-2.4291,-2.4539,-2.4862,-2.4846,0.0,0.0,0.0,0.0,0.0,0.0,0.0,0.0,-2.1983,-2.1068,-2.1006,-2.0308,-1.9617,-1.985,-1.9708,-1.9565,-2.0016,-1.9914,-1.9708,-1.9798,0.0,0.0,-2.093,-2.1342,-2.1724,-2.1988,-2.2692,-2.3787,-2.561,0.0,0.0,0.0,-2.768,-2.768,-2.758,-2.768,-2.773,-2.773,-2.773,-2.7879,-2.8255,-2.8255,-2.8304,-2.8701,-2.8543,-2.8543,-2.8685,-2.9437,-3.01,-3.0625,-3.2128,-3.321,-3.3743,-3.4444,-3.4804,-3.4883,-3.4386,-3.4276,-3.4504,-3.5143,-3.5543,-3.5732,-3.5864,-3.5907,-3.5907,-3.5907,-3.5907,-3.5907,-3.5907,-3.577,-3.554,-3.5253,-3.4542,-3.3667,0.0,0.0,0.0,0.0,0.0,0.0,0.0,0.0,0.0,0.0,0.0,0.0,0.0,0.0,0.0,0.0,0.0,0.0,-2.1437,-2.1423,-2.1423,-2.1423,-2.1423,-2.1423,-2.1423,-2.1423,-2.1423,-2.1423,-2.1423,-2.1423,-2.1423,-2.1423,-2.1712,-2.2231,-2.2572,-2.2965,-2.345,-2.4177,-2.4498,-2.4539,-2.4862,-2.5005,-2.5005,0.0,0.0,0.0,0.0,0.0,0.0,0.0,-2.1396,-2.0422,-2.0422,-1.9914,-1.942,-1.942,-1.946,-1.9604,-1.9617,-1.9708,-1.9798,0.0,0.0,0.0,-1.9798,-2.0733,-2.1561,-2.1431,-2.2346,-2.3521,-2.4721,-2.5458,0.0,-2.6674,-2.7144,-2.7248,-2.6832,-2.7144,-2.7401,-2.7401,-2.7401,-2.7524,-2.7864,-2.7898,-2.7997,-2.824,-2.8046,-2.8094,-2.8638,-2.8817,-2.9658,-3.1324,-3.1804,-3.2806,-3.4431,-3.4497,-3.4643,-3.4899,-3.4899,-3.4899,-3.4899,-3.5241,-3.5379,-3.5424,-3.5732,-3.589,-3.5907,-3.5907,-3.5907,-3.5907,-3.589,-3.5463,-3.4873,-3.4873,-3.3898,-3.2655,0.0,0.0,0.0,0.0,0.0,0.0,0.0,0.0,0.0,0.0,0.0,0.0,0.0,0.0,0.0,0.0,0.0,0.0,-2.1437,-2.1423,-2.1423,-2.1423,-2.1423,-2.1423,-2.1423,-2.1423,-2.1423,-2.1423,-2.1423,-2.1423,-2.1423,-2.1616,-2.1746,-2.1949,-2.2402,-2.2994,-2.3551,-2.3967,-2.44,-2.4862,-2.4966,-2.5005,-2.5005,0.0,0.0,0.0,0.0,0.0,0.0,0.0,0.0,0.0,-2.061,-1.9965,-1.9223,-1.9158,-1.9146,-1.9198,-1.9263,-1.942,0.0,-1.9512,0.0,0.0,0.0,-2.0003,0.0,0.0,-2.2669,-2.3552,-2.4723,-2.5466,0.0,-2.6111,-2.6606,-2.6937,-2.6832,-2.6884,-2.6989,-2.6989,-2.6989,-2.713,-2.7524,-2.7321,-2.7269,-2.7625,-2.7306,-2.7218,-2.7357,-2.8584,-2.9501,-3.0,-3.1459,-3.2462,-3.2917,-3.3459,-3.3767,-3.3869,-3.4168,-3.4448,-3.4594,-3.4739,-3.4675,-3.448,-3.461,-3.4738,-3.4944,-3.5131,-3.5195,-3.5144,-3.4609,-3.432,-3.4019,-3.322,-3.2645,-3.2229,0.0,0.0,0.0,0.0,0.0,0.0,0.0,0.0,0.0,0.0,0.0,0.0,0.0,0.0,0.0,0.0,0.0,0.0,0.0,-2.1526,-2.1423,-2.1423,-2.1423,-2.1423,-2.1423,-2.1423,-2.1423,-2.1423,-2.1423,-2.1423,-2.1423,-2.1568,-2.1746,-2.1996,-2.2449,-2.3083,-2.3782,-2.4067,-2.4523,-2.5005,-2.5005,-2.5005,-2.5005,0.0,0.0,0.0,0.0,0.0,0.0,0.0,0.0,0.0,-2.066,-1.9914,-1.9105,-1.8999,-1.9052,-1.9105,-1.917,-1.9328,0.0,-1.942,-1.9512,-1.9604,-1.9565,0.0,0.0,0.0,-2.2463,-2.3226,-2.4393,-2.4921,0.0,-2.5481,-2.5879,-2.6096,-2.6096,-2.6272,-2.6447,-2.6447,-2.6674,-2.6884,-2.7144,-2.6937,-2.6884,-2.7144,-2.6937,-2.6779,-2.6779,-2.8008,-2.8916,-2.9401,-3.0744,-3.1784,-3.2266,-3.2917,-3.3287,-3.3391,-3.3681,-3.3968,-3.4201,-3.43,-3.425,-3.4101,-3.4201,-3.4349,-3.4497,-3.4804,-3.4899,-3.4816,-3.4087,-3.3607,-3.3255,-3.225,-3.1717,-3.1441,0.0,0.0,0.0,0.0,0.0,0.0,0.0,0.0,0.0,0.0,-2.4302,0.0,0.0,0.0,0.0,0.0,0.0,0.0,0.0,0.0,-2.1458,-2.1471,-2.1423,-2.1423,-2.1423,-2.1471,-2.1471,-2.1471,-2.1423,-2.1423,-2.1423,-2.1423,-2.1712,-2.2231,-2.2572,-2.3201,-2.3982,-2.4374,-2.4701,-2.5005,-2.5005,-2.5005,-2.5005,-2.5005,0.0,0.0,0.0,0.0,0.0,0.0,0.0,0.0,-2.056,-1.985,-1.904,-1.8987,-1.9117,-1.917,-1.9117,0.0,0.0,-1.9251,-1.9316,0.0,-1.942,-2.0089,-2.0878,-2.1393,0.0,-2.2647,-2.3794,-2.4073,-2.4292,-2.4851,-2.4951,-2.5007,-2.5007,-2.5481,-2.5839,-2.5839,-2.6272,-2.6674,-2.6727,-2.6727,-2.6727,-2.6779,-2.6779,-2.6779,-2.6779,-2.7389,-2.8177,-2.9317,-2.9941,-3.0848,-3.2155,-3.261,-3.2986,-3.3235,-3.3235,-3.3371,-3.3539,-3.3848,-3.4,-3.405,-3.4349,-3.4448,-3.4497,-3.4804,-3.4849,-3.4717,-3.3988,-3.3243,-3.2497,-3.1785,-3.1064,-3.0551,0.0,0.0,0.0,0.0,0.0,0.0,0.0,0.0,0.0,0.0,0.0,0.0,0.0,0.0,0.0,0.0,0.0,0.0,0.0,0.0,-2.2053,-2.2044,-2.1616,-2.1423,-2.1423,-2.1793,-2.2044,-2.2044,-2.1616,-2.152,-2.1712,-2.1712,-2.1902,-2.2217,-2.2768,-2.3246,-2.3739,-2.4276,-2.4701,-2.5005,-2.5005,-2.5005,-2.5005,-2.5005,-2.4766,0.0,0.0,0.0,0.0,0.0,0.0,0.0,-2.0472,-1.9914,-1.9408,-1.9093,-1.8999,-1.8934,0.0,-1.8429,0.0,0.0,-1.8827,-1.9275,-1.9368,-2.0224,-2.1008,-2.1313,-2.1773,-2.2368,-2.3144,-2.378,-2.4118,-2.4292,-2.4681,-2.5007,-2.5007,-2.5133,-2.5189,-2.5189,-2.53,-2.5591,-2.6056,-2.6111,-2.6286,-2.6779,-2.6779,-2.6779,-2.6779,-2.7389,-2.8068,-2.882,-2.9462,-3.0148,-3.0955,-3.1422,-3.1709,-3.1766,-3.2089,-3.2256,-3.2327,-3.2949,-3.3351,-3.3503,-3.4,-3.4201,-3.4201,-3.4691,-3.4551,-3.3955,-3.321,-3.2481,-3.1769,-3.1023,-3.0659,-3.051,0.0,0.0,0.0,0.0,0.0,0.0,0.0,0.0,0.0,0.0,0.0,0.0,0.0,0.0,0.0,0.0,0.0,0.0,0.0,0.0,-2.2529,-2.254,-2.2249,-2.2109,-2.2109,-2.217,-2.2184,-2.2184,-2.1949,-2.1888,-2.2109,-2.1888,-2.2077,-2.2632,-2.2949,-2.3436,-2.4051,-2.4374,-2.4701,-2.5005,-2.5005,-2.5005,-2.5005,-2.5005,-2.4886,-2.4686,-2.4482,0.0,0.0,0.0,0.0,0.0,0.0,0.0,-1.9512,-1.9093,-1.8987,0.0,0.0,0.0,0.0,-1.8093,0.0,-1.8429,-1.904,-1.9583,-2.0041,-2.0517,-2.1624,-2.2573,-2.2967,-2.3305,-2.3603,-2.3603,-2.3884,-2.4105,-2.4105,-2.4394,-2.4567,-2.4567,-2.4851,-2.5133,-2.5425,-2.5481,-2.5715,-2.634,-2.6394,-2.65,-2.6779,-2.7099,-2.7563,-2.8202,-2.855,-2.916,-3.0103,-3.0572,-3.0951,-3.1278,-3.1495,-3.161,-3.161,-3.2185,-3.2532,-3.2672,-3.3439,-3.3748,-3.3799,-3.4578,-3.4468,-3.3723,-3.2978,-3.2249,-3.1494,-3.0791,-3.0526,-3.0526,0.0,0.0,0.0,0.0,0.0,0.0,0.0,0.0,0.0,0.0,0.0,0.0,0.0,0.0,0.0,0.0,0.0,0.0,0.0,0.0,0.0,-2.257,-2.2672,-2.273,-2.273,-2.2529,-2.2449,-2.2449,-2.2449,-2.2526,-2.274,-2.2296,-2.248,-2.3216,-2.3304,-2.3782,-2.4498,-2.458,-2.4766,-2.5068,-2.5068,-2.5068,-2.5068,-2.5068,-2.5045,-2.4966,-2.462,-2.3937,-2.3128,-2.283,0.0,0.0,0.0,0.0,-1.9552,-1.9198,-1.904,0.0,0.0,0.0,-1.7929,-1.782,-1.7479,0.0,-1.8483,-1.8669,-1.8868,-1.9454,-2.1236,-2.2653,-2.2714,-2.2896,-2.3078,-2.3078,-2.3078,-2.3078,-2.3078,-2.3603,-2.3956,-2.3956,-2.4394,-2.4724,-2.4851,-2.4851,-2.5077,-2.5715,-2.5715,-2.6002,-2.6621,-2.6621,-2.6963,-2.7654,-2.7668,-2.8289,-2.945,-2.9837,-3.033,-3.0835,-3.0954,-3.0998,-3.0998,-3.1492,-3.1766,-3.1936,-3.2917,-3.3339,-3.3391,-3.4366,-3.4292,-3.3495,-3.2883,-3.2122,-3.1355,-3.0742,-3.0526,-3.0526,0.0,0.0,0.0,0.0,0.0,0.0,0.0,0.0,0.0,0.0,0.0,0.0,0.0,0.0,0.0,0.0,0.0,0.0,0.0,0.0,0.0,-2.1193,-2.1729,-2.2019,-2.2019,-2.2966,-2.3421,-2.3421,-2.3421,-2.3566,0.0,0.0,-2.3377,-2.3696,-2.4135,-2.4359,-2.4539,-2.4822,-2.5146,-2.5427,-2.5427,-2.5427,-2.5427,-2.5427,-2.523,-2.4966,-2.4686,-2.3964,-2.3172,-2.2934,-2.1941,0.0,0.0,0.0,-1.9617,-1.9565,0.0,0.0,0.0,0.0,-1.7202,0.0,-1.6866,-1.7257,0.0,0.0,-1.8747,0.0,-2.0312,-2.1702,-2.2013,-2.2519,-2.2969,-2.3078,-2.3078,-2.3078,-2.3078,-2.3198,-2.3245,-2.3245,-2.3305,-2.359,-2.4176,-2.4234,-2.4452,-2.5077,-2.5133,-2.537,-2.6002,-2.6002,-2.6517,-2.7654,-2.7668,-2.8071,-2.8797,-2.8853,-2.8953,-2.9055,-2.9609,-2.9813,-2.9828,-3.0499,-3.1204,-3.1921,-3.2718,-3.3039,-3.3093,-3.3866,-3.355,-3.2495,-3.2397,-3.1677,-3.0617,-3.0559,-3.0526,-3.0526,0.0,0.0,0.0,0.0,0.0,0.0,0.0,0.0,0.0,0.0,0.0,0.0,0.0,0.0,0.0,0.0,0.0,0.0,0.0,0.0,0.0,0.0,-2.2245,-2.2683,-2.3273,-2.3526,-2.3759,-2.3933,-2.3933,0.0,0.0,-2.3952,-2.4036,-2.4094,-2.4359,-2.462,-2.4806,-2.513,-2.5269,-2.523,-2.5427,-2.5443,-2.5362,-2.5246,-2.5185,-2.5123,-2.4926,-2.4131,-2.3172,-2.3098,-2.2221,-2.1104,-2.0858,0.0,0.0,0.0,0.0,0.0,-1.7875,-1.7034,-1.6425,0.0,-1.6255,-1.6431,-1.737,0.0,-1.7719,-1.8354,-1.9308,-2.0409,-2.1439,-2.1628,-2.1877,-2.2726,-2.2641,-2.2567,-2.2957,-2.3078,-2.3078,-2.3078,-2.3078,-2.3198,-2.3484,-2.3543,-2.3826,-2.4452,-2.4509,-2.4738,-2.537,-2.5425,-2.5772,-2.6686,-2.6686,-2.7164,-2.8144,-2.8144,-2.8332,-2.8681,-2.8956,-2.9276,-2.9639,-2.9914,-3.0456,-3.119,-3.1962,-3.2281,-3.2336,-3.3039,-3.2782,-3.1898,-3.1898,-3.1328,-3.0526,-3.0526,-3.0526,-3.0526,0.0,0.0,0.0,0.0,0.0,0.0,0.0,0.0,0.0,0.0,0.0,0.0,0.0,0.0,0.0,0.0,0.0,0.0,0.0,0.0,0.0,0.0,0.0,-2.3048,-2.3845,-2.3766,-2.3834,-2.4085,0.0,0.0,-2.3782,-2.4385,-2.4564,0.0,-2.463,-2.4871,-2.513,-2.5406,-2.5368,-2.513,-2.5443,-2.5497,-2.5339,-2.5301,-2.5185,-2.51,-2.5045,-2.4256,-2.3216,-2.3172,-2.2406,-2.141,-2.1055,-2.0523,0.0,0.0,0.0,0.0,0.0,0.0,-1.6093,-1.6036,-1.569,-1.5751,0.0,0.0,-1.6973,0.0,-1.8415,-1.9177,-2.0549,-2.0666,-2.0846,-2.1963,-2.1827,-2.1815,-2.2457,-2.2702,-2.2884,-2.3017,-2.3078,-2.3078,-2.3078,-2.3078,-2.3305,-2.3839,-2.3839,-2.4118,-2.4738,-2.4794,-2.5021,-2.566,-2.566,-2.6104,-2.7011,-2.715,-2.7559,-2.8202,-2.8361,-2.8768,-2.9392,-2.9552,-2.9972,-3.0628,-3.1306,-3.158,-3.1637,-3.2266,-3.2034,-3.1308,-3.1308,-3.084,-3.0156,-3.0156,-3.0199,-3.0342,0.0,0.0,0.0,0.0,0.0,0.0,0.0,0.0,0.0,0.0,0.0,0.0,0.0,0.0,0.0,0.0,0.0,0.0,0.0,0.0,0.0,0.0,0.0,0.0,-2.2409,-2.3322,-2.3793,-2.3824,0.0,0.0,-2.4261,-2.4831,-2.491,-2.4589,-2.5114,-2.5406,-2.5465,0.0,0.0,0.0,-2.5705,-2.5668,-2.554,-2.5908,-2.5406,-2.458,-2.495,-2.4338,0.0,0.0,0.0,0.0,0.0,0.0,0.0,0.0,0.0,0.0,0.0,-1.6652,0.0,-1.5498,-1.5313,0.0,0.0,0.0,-1.6855,-1.736,-1.7782,-1.8269,-1.8977,-1.9748,-2.0398,-2.0655,-2.0719,-2.091,-2.1553,-2.1815,-2.2199,-2.2836,-2.3017,-2.3078,-2.3078,-2.3078,-2.3138,-2.3138,-2.3125,-2.3424,-2.4131,-2.4118,-2.4408,-2.5021,-2.5077,-2.509,-2.5118,-2.5702,-2.629,-2.6895,-2.749,-2.8115,-2.8753,-2.9348,-2.9972,-3.0642,-3.1102,-3.1336,-3.1336,-3.1766,-3.1404,-3.0541,-3.0541,-3.0,-2.9166,-2.9166,-2.9438,-2.9853,0.0,0.0,0.0,0.0,0.0,0.0,0.0,0.0,0.0,0.0,0.0,0.0,0.0,-2.458,-2.3852,-2.3175,0.0,0.0,0.0,0.0,0.0,0.0,0.0,0.0,0.0,-2.3818,-2.4344,0.0,0.0,-2.5465,-2.5059,-2.4981,-2.5075,-2.5323,-2.5091,-2.5068,-2.5208,-2.5406,0.0,0.0,0.0,0.0,-2.5567,-2.5738,-2.54,0.0,0.0,0.0,0.0,0.0,0.0,0.0,0.0,0.0,0.0,0.0,0.0,0.0,0.0,0.0,0.0,-1.5672,-1.5381,-1.5448,-1.6205,-1.6548,-1.6934,-1.7646,-1.791,-1.8076,-1.8337,-1.8586,-1.911,-2.0085,-2.002,-2.0009,-2.0655,-2.1026,-2.1279,-2.153,-2.2113,-2.2433,-2.2433,-2.2884,-2.3078,-2.3078,-2.3078,-2.3198,-2.3424,-2.3484,-2.3767,-2.4408,-2.4408,-2.4794,-2.5591,-2.5784,-2.6233,-2.6779,-2.7012,-2.7679,-2.8695,-2.8913,-2.9595,-3.0628,-3.0747,-3.0866,-3.0866,-3.1043,-3.0687,-3.0044,-3.0044,-2.9639,-2.9074,-2.9074,-2.9212,-2.9348,0.0,0.0,0.0,0.0,0.0,0.0,0.0,0.0,0.0,0.0,0.0,0.0,0.0,0.0,-2.3731,-2.2907,-2.2607,0.0,0.0,0.0,0.0,0.0,0.0,0.0,0.0,-2.4028,-2.4538,0.0,0.0,0.0,0.0,-2.5351,-2.5443,-2.5701,-2.5301,-2.5107,0.0,0.0,0.0,-2.5045,0.0,0.0,-2.541,0.0,0.0,0.0,0.0,0.0,0.0,0.0,0.0,0.0,0.0,0.0,0.0,0.0,0.0,0.0,-1.7457,0.0,0.0,0.0,0.0,-1.5436,-1.6283,0.0,-1.6973,-1.7832,-1.8008,-1.8008,-1.8008,-1.8008,-1.8337,-1.9253,-1.89,-1.8824,-1.9748,-2.0128,-2.0375,-2.0696,-2.1467,-2.2051,-2.2101,-2.2689,-2.3078,-2.3078,-2.3078,-2.3078,-2.3078,-2.3078,-2.3305,-2.3767,-2.3767,-2.4234,-2.5272,-2.5328,-2.5715,-2.65,-2.65,-2.727,-2.8681,-2.8681,-2.9377,-3.0568,-3.0568,-3.0568,-3.0553,-3.035,-2.9941,-2.946,-2.9289,-2.8951,-2.8511,-2.8559,-2.8701,-2.8842,0.0,0.0,0.0,0.0,0.0,0.0,0.0,0.0,0.0,-2.7147,0.0,0.0,0.0,0.0,0.0,-2.3161,-2.3116,-2.3116,-2.3091,0.0,0.0,0.0,0.0,0.0,0.0,-2.3823,-2.4236,-2.395,-2.5715,-2.6248,-2.5561,0.0,-2.5961,-2.5738,-2.5701,-2.5572,-2.5443,0.0,-2.5684,-2.5084,0.0,-2.5668,-2.5084,0.0,0.0,0.0,-2.4695,-2.4369,0.0,-2.326,0.0,0.0,0.0,0.0,0.0,0.0,0.0,0.0,0.0,0.0,0.0,0.0,0.0,0.0,-1.6283,0.0,-1.6928,-1.7832,-1.8008,-1.8008,-1.8008,-1.8008,-1.794,-1.8008,-1.7432,-1.7413,-1.8777,-1.911,-1.9562,-2.0462,-2.1302,-2.1939,-2.2051,-2.2677,-2.3078,-2.3078,-2.3078,-2.3078,-2.3078,-2.3078,-2.3078,-2.3078,-2.3078,-2.3424,-2.4073,-2.4131,-2.4694,-2.5893,-2.5893,-2.6873,-2.8681,-2.8681,-2.9377,-3.0568,-3.0568,-3.0568,-3.0495,-2.9871,-2.9319,-2.8846,-2.8297,-2.7794,-2.7401,-2.7524,-2.7894,-2.8304,0.0,0.0,0.0,0.0,0.0,0.0,0.0,0.0,0.0,0.0,0.0,0.0,-2.469,-2.4025,-2.3602,-2.3412,-2.3513,-2.3535,-2.3394,-2.3394,0.0,0.0,0.0,0.0,0.0,-2.3824,-2.4507,-2.4977,-2.6033,-2.6718,-2.708,-2.6657,-2.642,0.0,-2.5888,-2.5663,-2.561,-2.5864,0.0,-2.5717,-2.5811,-2.5779,0.0,0.0,0.0,0.0,0.0,-2.4021,-2.3112,0.0,-2.3008,-2.2889,0.0,0.0,0.0,0.0,0.0,0.0,-1.8116,0.0,0.0,0.0,0.0,0.0,0.0,0.0,-1.7203,-1.7833,-1.8008,-1.8008,-1.8008,-1.7579,-1.7364,-1.794,-1.7794,-1.7862,-1.8202,-1.8462,-1.8731,-1.9054,-2.0268,-2.1152,-2.1376,-2.2445,-2.3078,0.0,-2.3078,-2.3078,-2.3078,-2.3078,-2.3078,-2.3078,-2.3078,-2.3424,-2.4073,-2.4131,-2.4465,-2.5245,-2.5715,-2.6651,-2.8082,-2.8497,-2.9377,-3.0568,-3.0568,-3.0306,-2.9871,-2.9697,-2.9319,-2.8846,-2.8297,-2.7794,-2.7401,-2.7524,-2.766,-2.7795,0.0,0.0,0.0,0.0,0.0,0.0,0.0,0.0,0.0,0.0,0.0,0.0,-2.4171,-2.3799,-2.362,-2.362,-2.3732,-2.3753,-2.3642,-2.362,-2.3576,0.0,0.0,0.0,0.0,-2.3996,-2.4715,-2.5401,-2.6267,-2.7042,-2.7701,-2.7255,-2.7066,-2.7049,0.0,0.0,0.0,0.0,0.0,0.0,-2.5957,0.0,0.0,-2.5775,-2.5378,0.0,0.0,0.0,-2.3334,-2.2978,-2.2888,0.0,0.0,0.0,0.0,0.0,0.0,0.0,0.0,0.0,0.0,0.0,0.0,0.0,-1.6832,-1.7105,-1.748,-1.8237,-1.8202,-1.8008,-1.8008,-1.7647,-1.751,-1.794,-1.8008,-1.8008,-1.8008,-1.8076,-1.8279,-1.8482,-1.9814,-2.0846,-2.106,-2.2322,-2.3078,-2.3078,-2.3078,-2.3078,-2.3078,-2.3078,-2.3078,-2.3078,-2.3078,-2.3305,-2.3662,-2.3662,-2.4002,-2.4624,-2.4978,-2.5823,-2.7037,-2.7593,-2.8418,-2.9397,-2.9668,-2.9528,-2.9156,-2.8929,-2.8679,-2.8327,-2.7886,-2.7558,-2.7335,-2.7524,-2.7625,-2.7625,0.0,0.0,0.0,0.0,0.0,0.0,0.0,0.0,0.0,0.0,-2.5468,-2.4364,-2.3886,-2.3837,-2.3858,-2.3858,-2.3858,-2.3858,-2.3858,-2.3858,0.0,0.0,0.0,0.0,0.0,0.0,-2.4817,-2.5482,-2.6436,-2.7219,-2.7818,-2.7742,-2.7742,-2.7742,0.0,0.0,0.0,0.0,0.0,-2.6118,-2.6225,-2.5977,0.0,0.0,-2.5339,-2.4926,-2.4508,-2.4219,-2.3897,-2.329,-2.2888,0.0,0.0,0.0,0.0,0.0,-2.0067,0.0,0.0,0.0,0.0,0.0,-1.7216,0.0,-1.7891,-1.7775,-1.7803,-1.8762,-1.8452,-1.794,-1.794,-1.794,-1.794,-1.8008,-1.8008,-1.8008,-1.8008,-1.8008,-1.8144,-1.8539,-1.9759,-2.0794,-2.1123,-2.2384,-2.3078,-2.3078,-2.3078,-2.3078,-2.3078,-2.3078,-2.3078,-2.3078,-2.3078,-2.3078,-2.3078,-2.3078,-2.3424,-2.4015,-2.406,-2.4713,-2.5801,-2.6389,-2.6959,-2.7639,-2.8158,-2.8372,-2.8278,-2.7726,-2.7559,-2.7665,-2.7328,-2.7181,-2.7233,-2.7524,-2.7625,-2.7625,0.0,0.0,0.0,0.0,0.0,0.0,0.0,0.0,0.0,0.0,-2.469,-2.4158,-2.4054,-2.4134,-2.421,-2.421,-2.421,-2.421,-2.421,-2.421,0.0,0.0,0.0,0.0,0.0,0.0,0.0,-2.6045,-2.6255,-2.706,-2.8414,-2.8147,-2.802,-2.802,0.0,0.0,0.0,0.0,0.0,-2.6674,-2.6173,0.0,-2.5742,-2.5642,-2.5285,-2.4871,-2.4895,-2.4549,-2.4024,-2.4151,-2.3668,-2.3038,0.0,0.0,0.0,-2.1188,0.0,0.0,0.0,0.0,0.0,0.0,-1.8098,0.0,-1.8319,-1.8437,-1.8609,-1.8813,-1.824,-1.7784,-1.7784,-1.7784,-1.7784,-1.794,-1.8008,-1.8008,-1.8008,-1.8008,-1.8269,-1.9044,-2.002,-2.091,-2.169,-2.2567,-2.3078,-2.3078,-2.3078,-2.3078,-2.3078,-2.3078,-2.3078,-2.3078,-2.3078,-2.3078,-2.3078,-2.3078,-2.3198,-2.3305,-2.3826,-2.4478,-2.521,-2.5792,-2.6408,-2.7053,-2.7174,-2.696,-2.6407,-2.629,-2.6835,-2.7665,-2.7328,-2.7181,-2.7233,-2.7524,-2.7625,-2.7625,0.0,0.0,0.0,0.0,0.0,0.0,0.0,0.0,0.0,-2.5211,-2.4608,-2.4209,-2.4209,-2.4321,-2.4355,-2.4303,-2.4356,-2.4374,-2.4303,-2.4284,0.0,0.0,0.0,0.0,0.0,0.0,0.0,-2.6354,-2.6354,-2.7126,-2.8587,-2.8422,-2.8299,-2.8192,-2.8156,0.0,0.0,0.0,-2.721,-2.6807,-2.6137,0.0,-2.5631,-2.5492,-2.5224,-2.491,-2.4934,-2.4533,-2.3982,-2.3952,-2.3782,0.0,-2.3216,-2.2904,-2.2495,0.0,-2.1334,-2.1028,0.0,0.0,0.0,-1.8779,0.0,0.0,0.0,-1.9243,-1.8967,-1.9212,-1.8432,-1.7706,-1.7588,-1.7588,-1.7657,-1.7794,-1.7862,-1.7862,-1.8008,-1.8269,-1.8721,-1.9233,-2.0344,-2.125,-2.1815,-2.258,-2.3017,-2.3078,-2.3078,-2.3078,-2.3078,-2.3078,-2.3078,-2.3078,-2.3078,-2.3078,-2.3078,-2.3078,-2.3078,-2.3078,-2.3424,-2.3744,-2.4086,-2.4671,-2.514,-2.5489,-2.5781,-2.5728,-2.5421,-2.5463,-2.5797,-2.6356,-2.664,-2.6959,-2.7233,-2.7524,-2.7625,-2.7625,0.0,0.0,0.0,0.0,0.0,0.0,0.0,0.0,0.0,-2.5061,-2.4652,-2.4339,-2.4339,-2.4459,-2.4491,-2.4393,-2.4476,-2.4491,-2.4426,0.0,0.0,0.0,0.0,-2.4339,0.0,0.0,0.0,0.0,-2.6673,-2.7387,-2.8662,-2.8612,-2.851,-2.8353,-2.8484,0.0,0.0,0.0,0.0,-2.6674,0.0,-2.5738,-2.5443,-2.5262,-2.5084,-2.4886,-2.4791,-2.4467,-2.4067,-2.3724,-2.3782,-2.3839,-2.3098,-2.2994,0.0,0.0,0.0,0.0,0.0,0.0,0.0,0.0,0.0,-2.0169,0.0,0.0,0.0,-1.9933,0.0,0.0,0.0,0.0,0.0,-1.7852,0.0,0.0,0.0,-1.8721,0.0,-1.9431,-2.0613,-2.1577,-2.1951,-2.2396,-2.2775,-2.3078,-2.2944,-2.2944,-2.3078,-2.3078,-2.3078,-2.3078,-2.3078,-2.3078,-2.3078,-2.3078,-2.3078,-2.3078,-2.3078,-2.3078,-2.309,-2.3615,-2.3841,-2.3828,-2.4343,-2.4572,-2.4546,-2.458,-2.4724,-2.4894,-2.5783,-2.6404,-2.6893,-2.7306,-2.7408,-2.7458,-2.7121,-2.7302,0.0,0.0,0.0,0.0,0.0,0.0,0.0,-2.4202,-2.4376,-2.4478,-2.4478,0.0,0.0,0.0,0.0,0.0,-2.4832,0.0,0.0,0.0,0.0,0.0,-2.4478,0.0,0.0,0.0,-2.7273,-2.8009,-2.8858,-2.8687,-2.8587,0.0,-2.8406,0.0,0.0,0.0,-2.6967,0.0,-2.603,-2.5696,0.0,-2.4974,-2.471,-2.4539,-2.4539,-2.4498,-2.4457,0.0,-2.4135,-2.3839,0.0,-2.3581,-2.326,-2.3231,0.0,0.0,0.0,0.0,0.0,0.0,-2.1026,0.0,-2.1439,0.0,-2.0869,-2.0794,0.0,0.0,0.0,0.0,0.0,0.0,0.0,0.0,-1.8008,-1.9121,-1.9966,-2.0031,-2.0805,-2.1639,-2.2285,-2.2013,-2.2125,-2.3005,-2.2445,-2.2384,-2.3078,-2.3078,-2.3078,-2.3078,-2.3078,-2.3078,-2.3078,-2.3078,-2.3078,-2.3078,-2.3078,-2.3078,-2.3078,-2.314,-2.3165,-2.3238,-2.3286,-2.3286,-2.3286,-2.333,-2.3649,-2.4292,-2.5175,-2.5563,-2.5673,-2.651,-2.6788,-2.6893,-2.7162,-2.6934,0.0,0.0,0.0,0.0,0.0,0.0,0.0,-2.4302,-2.4495,0.0,0.0,0.0,0.0,0.0,0.0,-2.4929,0.0,0.0,0.0,0.0,0.0,0.0,0.0,0.0,0.0,0.0,-2.7899,-2.8301,-2.8905,-2.8791,-2.8662,0.0,-2.8353,0.0,-2.7672,0.0,-2.6903,0.0,0.0,0.0,0.0,-2.4791,-2.4564,-2.4498,-2.4498,-2.4498,-2.4457,0.0,-2.4193,0.0,0.0,0.0,0.0,-2.2889,0.0,0.0,0.0,0.0,0.0,0.0,0.0,0.0,-2.2186,0.0,-2.1416,0.0,0.0,0.0,0.0,0.0,0.0,0.0,-1.9166,0.0,0.0,0.0,-1.9966,-1.9507,0.0,0.0,-2.2555,-2.1951,-2.2002,-2.3005,-2.2384,-2.2261,-2.3078,-2.3078,-2.3078,-2.3078,-2.3078,-2.3078,-2.3078,-2.3078,-2.3078,-2.3078,-2.3078,-2.3078,-2.3078,-2.3078,-2.3078,-2.3078,-2.3078,-2.3078,-2.3078,-2.3078,-2.3245,-2.3543,-2.406,-2.4738,-2.5453,-2.6014,-2.6176,-2.6283,-2.6615,0.0,0.0,0.0,0.0,0.0,0.0,0.0,0.0,0.0,0.0,0.0,-2.4707,-2.4874,0.0,0.0,-2.4814,-2.491,0.0,0.0,-2.4896,0.0,0.0,0.0,0.0,0.0,0.0,0.0,0.0,0.0,-2.8938,-2.891,-2.8718,-2.838,0.0,-2.7926,-2.7313,0.0,-2.6673,-2.5875,-2.5738,-2.5285,-2.4688,-2.4369,-2.4234,-2.4177,-2.4151,-2.4135,-2.4177,-2.3925,-2.3967,0.0,-2.3275,0.0,-2.3668,0.0,0.0,0.0,-2.2179,0.0,0.0,0.0,0.0,0.0,0.0,0.0,0.0,0.0,0.0,0.0,0.0,0.0,0.0,0.0,0.0,-1.9944,0.0,-2.0226,0.0,0.0,0.0,0.0,0.0,-2.1439,-2.1416,-2.2689,-2.2002,-2.2002,-2.3065,-2.3078,-2.3078,-2.3078,-2.3078,-2.3078,-2.3078,-2.3078,-2.3078,-2.3078,-2.3078,-2.3078,-2.3078,-2.3078,-2.3078,-2.3078,-2.3078,-2.3078,-2.3078,-2.3078,-2.3078,-2.3138,-2.333,-2.4015,-2.4951,-2.5342,-2.5522,-2.5687,-2.5046,-2.4959,0.0,0.0,0.0,0.0,0.0,0.0,0.0,0.0,0.0,0.0,0.0,0.0,0.0,0.0,0.0,-2.4575,-2.4708,0.0,-2.4727,0.0,0.0,-2.534,0.0,0.0,0.0,0.0,0.0,0.0,0.0,-2.8962,-2.8785,-2.8587,-2.838,-2.7869,-2.7092,-2.6836,-2.6108,-2.513,-2.5146,-2.4461,-2.3493,0.0,-2.3551,-2.3406,-2.3201,0.0,0.0,-2.3406,-2.3377,0.0,0.0,0.0,0.0,0.0,0.0,0.0,0.0,0.0,0.0,-2.3387,0.0,0.0,0.0,0.0,-2.2726,0.0,0.0,0.0,0.0,0.0,0.0,0.0,0.0,0.0,0.0,0.0,0.0,0.0,0.0,0.0,0.0,-2.002,-1.9879,-2.1815,-2.1101,-2.1353,-2.3005,-2.3078,-2.3078,-2.3078,-2.3078,-2.3078,-2.3078,-2.3078,-2.3078,-2.3078,-2.3078,-2.3078,-2.3078,-2.3078,-2.3078,-2.3078,-2.3078,-2.3078,-2.3078,-2.3078,-2.3078,-2.3138,-2.333,-2.3509,-2.3734,-2.4452,-2.4865,-2.5104,0.0,0.0,0.0,0.0,0.0,0.0,0.0,-2.3978,0.0,0.0,0.0,0.0,0.0,-2.451,-2.4526,0.0,0.0,-2.4524,-2.457,-2.4678,0.0,0.0,0.0,-2.6289,0.0,0.0,0.0,0.0,0.0,0.0,0.0,0.0,-2.8785,-2.8587,0.0,-2.7897,0.0,0.0,0.0,0.0,0.0,-2.4204,-2.3406,0.0,-2.3231,-2.292,-2.2844,-2.2889,0.0,-2.3157,-2.3216,-2.3187,-2.3098,-2.3216,-2.3334,-2.3083,-2.2828,-2.2783,0.0,0.0,-2.3187,-2.4477,0.0,0.0,0.0,0.0,0.0,0.0,0.0,0.0,0.0,0.0,0.0,0.0,0.0,0.0,0.0,0.0,0.0,0.0,0.0,0.0,0.0,0.0,-2.0921,-2.1815,-2.1628,-2.1928,-2.3065,-2.3078,-2.3078,-2.3078,-2.3078,-2.3078,-2.3078,-2.3078,-2.3078,-2.3078,-2.3078,-2.3078,-2.3078,-2.3078,-2.3078,-2.3078,-2.3078,-2.3078,-2.3078,-2.3078,-2.3078,-2.3138,-2.3198,-2.339,-2.3628,-2.4041,-2.4274,-2.4563,-2.3616,0.0,0.0,0.0,0.0,0.0,0.0,0.0,0.0,0.0,-2.4266,0.0,-2.4303,0.0,-2.4373,0.0,-2.4321,-2.4372,-2.4424,-2.4538,0.0,-2.4762,-2.5712,0.0,0.0,0.0,0.0,0.0,0.0,-2.9272,0.0,0.0,0.0,0.0,0.0,-2.7823,-2.7123,-2.6622,-2.5895,0.0,0.0,-2.3782,0.0,0.0,-2.2799,-2.2526,0.0,-2.2434,-2.2526,-2.2709,-2.2768,-2.2768,-2.2797,-2.2963,-2.3068,-2.2783,-2.2864,-2.3206,-2.3943,-2.382,0.0,-2.5285,-2.5094,0.0,-2.4486,0.0,-2.4221,0.0,0.0,0.0,0.0,0.0,0.0,0.0,0.0,0.0,0.0,-2.2197,0.0,0.0,0.0,0.0,0.0,-2.1187,-2.125,-2.1877,-2.1877,-2.2261,-2.3078,-2.3078,-2.3078,-2.3078,-2.3078,-2.3078,-2.3078,-2.3078,-2.3078,-2.3078,-2.3078,-2.3078,-2.3078,-2.3078,-2.3078,-2.3078,-2.3078,-2.3078,-2.3078,-2.3078,-2.3078,-2.3078,-2.3078,-2.3318,-2.3628,-2.376,-2.3936,-2.4274,0.0,0.0,0.0,0.0,-2.3119,0.0,0.0,0.0,-2.3858,0.0,-2.4266,-2.4303,-2.4266,-2.4266,-2.421,-2.4094,-2.4094,-2.4152,-2.4266,-2.4284,0.0,0.0,-2.552,-2.6373,-2.7223,0.0,0.0,0.0,0.0,0.0,0.0,0.0,0.0,0.0,-2.8165,0.0,-2.7029,-2.6232,-2.5508,-2.4744,-2.3921,-2.329,-2.2799,-2.2356,-2.2184,-2.2077,-2.1841,-2.1949,-2.2137,-2.2184,-2.2184,-2.2231,-2.2509,-2.2555,-2.2615,-2.2886,-2.3366,-2.3974,-2.4347,-2.4926,-2.5502,-2.5793,-2.5893,0.0,0.0,0.0,-2.4394,0.0,0.0,0.0,0.0,0.0,0.0,0.0,0.0,0.0,0.0,0.0,0.0,0.0,0.0,0.0,0.0,-2.0794,-2.0782,-2.1815,-2.1877,-2.2261,0.0,-2.3078,-2.3078,-2.3078,-2.3078,-2.3078,-2.3078,-2.3078,-2.3078,-2.3078,-2.3078,-2.3078,-2.3078,-2.3078,-2.3078,-2.3078,-2.3078,-2.3078,-2.3078,-2.3078,-2.3078,-2.3078,-2.3078,-2.3318,-2.3628,-2.3628,-2.3865,-2.4274,-2.3783,-2.3353,-2.3144,0.0,-2.3271,-2.3412,0.0,0.0,0.0,0.0,-2.4034,-2.4095,-2.3939,-2.3919,-2.3899,-2.3876,-2.3876,0.0,0.0,0.0,0.0,-2.5055,-2.6172,-2.7136,-2.7849,-2.8689,-2.923,-2.9434,0.0,0.0,-2.8905,0.0,0.0,0.0,0.0,0.0,-2.6607,-2.6108,-2.515,-2.3921,-2.3681,-2.3113,-2.2356,0.0,-2.1541,-2.0908,-2.1361,-2.1348,-2.1251,-2.1746,-2.1902,-2.1949,-2.2231,-2.2324,-2.247,-2.3159,-2.3464,-2.3837,-2.4855,-2.5283,-2.545,-2.5549,-2.5743,-2.566,0.0,0.0,0.0,0.0,0.0,0.0,0.0,0.0,0.0,0.0,0.0,0.0,0.0,0.0,0.0,-2.2359,0.0,0.0,-2.1262,-2.1239,-2.1365,-2.1678,-2.1928,-2.2372,-2.3078,0.0,-2.2555,-2.3065,-2.3078,-2.3078,-2.3078,-2.3078,-2.3078,-2.3078,-2.3078,-2.3078,-2.3078,-2.3078,-2.3078,-2.3078,-2.3078,-2.3078,-2.3078,-2.3078,-2.3078,-2.3078,-2.3078,-2.3318,-2.3628,-2.3878,-2.4332,-2.4892,-2.4154,0.0,0.0,-2.3095,0.0,0.0,-2.3413,-2.3598,0.0,-2.3747,-2.3852,0.0,-2.3816,-2.3795,-2.3795,-2.3795,-2.3795,0.0,-2.3917,0.0,0.0,-2.5226,-2.6259,-2.7132,-2.7732,-2.8503,0.0,-2.8966,0.0,0.0,-2.8558,0.0,0.0,0.0,0.0,-2.6918,-2.6352,-2.5443,-2.4465,-2.3508,-2.3113,-2.2498,0.0,-2.1396,-2.0759,-2.0118,-2.056,-2.056,-2.0497,-2.1361,-2.1506,-2.1444,-2.1902,-2.2225,-2.2552,-2.3158,-2.3688,-2.4255,-2.4977,-2.5388,-2.5632,-2.5673,-2.5893,-2.5879,-2.5104,-2.5174,-2.5216,0.0,-2.4991,-2.516,0.0,0.0,0.0,0.0,0.0,0.0,0.0,0.0,0.0,0.0,-2.2161,0.0,-2.1135,-2.1753,-2.2063,-2.1753,-2.1928,-2.2187,0.0,0.0,-2.2039,-2.3078,-2.2506,-2.2384,-2.2689,-2.2384,-2.2384,-2.2689,-2.2689,-2.2811,-2.3078,-2.3078,-2.3078,-2.3078,-2.3078,-2.3078,-2.3078,-2.3078,-2.3078,-2.3138,-2.3258,-2.3437,-2.3628,-2.3995,-2.4287,-2.4721,0.0,0.0,0.0,0.0,0.0,0.0,0.0,-2.375,0.0,-2.4017,0.0,-2.4053,-2.4121,-2.4103,-2.4103,-2.4103,0.0,-2.4142,-2.4304,-2.4164,-2.4508,-2.5436,-2.6166,-2.6794,-2.7389,-2.7949,-2.8281,0.0,-2.7915,-2.7829,-2.8047,0.0,0.0,0.0,0.0,0.0,0.0,-2.4538,-2.3706,-2.3231,-2.2495,-2.1752,-2.1059,-2.0646,-2.0067,-1.9552,-1.9759,-1.985,-2.0003,-2.0957,-2.1104,-2.0908,-2.1636,-2.2228,-2.2732,-2.3174,-2.4021,-2.4899,-2.4984,-2.5418,-2.5839,-2.5784,-2.5988,-2.6042,-2.5481,-2.5578,-2.5619,-2.5061,-2.5384,-2.555,-2.4523,0.0,0.0,0.0,0.0,0.0,0.0,0.0,0.0,0.0,0.0,0.0,0.0,-2.2075,-2.2322,-2.1741,-2.1616,0.0,0.0,0.0,-2.1342,-2.2884,-2.1815,-2.1428,-2.1916,-2.1491,-2.1502,-2.1978,-2.1978,-2.2298,-2.2944,-2.2944,-2.3005,-2.3078,-2.3078,-2.3078,-2.3078,-2.3078,-2.3078,-2.3138,-2.3437,-2.3569,-2.3628,-2.3936,-2.4112,-2.4319,0.0,0.0,0.0,0.0,0.0,-2.4717,-2.489,-2.5103,-2.5258,-2.528,-2.5566,-2.5764,-2.5787,-2.5787,-2.5787,-2.5787,-2.5578,0.0,0.0,0.0,0.0,-2.6313,-2.6552,-2.705,-2.7851,-2.7939,-2.7982,-2.7982,-2.78,-2.7713,-2.7771,0.0,0.0,0.0,0.0,0.0,-2.4823,-2.3891,0.0,-2.2785,-2.2263,-2.165,-2.1019,-2.0861,-2.0195,-1.9331,-1.9786,-1.994,-2.0042,-2.0696,-2.0858,-2.0987,-2.188,-2.226,-2.261,-2.3934,-2.4482,-2.4759,-2.5232,-2.5467,-2.5481,-2.5244,-2.5411,-2.5467,-2.4808,-2.4935,-2.5061,-2.4694,-2.5077,-2.5522,-2.555,0.0,0.0,0.0,0.0,0.0,0.0,0.0,0.0,0.0,0.0,-2.2592,0.0,0.0,0.0,-2.059,-2.0204,-2.059,0.0,0.0,-2.0655,0.0,-2.199,-2.1655,0.0,0.0,-2.1678,-2.125,-2.125,-2.1628,-2.2298,-2.2298,-2.2555,-2.3078,-2.3078,-2.3078,-2.3078,-2.3078,-2.3078,-2.3138,-2.333,-2.3463,-2.3463,-2.3819,-2.4216,-2.4694,0.0,0.0,0.0,0.0,0.0,0.0,0.0,-2.5863,-2.6063,-2.5472,-2.5674,-2.585,-2.5732,-2.5893,-2.5918,-2.5758,-2.5622,-2.5544,-2.5544,-2.5393,-2.569,-2.6518,-2.6609,-2.6961,-2.7601,-2.7607,-2.7589,-2.7589,-2.7289,-2.7213,-2.7369,0.0,0.0,0.0,0.0,-2.4617,0.0,0.0,0.0,-2.242,-2.1732,-2.0908,-2.0067,-2.0029,-1.9448,-1.8632,-1.875,-1.9131,-1.9711,-2.0144,-2.0705,-2.1374,-2.1819,-2.2585,-2.3363,-2.4108,-2.4559,-2.486,-2.5175,-2.5257,-2.5188,-2.5061,-2.5257,-2.5369,-2.4878,-2.5005,-2.5188,-2.5061,-2.5384,-2.5701,-2.5756,-2.4937,0.0,0.0,0.0,0.0,0.0,0.0,-2.286,0.0,0.0,0.0,0.0,0.0,0.0,0.0,0.0,-2.0139,-2.129,0.0,-1.9824,0.0,0.0,0.0,-2.0268,0.0,-2.0921,-2.0549,-2.0549,-2.0921,-2.1553,-2.1553,-2.1928,-2.2555,-2.2555,-2.275,-2.3078,-2.3078,-2.3078,-2.3138,-2.333,-2.3403,-2.3463,-2.3772,-2.4434,-2.5231,0.0,-2.4787,0.0,0.0,-2.5211,-2.5581,-2.5514,-2.6219,-2.6495,-2.5633,-2.5792,-2.593,-2.5785,-2.5994,-2.6065,-2.583,-2.5747,-2.5691,-2.5691,-2.5634,-2.5866,-2.6504,-2.6627,-2.6835,-2.721,-2.721,-2.721,-2.721,-2.6792,-2.6691,-2.6841,0.0,0.0,0.0,0.0,0.0,0.0,0.0,-2.2235,-2.2095,-2.1153,-2.0207,-1.9331,-1.9186,-1.8697,-1.8116,-1.7978,-1.8496,-1.9277,-1.9558,-2.0545,-2.1589,-2.1653,-2.275,-2.4027,-2.4039,-2.4458,-2.5005,-2.5005,-2.5005,-2.5005,-2.5005,-2.5188,-2.5313,-2.5061,-2.5188,-2.5369,-2.5313,-2.5508,-2.5591,-2.5508,-2.4711,0.0,0.0,0.0,0.0,0.0,0.0,0.0,0.0,0.0,0.0,-2.1939,0.0,0.0,0.0,0.0,-1.9879,-2.0749,-1.9497,-1.9375,0.0,0.0,-1.9704,-1.9518,0.0,-1.9966,-1.9846,-1.9846,-2.0226,-2.0805,-2.0869,-2.1239,-2.1928,-2.2051,-2.2494,-2.3078,-2.3078,-2.3078,-2.3138,-2.3271,-2.333,-2.339,-2.3878,-2.4708,-2.5618,0.0,0.0,0.0,0.0,0.0,-2.5591,-2.5812,-2.6125,-2.6437,-2.6621,-2.7002,-2.726,-2.7285,-2.7315,-2.7379,-2.7473,-2.7204,-2.702,-2.702,-2.6734,-2.6605,-2.6673,-2.679,-2.6906,-2.6942,-2.6942,-2.6942,-2.6942,-2.6708,-2.6452,-2.6068,-2.5373,0.0,0.0,0.0,0.0,0.0,-2.2156,-2.1698,-2.1554,-2.0497,-1.994,-1.9695,-1.9186,-1.8655,-1.815,-1.8565,-1.8872,-1.9021,-1.91,-2.0086,-2.13,-2.1613,-2.2711,-2.3888,-2.3869,-2.4355,-2.5005,-2.5005,-2.5005,-2.5005,-2.5005,-2.5005,-2.5061,-2.5005,-2.5005,-2.5005,-2.4808,-2.4768,-2.4867,-2.5007,-2.4951,-2.4724,0.0,0.0,0.0,0.0,0.0,-2.3078,-2.3078,0.0,0.0,-2.2787,-2.1542,0.0,0.0,-2.0204,-1.9748,-2.076,-1.9944,-1.9824,-2.059,-1.9944,-1.9309,-1.8607,-1.9452,-1.9518,-1.8931,-1.9131,-1.9452,-1.9901,-2.0096,-2.0549,-2.125,-2.1865,-2.2494,-2.3078,-2.3078,-2.3078,-2.3078,-2.3138,-2.3138,-2.3245,-2.4118,-2.4851,-2.5508,0.0,0.0,0.0,0.0,0.0,0.0,0.0,-2.5389,-2.5577,-2.598,-2.6657,-2.7034,-2.6906,-2.7132,-2.7195,-2.7053,-2.6956,-2.6891,-2.6891,-2.6758,-2.6691,-2.6691,-2.6742,-2.6792,-2.6792,-2.6792,-2.6792,0.0,-2.6417,-2.6118,-2.5852,-2.5098,-2.4436,0.0,0.0,-2.329,-2.2965,-2.2282,-2.1827,-2.1361,-2.0295,-1.9643,-1.9275,-1.8998,-1.8519,-1.8091,-1.8569,-1.8937,-1.9215,-1.9304,-2.0248,-2.1464,-2.139,-2.2145,-2.3153,-2.3323,-2.3623,-2.393,-2.4105,-2.4176,-2.4234,-2.4523,-2.4593,-2.465,-2.4948,-2.4765,-2.4536,-2.4465,-2.4452,-2.454,-2.4768,-2.5231,-2.5203,-2.4234,0.0,0.0,0.0,0.0,0.0,-2.3078,0.0,-2.3078,0.0,-2.1655,0.0,0.0,0.0,-1.9177,-1.9998,-1.9748,-1.9497,-1.9243,0.0,-1.9628,-1.8405,-1.9243,-1.9386,-1.8808,-1.8741,-1.8942,-1.9396,-1.933,-1.9977,-2.1187,-2.2249,-2.2871,-2.3078,-2.3078,-2.3078,-2.3078,-2.3078,-2.3078,-2.3198,-2.3721,-2.4567,-2.5453,-2.4759,0.0,-2.4664,0.0,-2.4623,-2.4719,-2.4719,-2.4823,-2.502,-2.5275,-2.5911,-2.6317,-2.6434,-2.6674,-2.6775,-2.6589,-2.6623,-2.6674,-2.6674,-2.6691,-2.6691,-2.6691,-2.6691,0.0,-2.6539,-2.6539,-2.647,-2.6367,-2.5994,-2.5721,-2.5481,-2.4719,-2.4162,0.0,-2.3465,-2.3098,-2.2694,-2.2095,-2.1589,-2.1095,-2.0168,-1.9523,-1.9156,-1.8896,-1.8536,-1.8272,-1.8742,-1.9124,-1.9441,-1.9583,-2.0359,-2.1197,-2.0903,-2.1568,-2.2531,-2.2725,-2.2895,-2.3148,-2.3518,-2.3577,-2.3695,-2.4176,-2.4292,-2.4408,-2.4878,-2.465,-2.4234,-2.4002,-2.3943,-2.4047,-2.4355,-2.5007,-2.5203,-2.4234,0.0,0.0,0.0,-2.3078,0.0,-2.3078,-2.3078,-2.3078,-2.3078,-2.1916,0.0,0.0,0.0,0.0,-1.9628,-1.9628,0.0,0.0,0.0,0.0,-1.8337,-1.8921,-1.9054,-1.8674,-1.8549,-1.8607,-1.8865,-1.8998,-1.9966,-2.1439,-2.2372,-2.2944,-2.3078,-2.3078,-2.3078,-2.3078,-2.3078,-2.3078,-2.3185,-2.3884,-2.4681,-2.5508,-2.4385,-2.4302,-2.4177,-2.3696,-2.3994,-2.4302,-2.4302,-2.4639,-2.4902,-2.4902,-2.4902,-2.5291,-2.6208,-2.6295,-2.6382,-2.6485,-2.6554,-2.6606,-2.6606,-2.664,-2.6691,0.0,0.0,-2.6505,-2.6139,-2.6104,-2.5908,-2.5503,0.0,0.0,-2.4815,-2.412,-2.3797,-2.3739,-2.2634,-2.2175,-2.2235,-2.1166,-2.0699,-2.0651,-1.9949,-1.9677,-1.9626,-1.8955,-1.8676,-1.8742,-1.9233,-1.9408,-1.9495,-1.9911,-2.0074,-2.014,-2.014,-2.1112,-2.2274,-2.199,-2.2482,-2.3148,-2.3518,-2.3577,-2.3695,-2.4176,-2.4292,-2.4408,-2.4878,-2.465,-2.406,-2.3245,-2.3138,-2.3245,-2.3741,-2.4221,-2.4408,-2.4118,0.0,0.0,0.0,-2.3078,0.0,-2.3078,-2.3078,-2.3078,-2.3078,-2.2494,0.0,0.0,0.0,0.0,0.0,0.0,0.0,-1.977,-1.8865,0.0,-1.8482,-1.8405,-1.8337,-1.8337,-1.8414,-1.8405,-1.8337,-1.932,-2.0655,-2.2113,-2.2113,-2.2494,-2.3078,-2.3078,-2.3078,-2.3078,-2.3078,-2.3078,-2.3305,-2.4838,-2.5398,-2.5618,-2.3782,-2.3824,-2.3782,-2.3638,-2.3724,-2.3824,-2.3824,-2.3937,-2.4147,-2.4451,-2.4492,-2.4719,-2.5291,-2.5389,-2.5427,0.0,-2.5577,-2.5668,0.0,-2.5779,-2.5835,-2.5872,-2.5872,-2.5835,-2.5689,-2.5689,-2.5615,-2.5503,0.0,0.0,0.0,-2.3465,-2.3113,-2.2785,-2.2314,-2.1955,-2.1664,-2.1268,-2.0875,-2.0532,-1.9844,-1.9553,-1.9552,-1.9299,-1.9189,-1.9255,-1.9746,-1.9846,-1.9878,-2.0031,-2.0085,-2.0085,-2.0085,-2.0453,-2.0816,-2.0944,-2.1187,-2.1502,-2.2125,-2.231,-2.2445,-2.3185,-2.3378,-2.3484,-2.3943,-2.3708,-2.3198,-2.2604,-2.2884,-2.322,-2.3078,-2.3917,-2.4368,-2.3531,-2.378,0.0,-2.3198,0.0,-2.3078,-2.3078,-2.3078,-2.3078,-2.3078,-2.2494,0.0,0.0,0.0,0.0,0.0,0.0,0.0,0.0,-1.8921,0.0,-1.8144,-1.8144,-1.8134,-1.8269,-1.8212,-1.8279,-1.8472,-1.9879,-2.0835,-2.1502,-2.2372,-2.2884,-2.3078,-2.3078,-2.3078,-2.3078,-2.3078,-2.3365,-2.3826,-2.4567,-2.5287,-2.6162,-2.2965,-2.3054,-2.3054,-2.3054,-2.3187,-2.3334,-2.3334,-2.3465,-2.3696,-2.3994,-2.4036,-2.4063,-2.4158,-2.4184,0.0,-2.4926,-2.5067,-2.5144,-2.5237,-2.5329,-2.5406,-2.5465,-2.5503,-2.5427,-2.5275,-2.5275,0.0,-2.4792,-2.4307,-2.3721,-2.2995,-2.2875,-2.2603,-2.2189,-2.1925,-2.1645,-2.1366,-2.1091,-2.074,-2.0428,-1.9995,-1.9787,-1.9784,-1.9684,-1.9692,-1.9725,-1.9966,-2.0085,-2.0085,-2.0085,-2.0085,-2.0085,-2.0085,-2.0085,-2.0151,-2.0518,-2.0571,-2.0764,-2.1348,-2.1526,-2.1651,-2.2334,-2.2653,-2.2823,-2.3233,-2.3138,-2.2787,-2.2321,-2.2702,-2.3053,-2.2665,-2.3471,-2.3917,-2.3125,-2.3424,-2.3603,-2.3138,0.0,-2.3078,0.0,0.0,0.0,0.0,-2.2494,-2.1729,0.0,0.0,0.0,0.0,0.0,-1.8921,-1.8472,-1.8787,-1.8654,-1.8144,-1.8008,-1.8076,-1.8212,-1.8076,-1.8269,-1.8865,-2.0128,-2.0974,-2.1439,-2.2628,-2.3078,-2.3078,-2.3078,-2.3078,-2.3138,-2.3365,-2.3721,-2.4176,-2.4894,-2.5673,-2.6472,-2.2152,-2.2109,-2.2081,-2.2081,-2.2512,-2.2844,-2.2844,-2.3201,-2.3508,-2.3508,-2.3508,-2.3334,-2.2889,-2.2844,-2.3348,-2.4608,0.0,0.0,-2.4816,-2.5044,-2.5198,-2.5198,-2.5259,-2.5105,-2.4744,-2.4744,-2.4323,-2.3508,-2.2965,-2.2586,-2.2292,-2.2292,-2.2212,-2.2033,-2.1544,-2.1276,-2.1197,-2.0628,-2.0367,-2.0415,-2.0338,-2.0312,-2.0296,-2.0158,-2.0085,-2.0085,-2.0085,-2.0085,-2.0085,-2.0085,-2.0085,-2.0085,-2.0085,-2.0085,-2.014,-2.0453,-2.0582,-2.0635,-2.1031,-2.1158,-2.1285,-2.1765,-2.2125,-2.2445,-2.2775,-2.2848,-2.2739,-2.2309,-2.2555,-2.2726,-2.2482,-2.2909,-2.3283,-2.2969,-2.3017,-2.3078,-2.3078,-2.3078,-2.3078,0.0,0.0,0.0,-2.3017,-2.2494,-2.1791,0.0,0.0,0.0,0.0,0.0,-1.8405,-1.8741,-1.8472,-1.8269,-1.8269,-1.8076,-1.8008,-1.8008,-1.8008,-1.8462,-1.9309,-2.0204,-2.1049,-2.1877,-2.275,-2.3078,-2.3078,-2.3078,-2.3138,-2.3245,-2.3839,-2.4118,-2.4408,-2.5783,-2.6365,-2.6799,0.0,0.0,-2.2081,-2.2081,-2.2221,-2.2267,-2.2267,-2.236,-2.2452,-2.2452,-2.2452,-2.2406,-2.2314,-2.2267,-2.2406,-2.2741,-2.2772,-2.2817,-2.2906,-2.2995,-2.3084,-2.3187,-2.3216,-2.3231,-2.3201,-2.3113,-2.2995,-2.274,-2.2603,-2.2508,-2.2393,-2.2393,-2.2076,-2.1583,-2.1453,-2.1063,-2.0596,-2.0381,-2.0315,-2.03,-2.0202,-2.0158,-2.0169,-2.0096,-2.0085,-2.0085,-2.0085,-2.0085,-2.0085,-2.0085,-2.0085,-2.0085,-2.0085,-2.0085,-2.0151,-2.0205,-2.0205,-2.027,-2.0646,-2.0775,-2.0828,-2.1273,-2.1588,-2.1963,-2.2297,-2.2371,-2.2309,-2.2185,-2.2309,-2.2371,-2.242,-2.2678,-2.286,-2.2909,-2.3017,-2.3078,-2.3078,-2.3078,-2.3078,0.0,-2.3078,-2.2884,-2.2372,-2.2163,-2.1467,0.0,0.0,0.0,-1.8472,-1.8212,-1.8212,-1.8405,-1.8202,-1.8076,-1.8076,-1.8008,-1.8008,-1.8008,-1.8008,-1.8269,-1.8741,-2.002,-2.0858,-2.1376,-2.2567,-2.3078,-2.3078,-2.3078,-2.3424,-2.3897,-2.4015,-2.4637,-2.555,-2.6082,-2.7156,-2.8535,-2.1733,-2.181,-2.1765,-2.1765,-2.2015,-2.218,-2.218,-2.2122,-2.2081,-2.2081,-2.2081,-2.2035,-2.1813,-2.1779,-2.167,-2.1492,-2.2095,-2.2374,-2.2221,-2.2512,-2.2603,-2.242,-2.2466,-2.2512,-2.2603,-2.2558,-2.2455,-2.2454,-2.2228,-2.2215,-2.2402,-2.2101,-2.174,-2.14,-2.108,-2.0723,-2.0345,-2.0268,-2.0232,-2.0202,-2.0095,-2.0085,-2.0074,-2.0009,-2.0009,-2.0009,-1.9878,-1.9878,-1.9878,-2.0009,-2.0009,-2.0009,-1.9791,-1.9868,-2.0074,-1.9802,-1.9933,-2.0151,-2.0324,-2.0388,-2.0518,-2.1031,-2.1348,-2.16,-2.2061,-2.2197,-2.2197,-2.2197,-2.2197,-2.2185,-2.2309,-2.2432,-2.2616,-2.2665,-2.2787,-2.2969,-2.3017,-2.3017,-2.3017,-2.3078,-2.3078,-2.2823,-2.2051,-2.1729,-2.0962,-1.9694,-1.9309,0.0,-1.8337,-1.8212,-1.8212,-1.8269,-1.8076,-1.8008,-1.8008,-1.8008,-1.8008,-1.8008,-1.8337,-1.8596,-1.8931,-2.0398,-2.1239,-2.1502,-2.2628,-2.3078,-2.3138,-2.3424,-2.378,-2.4118,-2.4694,-2.5314,-2.603,-2.7132,-2.8188,-2.9245,-2.0555,-2.0941,-2.1275,-2.1275,-2.169,-2.203,-2.2001,-2.1929,-2.1848,-2.1908,-2.1908,-2.1718,-2.1326,-2.1277,-2.1131,-2.0749,-2.1921,-2.2466,-2.1894,-2.242,-2.2512,-2.2095,-2.2189,-2.2278,-2.2376,-2.2353,-2.2311,-2.2234,-2.1746,-2.177,-2.2201,-2.165,-2.1393,-2.1309,-2.0709,-2.0369,-2.0279,-2.0158,-2.0085,-2.0085,-2.0074,-2.0009,-1.9878,-1.9868,-1.9802,-1.9671,-1.9605,-1.9605,-1.9671,-1.9868,-1.9868,-1.9726,-1.9375,-1.9584,-1.9802,-1.9375,-1.9649,-2.0009,-2.0074,-2.0085,-2.027,-2.1031,-2.1221,-2.136,-2.2061,-2.2197,-2.2197,-2.2197,-2.2197,-2.2197,-2.2197,-2.2309,-2.2359,-2.2285,-2.2482,-2.2739,-2.2714,0.0,-2.2969,-2.3078,-2.3078,-2.2763,-2.1939,-2.1215,-2.044,-1.9628,-1.8865,-1.8414,-1.8269,-1.8269,-1.8269,-1.8269,-1.8076,-1.8008,-1.8008,-1.8008,-1.8076,-1.8134,-1.8721,-1.9166,-1.9497,-2.0974,-2.169,-2.1939,-2.2763,-2.3138,-2.3305,-2.3897,-2.4189,-2.4465,-2.5495,-2.6113,-2.6551,-2.8329,-2.9241,-2.9917,-2.1176,-2.0863,-2.0538,-2.0538,-2.0637,-2.0699,-2.0743,-2.0752,-2.0797,-2.0901,-2.0934,-2.0885,-2.0799,-2.0799,-2.0799,-2.0699,-2.1277,-2.141,-2.0934,-2.1033,-2.1033,-2.0934,-2.0983,-2.1259,-2.1803,-2.1786,-2.1696,-2.1581,-2.0915,-2.0925,-2.1484,-2.1354,-2.1284,-2.1144,-2.1037,-2.064,-2.016,-2.0118,-2.0085,-2.0074,-2.0009,-1.9594,-1.9044,-1.9462,-1.9264,-1.8777,-1.9396,-1.9736,-1.9868,-1.9868,-1.9649,-1.9375,-1.9299,-1.9044,-1.8844,-1.9166,-1.9375,-1.9518,-2.0009,-2.0085,-2.027,-2.1031,-2.1221,-2.136,-2.2061,-2.2197,-2.2197,-2.2197,-2.2197,-2.2197,-2.2197,-2.2309,-2.2223,-2.1651,-2.2235,-2.2543,-2.2137,0.0,-2.2909,-2.2909,-2.2909,-2.258,-2.1741,-2.1037,-2.0268,-1.9431,-1.8721,-1.8279,-1.8076,-1.8076,-1.8076,-1.8076,-1.8008,-1.8008,-1.8008,-1.8008,-1.8269,-1.8854,-1.8977,-1.9431,-2.0226,-2.1175,-2.169,-2.1939,-2.2763,-2.3424,-2.3943,-2.4073,-2.4694,-2.566,-2.5839,-2.692,-2.8389,-2.8819,-3.0382,-3.2384,-2.0677,-2.0719,-2.0789,-2.0789,-2.0819,-2.0899,-2.0945,-2.0653,-2.0484,-2.0511,-2.0528,-2.0528,-2.0528,-2.0528,-2.0528,-2.0528,-2.0731,-2.0772,-2.0528,-2.1199,-2.1411,-2.1119,-2.1081,-2.1031,-2.0999,-2.0971,-2.1084,-2.1333,-2.1041,-2.1188,-2.1704,-2.1337,-2.1167,-2.106,-2.07,-2.0324,-1.9944,-1.9594,-1.932,-1.9187,-1.8767,-1.8365,-1.8085,-1.821,-1.8007,-1.7804,-1.8027,-1.823,-1.8297,-1.8654,-1.8576,-1.8442,-1.8442,-1.8633,-1.89,-1.89,-1.9253,-1.9791,-2.0009,-2.0085,-2.0216,-2.0775,-2.1031,-2.136,-2.1788,-2.2061,-2.2197,-2.2197,-2.2197,-2.2197,-2.2197,-2.2247,-2.2173,-2.1862,-2.2185,-2.2371,-2.2211,-2.2408,-2.2665,-2.28,-2.28,-2.2469,-2.1577,-2.1187,-2.0666,-1.977,-1.9054,-1.8664,-1.8519,-1.8819,-1.895,-1.895,-1.8718,-1.8519,-1.8519,-1.8921,-1.932,-1.9573,-1.9955,-2.0409,-2.0944,-2.1839,-2.2273,-2.2457,-2.3305,-2.3839,-2.4118,-2.4808,-2.5619,-2.6412,-2.6716,-2.7891,-2.944,-3.0191,-3.1502,-3.3048,-2.0074,-2.0442,-2.0816,-2.0816,-2.0887,-2.1016,-2.108,-2.0641,-2.0392,-2.0377,-2.0423,-2.0423,-2.0423,-2.0423,-2.0423,-2.0423,-2.0423,-2.0423,-2.0423,-2.1428,-2.1812,-2.1271,-2.1355,-2.1133,-2.0614,-2.0558,-2.076,-2.1246,-2.1124,-2.1252,-2.1616,-2.1123,-2.088,-2.0816,-2.0118,-1.9868,-1.9868,-1.89,-1.8499,-1.8432,-1.7677,-1.7257,-1.7051,-1.7042,-1.6973,-1.6844,-1.6862,-1.6932,-1.6991,-1.7413,-1.756,-1.7569,-1.7569,-1.8162,-1.8834,-1.8566,-1.9253,-2.0085,-2.0085,-2.0085,-2.0205,-2.0518,-2.0903,-2.1285,-2.1588,-2.1987,-2.2197,-2.2197,-2.2197,-2.2197,-2.2197,-2.2197,-2.2123,-2.1987,0.0,-2.2185,-2.2161,-2.2297,-2.2482,-2.2616,-2.2616,-2.2359,-2.1651,-2.1451,-2.0996,-2.0161,-1.9669,-1.94,-1.9199,-1.9735,-2.0007,-1.9902,-1.9593,-1.9414,-1.9243,-1.9835,-2.0172,-2.0355,-2.0869,-2.1262,-2.1588,-2.2359,-2.286,-2.3078,-2.378,-2.4371,-2.4824,-2.5758,-2.6608,-2.744,-2.7966,-2.9107,-3.0575,-3.1643,-3.2654,-3.3694,-1.9933,-1.9933,-1.9998,-1.9998,-2.0031,-2.0114,-2.0323,-2.0343,-2.0329,-2.0379,-2.0423,-2.0423,-2.0423,-2.0423,-2.0423,-2.0423,-2.0423,-2.0423,-2.0423,-2.1041,-2.1136,-2.0502,-2.1007,-2.1308,-2.1248,-2.109,-2.1095,-2.1129,-2.0462,-2.0237,-2.027,-2.0205,-2.014,-2.014,-1.9253,-1.9243,-1.9802,-1.8152,-1.7881,-1.8432,-1.7522,-1.6697,-1.614,-1.6715,-1.6524,-1.5965,-1.6655,-1.6991,-1.7101,-1.7101,-1.712,-1.7148,-1.7148,-1.7423,-1.791,-1.8375,-1.9253,-2.0085,-2.0085,-2.0085,-2.0205,-2.0518,-2.0903,-2.1285,-2.1588,-2.1987,-2.2197,-2.2197,-2.2197,-2.2197,-2.2197,-2.2197,-2.1987,-2.1262,0.0,0.0,-2.1526,-2.2025,-2.242,-2.242,-2.242,-2.2359,-2.2185,-2.1526,-2.0869,-2.0161,-2.0511,-2.0482,-1.9802,-2.0447,-2.0609,-2.0096,-2.0544,-2.0544,-2.0042,-2.0096,-2.042,-2.0996,-2.1071,-2.1463,-2.2123,-2.2555,-2.3017,-2.3577,-2.3943,-2.5047,-2.6638,-2.6694,-2.7693,-2.9258,-2.9552,-3.0726,-3.2326,-3.2673,-3.384,-3.5295,-1.9736,-1.9736,-1.9736,-1.9736,-1.9736,-1.9738,-1.9878,-1.9973,-2.0023,-2.0086,-2.0138,-2.02,-2.0126,-2.0138,-2.0138,-1.9939,-2.0001,-2.0064,-1.9939,-2.0243,-2.058,-2.0807,-2.1055,-2.0973,-2.0556,-2.0482,-2.0453,-2.0453,-2.0205,-2.0074,-2.0009,-2.0009,-1.9878,-1.9747,-1.8977,-1.871,-1.871,-1.7189,-1.6636,-1.6724,-1.5877,-1.5392,-1.5188,-1.5401,-1.5267,-1.5062,-1.5338,-1.5542,-1.5604,-1.6158,-1.6306,-1.6385,-1.6821,-1.7569,-1.8307,-1.8834,-1.9309,-1.9518,-1.9187,-1.9594,-2.0151,-2.027,-2.0582,-2.0903,-2.1285,-2.1663,-2.1925,-2.2135,-2.2197,-2.2197,-2.2197,-2.2197,-2.2123,-2.1862,0.0,-2.2123,-2.1925,-2.2123,-2.2309,-2.2309,-2.2309,-2.2247,-2.2197,-2.1925,-2.1792,-2.1917,-2.1362,-2.1027,-2.1119,-2.1341,-2.167,-2.1888,-2.2073,-2.1717,-2.0752,-2.1146,-2.1537,-2.1788,-2.1788,-2.1925,-2.2185,-2.2944,-2.3352,-2.3708,-2.5158,-2.6145,-2.6849,-2.7654,-2.8764,-2.9967,-3.0253,-3.1442,-3.3112,-3.3566,-3.4518,-3.5688,-1.9131,-1.9341,-1.9473,-1.9473,-1.9473,-1.9473,-1.9264,-1.9605,-1.9736,-1.9462,-1.9736,-1.9878,-1.9813,-1.9878,-1.9878,-1.9605,-1.9747,-1.9736,-1.9605,-1.9528,-1.9846,-2.0764,-2.0764,-2.0571,-2.0074,-1.9802,-1.966,-1.9594,-1.9396,-1.9187,-1.911,-1.911,-1.9044,-1.8854,-1.8085,-1.7745,-1.7745,-1.6219,-1.5675,-1.5762,-1.4919,-1.4569,-1.4569,-1.4569,-1.4569,-1.4569,-1.4569,-1.4569,-1.4713,-1.5275,-1.548,-1.5692,-1.6333,-1.7364,-1.8375,-1.89,-1.9034,-1.8967,-1.8576,-1.9054,-1.9671,-1.9802,-2.0118,-2.0442,-2.07,-2.0944,-2.125,-2.1726,-2.1851,-2.1925,-2.2135,-2.2197,-2.2197,-2.2197,-2.2197,-2.2197,-2.2197,-2.1999,-2.1925,-2.2185,-2.1999,-2.1984,-2.2426,-2.2294,-2.2339,-2.2598,-2.2034,-2.1847,-2.2208,-2.222,-2.2421,-2.2739,-2.2739,-2.2357,-2.1463,-2.1925,-2.2197,-2.2197,-2.2197,-2.2309,-2.2592,-2.347,-2.4118,-2.4614,-2.638,-2.7343,-2.7741,-2.8768,-2.9873,-3.1001,-3.1396,-3.2515,-3.3937,-3.4463,-3.5261,-3.6147,-1.8182,-1.8798,-1.9285,-1.9285,-1.9285,-1.9075,-1.8576,-1.9131,-1.933,-1.8576,-1.9131,-1.9605,-1.9605,-1.9605,-1.9605,-1.9605,-1.9605,-1.9605,-1.9605,-1.8921,-1.8977,-2.0009,-2.0074,-2.0009,-1.9868,-1.9177,-1.87,-1.8499,-1.7745,-1.7404,-1.7404,-1.7404,-1.7404,-1.7335,-1.6419,-1.6419,-1.6964,-1.5321,-1.5062,-1.5692,-1.4919,-1.4569,-1.4569,-1.4569,-1.4569,-1.4569,-1.4569,-1.4569,-1.4569,-1.4569,-1.4848,-1.5267,-1.5692,-1.6664,-1.7765,-1.8375,-1.8499,-1.8499,-1.8509,-1.8509,-1.8633,-1.9166,-1.9573,-1.9781,-1.977,-1.9814,-1.9987,-2.0719,-2.0996,-2.1325,-2.2061,-2.2197,-2.2197,-2.2185,-2.2197,-2.2197,-2.2185,-2.1588,-2.1388,-2.2123,-2.1526,-2.1597,-2.2855,-2.2498,-2.2139,-2.1912,-2.2568,-2.2979,-2.2967,-2.2967,-2.2739,-2.2209,-2.2197,-2.2197,-2.2197,-2.2197,-2.2197,-2.2197,-2.2197,-2.2592,-2.3339,-2.4154,-2.5302,-2.6623,-2.7453,-2.8496,-2.9624,-3.0113,-3.1076,-3.2376,-3.313,-3.4053,-3.5021,-3.5316,-3.6011,-3.6816,-1.7276,-1.7482,-1.7619,-1.7619,-1.7619,-1.755,-1.7413,-1.7668,-1.7939,-1.824,-1.8162,-1.8375,-1.9274,-1.9065,-1.871,-1.8509,-1.9065,-1.9142,-1.8654,-1.7949,-1.7736,-1.8152,-1.823,-1.8152,-1.8152,-1.7949,-1.7813,-1.7745,-1.7541,-1.7326,-1.7179,-1.7179,-1.712,-1.7001,-1.6237,-1.5956,-1.6097,-1.5054,-1.4713,-1.4919,-1.4713,-1.4569,-1.4569,-1.4569,-1.4569,-1.4569,-1.4569,-1.4569,-1.4641,-1.4919,-1.5133,-1.5409,-1.6385,-1.7148,-1.7706,-1.791,-1.7969,-1.7842,-1.751,-1.7638,-1.8037,-1.8566,-1.8834,-1.8967,-1.9177,-1.9233,-1.9552,-2.0655,-2.0921,-2.1187,-2.2061,-2.2197,-2.2061,-2.1526,-2.1851,-2.1987,-2.1526,-2.1663,-2.1925,-2.2185,-2.1999,-2.2047,-2.2414,-2.2282,-2.2339,-2.2662,-2.2915,-2.2823,-2.245,-2.2426,-2.2354,-2.2197,-2.2197,-2.2197,-2.2197,-2.2197,-2.2371,-2.2678,-2.3108,-2.3752,-2.4502,-2.5695,-2.6622,-2.7323,-2.8886,-2.975,-3.0199,-3.1237,-3.2151,-3.2864,-3.3703,-3.4431,-3.5115,-3.6037,-3.6655,-3.7091,-1.6455,-1.6724,-1.6932,-1.6932,-1.6932,-1.6793,-1.6524,-1.6784,-1.7051,-1.7207,-1.7207,-1.7482,-1.825,-1.8037,-1.7823,-1.755,-1.8037,-1.8037,-1.7285,-1.6853,-1.6498,-1.6298,-1.6298,-1.6576,-1.7257,-1.6982,-1.6844,-1.6793,-1.6446,-1.6228,-1.6079,-1.6079,-1.6088,-1.5965,-1.5551,-1.5346,-1.5267,-1.4784,-1.4569,-1.4569,-1.4569,-1.4569,-1.4569,-1.4569,-1.4569,-1.4569,-1.4569,-1.4569,-1.4641,-1.4848,-1.5196,-1.5551,-1.6315,-1.6941,-1.7373,-1.7373,-1.7373,-1.7304,-1.6968,-1.7176,-1.7442,-1.7774,-1.8046,-1.824,-1.8442,-1.8643,-1.91,-2.0128,-2.0655,-2.1123,-2.1663,-2.1788,-2.16,-2.1187,-2.1463,-2.1726,-2.1526,-2.1663,-2.1862,-2.2185,-2.1925,-2.1945,-2.2486,-2.2318,-2.233,-2.2642,-2.2666,-2.2534,-2.2209,-2.2371,-2.2494,-2.2494,-2.2874,-2.3109,-2.3109,-2.3319,-2.3381,-2.3293,-2.4203,-2.5052,-2.5828,-2.7037,-2.797,-2.8713,-3.0072,-3.0824,-3.1162,-3.2167,-3.2864,-3.3391,-3.4268,-3.4955,-3.5582,-3.6474,-3.7111,-3.7596,-1.5692,-1.6245,-1.6655,-1.6655,-1.6655,-1.6446,-1.5833,-1.6245,-1.6455,-1.5903,-1.6315,-1.6724,-1.6862,-1.6862,-1.6793,-1.6793,-1.6733,-1.6455,-1.5833,-1.5762,-1.5346,-1.4641,-1.4569,-1.5321,-1.6826,-1.621,-1.5807,-1.5692,-1.4991,-1.4569,-1.4569,-1.4569,-1.4569,-1.4569,-1.4569,-1.4569,-1.4569,-1.4569,-1.4569,-1.4569,-1.4569,-1.4569,-1.4569,-1.4569,-1.4569,-1.4569,-1.4569,-1.4569,-1.4569,-1.4569,-1.5133,-1.5833,-1.5833,-1.6333,-1.6908,-1.6908,-1.6908,-1.6908,-1.6908,-1.6908,-1.6908,-1.6908,-1.7235,-1.7638,-1.7638,-1.8037,-1.8633,-1.9333,-2.0268,-2.0996,-2.106,-2.106,-2.0996,-2.0933,-2.0996,-2.1262,-2.1862,-2.1526,-2.1388,-2.2061,-2.1588,-2.1637,-2.2795,-2.2474,-2.2197,-2.2197,-2.2197,-2.2185,-2.2247,-2.2714,-2.2983,-2.3044,-2.406,-2.46,-2.46,-2.5277,-2.5076,-2.4042,-2.5389,-2.6457,-2.7304,-2.8274,-2.9331,-3.0499,-3.1126,-3.1766,-3.2391,-3.2879,-3.3391,-3.3953,-3.48,-3.5537,-3.6274,-3.6759,-3.7469,-3.8216,-1.4848,-1.4991,-1.5125,-1.5125,-1.5125,-1.5054,-1.4848,-1.4991,-1.5267,-1.5762,-1.5409,-1.5542,-1.6793,-1.6385,-1.6035,-1.6035,-1.548,-1.5267,-1.5762,-1.5196,-1.4776,-1.4641,-1.4569,-1.4776,-1.5117,-1.4982,-1.4919,-1.4848,-1.4713,-1.4569,-1.4569,-1.4569,-1.4569,-1.4569,-1.4569,-1.4569,-1.4569,-1.4569,-1.4569,-1.4569,-1.4569,-1.4569,-1.4569,-1.4569,-1.4569,-1.4569,-1.4569,-1.4569,-1.4569,-1.4569,-1.5133,-1.5833,-1.5833,-1.6333,-1.6908,-1.6908,-1.6908,-1.6908,-1.6908,-1.6908,-1.6908,-1.6908,-1.6978,-1.7038,-1.7038,-1.751,-1.8162,-1.9278,-1.9617,-1.9955,-2.0933,-2.0677,-2.0161,-1.9562,-2.0409,-2.0805,-1.9835,-2.1008,-2.18,-2.14,-2.1726,-2.2035,-2.2354,-2.2258,-2.2197,-2.2197,-2.2197,-2.2371,-2.2739,-2.3319,-2.3791,-2.4147,-2.482,-2.5165,-2.5165,-2.643,-2.6667,-2.5972,-2.6805,-2.7925,-2.9262,-2.9957,-3.0778,-3.1554,-3.2099,-3.2516,-3.2879,-3.3594,-3.4068,-3.4464,-3.552,-3.6045,-3.634,-3.747,-3.805,-3.8387,-1.4569,-1.4569,-1.4569,-1.4569,-1.4569,-1.4569,-1.4569,-1.4569,-1.4776,-1.5196,-1.4848,-1.4919,-1.5683,-1.548,-1.5204,-1.5204,-1.4848,-1.4776,-1.5204,-1.4848,-1.4569,-1.4569,-1.4569,-1.4569,-1.4569,-1.4569,-1.4569,-1.4569,-1.4569,-1.4569,-1.4569,-1.4569,-1.4569,-1.4569,-1.4569,-1.4569,-1.4569,-1.4569,-1.4569,-1.4569,-1.4569,-1.4569,-1.4569,-1.4569,-1.4569,-1.4569,-1.4569,-1.4569,-1.4569,-1.4569,-1.5133,-1.5833,-1.5833,-1.6333,-1.6908,-1.6908,-1.6908,-1.6908,-1.6908,-1.6908,-1.6908,-1.6908,-1.6908,-1.6978,-1.7245,-1.7628,-1.822,-1.9212,-1.9486,-1.9683,-2.002,-1.9824,-1.9441,-1.9044,-1.9628,-1.9955,-1.9573,-2.0752,-2.1526,-2.1135,-2.1726,-2.2197,-2.2197,-2.2197,-2.2197,-2.2197,-2.2197,-2.2542,-2.3281,-2.3816,-2.4453,-2.5231,-2.6041,-2.6582,-2.6707,-2.796,-2.8608,-2.8577,-2.89,-2.9645,-3.0613,-3.1142,-3.1637,-3.2256,-3.2625,-3.3055,-3.3594,-3.4251,-3.4738,-3.5191,-3.6105,-3.6649,-3.7006,-3.7859,-3.8693,-3.9637,-1.4418,-1.4489,-1.4489,-1.4569,-1.4569,-1.4569,-1.4569,-1.4569,-1.4569,-1.4569,-1.4569,-1.4569,-1.4569,-1.4569,-1.4569,-1.4569,-1.4569,-1.4569,-1.4569,-1.4569,-1.4569,-1.4569,-1.4569,-1.4569,-1.4569,-1.4569,-1.4569,-1.4569,-1.4569,-1.4569,-1.4569,-1.4569,-1.4569,-1.4569,-1.4569,-1.4569,-1.4569,-1.4569,-1.4569,-1.4569,-1.4569,-1.4569,-1.4569,-1.4569,-1.4569,-1.4569,-1.4569,-1.4569,-1.4569,-1.4569,-1.5062,-1.5692,-1.5762,-1.6263,-1.683,-1.6908,-1.6908,-1.6908,-1.6908,-1.6908,-1.6908,-1.6908,-1.6908,-1.7038,-1.7579,-1.7891,-1.8277,-1.8957,-1.9278,-1.941,-1.9034,-1.8844,-1.8777,-1.8777,-1.8911,-1.9177,-1.977,-2.0613,-2.1123,-2.1123,-2.1726,-2.2197,-2.2197,-2.2197,-2.2234,-2.2318,-2.2454,-2.2922,-2.4017,-2.463,-2.5397,-2.6317,-2.7466,-2.8153,-2.8463,-2.9492,-3.0343,-3.0999,-3.1058,-3.1276,-3.1607,-3.1962,-3.2367,-3.2819,-3.3055,-3.3543,-3.4184,-3.4833,-3.5311,-3.5786,-3.658,-3.721,-3.7789,-3.8391,-3.9692,-4.1431,-1.3833,-1.3905,-1.4049,-1.4497,-1.4569,-1.4569,-1.4569,-1.4569,-1.4569,-1.4569,-1.4569,-1.4569,-1.4569,-1.4569,-1.4569,-1.4569,-1.4569,-1.4569,-1.4569,-1.4569,-1.4569,-1.4569,-1.4569,-1.4569,-1.4569,-1.4569,-1.4569,-1.4569,-1.4569,-1.4569,-1.4569,-1.4569,-1.4569,-1.4569,-1.4569,-1.4569,-1.4569,-1.4569,-1.4569,-1.4569,-1.4569,-1.4569,-1.4569,-1.4569,-1.4569,-1.4569,-1.4569,-1.4569,-1.4569,-1.4569,-1.4919,-1.5338,-1.5692,-1.6053,-1.6421,-1.6769,-1.6908,-1.6908,-1.6908,-1.6908,-1.6908,-1.6908,-1.6908,-1.7038,-1.7579,-1.7774,-1.7891,-1.8277,-1.8307,-1.8395,-1.8767,-1.8182,-1.7725,-1.7842,-1.8432,-1.8834,-1.8967,-2.0215,-2.1123,-2.1123,-2.1726,-2.2197,-2.2197,-2.2197,-2.2378,-2.2847,-2.3303,-2.4029,-2.5027,-2.6087,-2.691,-2.7458,-2.8664,-2.9344,-2.9572,-3.054,-3.1319,-3.1931,-3.2241,-3.2367,-3.2477,-3.2718,-3.3124,-3.3591,-3.3832,-3.4134,-3.4497,-3.5018,-3.5414,-3.5786,-3.6829,-3.7434,-3.7911,-3.9637,-4.1638,-4.3498,-1.3258,-1.3331,-1.3404,-1.3622,-1.3912,-1.4057,-1.3695,-1.3912,-1.4129,-1.4129,-1.4129,-1.4129,-1.4129,-1.4129,-1.4274,-1.4569,-1.4569,-1.4569,-1.4569,-1.4569,-1.4569,-1.4569,-1.4569,-1.4569,-1.4569,-1.4569,-1.4425,-1.4129,-1.4425,-1.4569,-1.4569,-1.4569,-1.4418,-1.4129,-1.4129,-1.3985,-1.3622,-1.3622,-1.384,-1.4129,-1.4129,-1.4346,-1.4569,-1.4569,-1.4569,-1.4569,-1.4569,-1.4569,-1.4569,-1.4569,-1.4848,-1.5267,-1.5692,-1.6053,-1.6412,-1.6769,-1.6908,-1.6908,-1.6908,-1.6908,-1.6908,-1.6908,-1.6908,-1.6968,-1.7176,-1.7235,-1.7442,-1.7978,-1.7784,-1.7657,-1.7988,-1.7725,-1.7598,-1.7988,-1.8327,-1.8654,-1.8921,-1.9901,-2.0741,-2.1388,-2.1925,-2.2197,-2.2197,-2.2762,-2.3218,-2.3452,-2.4243,-2.5166,-2.6179,-2.6722,-2.7498,-2.8692,-2.933,-2.9964,-3.0584,-3.1319,-3.1946,-3.2391,-3.2819,-3.3049,-3.3208,-3.3351,-3.3575,-3.3949,-3.4201,-3.4561,-3.4988,-3.5548,-3.6138,-3.6654,-3.7488,-3.8413,-3.9549,-4.1586,-4.2995,-4.3986]}]]